[[{"header":{"parameterUnit":"m.s-1","parameterCategory":1,"la1":30.6,"la2":28.766,"lo1":-90.7593,"lo2":-88.6598,"dy":0.0162,"dx":0.0183,"nx":116,"ny":114,"refTime":"2023-10-03T18:00:00:Z","depth":0,"parameterNumber":2,"parameterNumberName":"U-component_of_WINDS"},"data":[0.0,0.0,0.0,0.0,0.0,0.0,0.0,0.0,0.0,0.0,0.0,0.0,0.0,0.0,0.0,0.0,0.0,0.0,0.0,0.0,0.0,0.0,0.0,0.0,0.0,0.0,0.0,0.0,0.0,0.0,0.0,0.0,0.0,0.0,0.0,0.0,0.0,0.0,0.0,0.0,0.0,0.0,0.0,0.0,0.0,0.0,0.0,0.0,0.0,0.0,0.0,0.0,0.0,0.0,0.0,0.0,0.0,0.0,0.0,0.0,0.0,0.0,0.0,0.0,0.0,0.0,0.0,0.0,0.0,0.0,0.0,0.0,0.0,0.0,0.0,0.0,0.0,0.0,0.0,0.0,0.0,0.0,0.0,0.0,0.0,0.0,0.0,0.0,0.0,0.0,0.0,0.0,0.0,0.0,0.0,0.0,0.0,0.0,0.0,0.0,0.0,0.0,0.0,0.0,0.0,0.0,0.0,0.0,0.0,0.0,0.0,0.0,0.0,0.0,0.0,0.0,0.0,0.0,0.0,0.0,0.0,0.0,0.0,0.0,0.0,0.0,0.0,0.0,0.0,0.0,0.0,0.0,0.0,0.0,0.0,0.0,0.0,0.0,0.0,0.0,0.0,0.0,0.0,0.0,0.0,0.0,0.0,0.0,0.0,0.0,0.0,0.0,0.0,0.0,0.0,0.0,0.0,0.0,0.0,0.0,0.0,0.0,0.0,0.0,0.0,0.0,0.0,0.0,0.0,0.0,0.0,0.0,0.0,0.0,0.0,0.0,0.0,0.0,0.0,0.0,0.0,0.0,0.0,0.0,0.0,0.0,0.0,0.0,0.0,0.0,0.0,0.0,0.0,0.0,0.0,0.0,0.0,0.0,0.0,0.0,0.0,0.0,0.0,0.0,0.0,0.0,0.0,0.0,0.0,0.0,0.0,0.0,0.0,0.0,0.0,0.0,0.0,0.0,0.0,0.0,0.0,0.0,0.0,0.0,0.0,0.0,0.0,0.0,0.0,0.0,0.0,0.0,0.0,0.0,0.0,0.0,0.0,0.0,0.0,0.0,0.0,0.0,0.0,0.0,0.0,0.0,0.0,0.0,0.0,0.0,0.0,0.0,0.0,0.0,0.0,0.0,0.0,0.0,0.0,0.0,0.0,0.0,0.0,0.0,0.0,0.0,0.0,0.0,0.0,0.0,0.0,0.0,0.0,0.0,0.0,0.0,0.0,0.0,0.0,0.0,0.0,0.0,0.0,0.0,0.0,0.0,0.0,0.0,0.0,0.0,0.0,0.0,0.0,0.0,0.0,0.0,0.0,0.0,0.0,0.0,0.0,0.0,0.0,0.0,0.0,0.0,0.0,0.0,0.0,0.0,0.0,0.0,0.0,0.0,0.0,0.0,0.0,0.0,0.0,0.0,0.0,0.0,0.0,0.0,0.0,0.0,0.0,0.0,0.0,0.0,0.0,0.0,0.0,0.0,0.0,0.0,0.0,0.0,0.0,0.0,0.0,0.0,0.0,0.0,0.0,0.0,0.0,0.0,0.0,0.0,0.0,0.0,0.0,0.0,0.0,0.0,0.0,0.0,0.0,0.0,0.0,0.0,0.0,0.0,0.0,0.0,0.0,0.0,0.0,0.0,0.0,0.0,0.0,0.0,0.0,0.0,0.0,0.0,0.0,0.0,0.0,0.0,0.0,0.0,0.0,0.0,0.0,0.0,0.0,0.0,0.0,0.0,0.0,0.0,0.0,0.0,0.0,0.0,0.0,0.0,0.0,0.0,0.0,0.0,0.0,0.0,0.0,0.0,0.0,0.0,0.0,0.0,0.0,0.0,0.0,0.0,0.0,0.0,0.0,0.0,0.0,0.0,0.0,0.0,0.0,0.0,0.0,0.0,0.0,0.0,0.0,0.0,0.0,0.0,0.0,0.0,0.0,0.0,0.0,0.0,0.0,0.0,0.0,0.0,0.0,0.0,0.0,0.0,0.0,0.0,0.0,0.0,0.0,0.0,0.0,0.0,0.0,0.0,0.0,0.0,0.0,0.0,0.0,0.0,0.0,0.0,0.0,0.0,0.0,0.0,0.0,0.0,0.0,0.0,0.0,0.0,0.0,0.0,0.0,0.0,0.0,0.0,0.0,0.0,0.0,0.0,0.0,0.0,0.0,0.0,0.0,0.0,0.0,0.0,0.0,0.0,0.0,0.0,0.0,0.0,0.0,0.0,0.0,0.0,0.0,0.0,0.0,0.0,0.0,0.0,0.0,0.0,0.0,0.0,0.0,0.0,0.0,0.0,0.0,0.0,0.0,0.0,0.0,0.0,0.0,0.0,0.0,0.0,0.0,0.0,0.0,0.0,0.0,0.0,0.0,0.0,0.0,0.0,0.0,0.0,0.0,0.0,0.0,0.0,0.0,0.0,0.0,0.0,0.0,0.0,0.0,0.0,0.0,0.0,0.0,0.0,0.0,0.0,0.0,0.0,0.0,0.0,0.0,0.0,0.0,0.0,0.0,0.0,0.0,0.0,0.0,0.0,0.0,0.0,0.0,0.0,0.0,0.0,0.0,0.0,0.0,0.0,0.0,0.0,0.0,0.0,0.0,0.0,0.0,0.0,0.0,0.0,0.0,0.0,0.0,0.0,0.0,0.0,0.0,0.0,0.0,0.0,0.0,0.0,0.0,0.0,0.0,0.0,0.0,0.0,0.0,0.0,0.0,0.0,0.0,0.0,0.0,0.0,0.0,0.0,0.0,0.0,0.0,0.0,0.0,0.0,0.0,0.0,0.0,0.0,0.0,0.0,0.0,0.0,0.0,0.0,0.0,0.0,0.0,0.0,0.0,0.0,0.0,0.0,0.0,0.0,0.0,0.0,0.0,0.0,0.0,0.0,0.0,0.0,0.0,0.0,0.0,0.0,0.0,0.0,0.0,0.0,0.0,0.0,0.0,0.0,0.0,0.0,0.0,0.0,0.0,0.0,0.0,0.0,0.0,0.0,0.0,0.0,0.0,0.0,0.0,0.0,0.0,0.0,0.0,0.0,0.0,0.0,0.0,0.0,0.0,0.0,0.0,0.0,0.0,0.0,0.0,0.0,0.0,0.0,0.0,0.0,0.0,0.0,0.0,0.0,0.0,0.0,0.0,0.0,0.0,0.0,0.0,0.0,0.0,0.0,0.0,0.0,0.0,0.0,0.0,0.0,0.0,0.0,0.0,0.0,0.0,0.0,0.0,0.0,0.0,0.0,0.0,0.0,0.0,0.0,0.0,0.0,0.0,0.0,0.0,0.0,0.0,0.0,0.0,0.0,0.0,0.0,0.0,0.0,0.0,0.0,0.0,0.0,0.0,0.0,0.0,0.0,0.0,0.0,0.0,0.0,0.0,0.0,0.0,0.0,0.0,0.0,0.0,0.0,0.0,0.0,0.0,0.0,0.0,0.0,0.0,0.0,0.0,0.0,0.0,0.0,0.0,0.0,0.0,0.0,0.0,0.0,0.0,0.0,0.0,0.0,0.0,0.0,0.0,0.0,0.0,0.0,0.0,0.0,0.0,0.0,0.0,0.0,0.0,0.0,0.0,0.0,0.0,0.0,0.0,0.0,0.0,0.0,0.0,0.0,0.0,0.0,0.0,0.0,0.0,0.0,0.0,0.0,0.0,0.0,0.0,0.0,0.0,0.0,0.0,0.0,0.0,0.0,0.0,0.0,0.0,0.0,0.0,0.0,0.0,0.0,0.0,0.0,0.0,0.0,0.0,0.0,0.0,0.0,0.0,0.0,0.0,0.0,0.0,0.0,0.0,0.0,0.0,0.0,0.0,0.0,0.0,0.0,0.0,0.0,0.0,0.0,0.0,0.0,0.0,0.0,0.0,0.0,0.0,0.0,0.0,0.0,0.0,0.0,0.0,0.0,0.0,0.0,0.0,0.0,0.0,0.0,0.0,0.0,0.0,0.0,0.0,0.0,0.0,0.0,0.0,0.0,0.0,0.0,0.0,0.0,0.0,0.0,0.0,0.0,0.0,0.0,0.0,0.0,0.0,0.0,0.0,0.0,0.0,0.0,0.0,0.0,0.0,0.0,0.0,0.0,0.0,0.0,0.0,0.0,0.0,0.0,0.0,0.0,0.0,0.0,0.0,0.0,0.0,0.0,0.0,0.0,0.0,0.0,0.0,0.0,0.0,0.0,0.0,0.0,0.0,0.0,0.0,0.0,0.0,0.0,0.0,0.0,0.0,0.0,0.0,0.0,0.0,0.0,0.0,0.0,0.0,0.0,0.0,0.0,0.0,0.0,0.0,0.0,0.0,0.0,0.0,0.0,0.0,0.0,0.0,0.0,0.0,0.0,0.0,0.0,0.0,0.0,0.0,0.0,0.0,0.0,0.0,0.0,0.0,0.0,0.0,0.0,0.0,0.0,0.0,0.0,0.0,0.0,0.0,0.0,0.0,0.0,0.0,0.0,0.0,0.0,0.0,0.0,0.0,0.0,0.0,0.0,0.0,0.0,0.0,0.0,0.0,0.0,0.0,0.0,0.0,0.0,0.0,0.0,0.0,0.0,0.0,0.0,0.0,0.0,0.0,0.0,0.0,0.0,0.0,0.0,0.0,0.0,0.0,0.0,0.0,0.0,0.0,0.0,0.0,0.0,0.0,0.0,0.0,0.0,0.0,0.0,0.0,0.0,0.0,0.0,0.0,0.0,0.0,0.0,0.0,0.0,0.0,0.0,0.0,0.0,0.0,0.0,0.0,0.0,0.0,0.0,0.0,0.0,0.0,0.0,0.0,0.0,0.0,0.0,0.0,0.0,0.0,0.0,0.0,0.0,0.0,0.0,0.0,0.0,0.0,0.0,0.0,0.0,0.0,0.0,0.0,0.0,0.0,0.0,0.0,0.0,0.0,0.0,0.0,0.0,0.0,0.0,0.0,0.0,0.0,0.0,0.0,0.0,0.0,0.0,0.0,0.0,0.0,0.0,0.0,0.0,0.0,0.0,0.0,0.0,0.0,0.0,0.0,0.0,0.0,0.0,0.0,0.0,0.0,0.0,0.0,0.0,0.0,0.0,0.0,0.0,0.0,0.0,0.0,0.0,0.0,0.0,0.0,0.0,0.0,0.0,0.0,0.0,0.0,0.0,0.0,0.0,0.0,0.0,0.0,0.0,0.0,0.0,0.0,0.0,0.0,0.0,0.0,0.0,0.0,0.0,0.0,0.0,0.0,0.0,0.0,0.0,0.0,0.0,0.0,0.0,0.0,0.0,0.0,0.0,0.0,0.0,0.0,0.0,0.0,0.0,0.0,0.0,0.0,0.0,0.0,0.0,0.0,0.0,0.0,0.0,0.0,0.0,0.0,0.0,0.0,0.0,0.0,0.0,0.0,0.0,0.0,0.0,0.0,0.0,0.0,0.0,0.0,0.0,0.0,0.0,0.0,0.0,0.0,0.0,0.0,0.0,0.0,0.0,0.0,0.0,0.0,0.0,0.0,0.0,0.0,0.0,0.0,0.0,0.0,0.0,0.0,0.0,0.0,0.0,0.0,0.0,0.0,0.0,0.0,0.0,0.0,0.0,0.0,0.0,0.0,0.0,0.0,0.0,0.0,0.0,0.0,0.0,0.0,0.0,0.0,0.0,0.0,0.0,0.0,0.0,0.0,0.0,0.0,0.0,0.0,0.0,0.0,0.0,0.0,0.0,0.0,0.0,0.0,0.0,0.0,0.0,0.0,0.0,0.0,0.0,0.0,0.0,0.0,0.0,0.0,0.0,0.0,0.0,0.0,0.0,0.0,0.0,0.0,0.0,0.0,0.0,0.0,0.0,0.0,0.0,0.0,0.0,0.0,0.0,0.0,0.0,0.0,0.0,0.0,0.0,0.0,0.0,0.0,0.0,0.0,0.0,0.0,0.0,0.0,0.0,0.0,0.0,0.0,0.0,0.0,0.0,0.0,0.0,0.0,0.0,0.0,0.0,0.0,0.0,0.0,0.0,0.0,0.0,0.0,0.0,0.0,0.0,0.0,0.0,0.0,0.0,0.0,0.0,0.0,0.0,0.0,0.0,0.0,0.0,0.0,0.0,0.0,0.0,0.0,0.0,0.0,0.0,0.0,0.0,0.0,0.0,5.5468,0.0,0.0,0.0,0.0,0.0,0.0,0.0,0.0,0.0,0.0,0.0,0.0,0.0,0.0,0.0,0.0,0.0,0.0,0.0,0.0,0.0,0.0,0.0,0.0,0.0,0.0,0.0,0.0,0.0,0.0,0.0,0.0,0.0,0.0,0.0,0.0,0.0,0.0,0.0,4.6882,4.8754,5.0815,5.0359,4.9745,4.8978,0.0,0.0,0.0,0.0,0.0,0.0,0.0,0.0,0.0,0.0,0.0,0.0,0.0,0.0,0.0,0.0,0.0,0.0,0.0,0.0,0.0,0.0,0.0,0.0,0.0,0.0,0.0,0.0,0.0,0.0,0.0,0.0,0.0,0.0,0.0,0.0,0.0,0.0,0.0,0.0,0.0,0.0,0.0,0.0,0.0,0.0,0.0,0.0,0.0,0.0,0.0,0.0,0.0,0.0,0.0,0.0,0.0,0.0,0.0,0.0,0.0,0.0,0.0,0.0,0.0,0.0,0.0,0.0,0.0,0.0,0.0,5.8679,0.0,0.0,0.0,0.0,0.0,0.0,0.0,0.0,0.0,0.0,0.0,0.0,0.0,0.0,0.0,0.0,0.0,0.0,0.0,0.0,0.0,0.0,0.0,0.0,4.089,4.1843,4.1803,4.2109,0.0,0.0,0.0,0.0,0.0,0.0,0.0,4.5015,4.6426,4.7376,5.0227,5.2745,5.4963,5.5822,5.4705,5.1998,5.1414,0.0,0.0,0.0,0.0,0.0,0.0,0.0,0.0,0.0,0.0,0.0,0.0,0.0,0.0,0.0,0.0,0.0,0.0,0.0,0.0,0.0,0.0,0.0,0.0,0.0,0.0,0.0,0.0,0.0,0.0,0.0,0.0,0.0,0.0,0.0,0.0,0.0,0.0,0.0,0.0,0.0,0.0,0.0,0.0,0.0,0.0,0.0,0.0,0.0,0.0,0.0,0.0,0.0,0.0,0.0,0.0,0.0,0.0,0.0,0.0,0.0,0.0,0.0,6.6916,6.8538,6.993,7.0299,7.1214,7.2256,6.7373,6.4662,6.3591,6.1737,0.0,0.0,0.0,0.0,0.0,0.0,0.0,0.0,0.0,0.0,0.0,0.0,0.0,0.0,0.0,0.0,0.0,0.0,0.0,0.0,0.0,4.0844,4.1961,4.3512,4.3021,4.2982,4.378,0.0,0.0,0.0,0.0,0.0,4.4977,4.7349,4.9369,5.0926,5.4828,5.7278,5.8356,5.9115,5.9227,5.8698,5.5945,5.4712,5.4635,0.0,0.0,0.0,0.0,0.0,0.0,0.0,0.0,0.0,0.0,0.0,0.0,0.0,0.0,0.0,0.0,0.0,0.0,0.0,0.0,0.0,0.0,0.0,0.0,0.0,0.0,0.0,0.0,0.0,0.0,0.0,0.0,0.0,0.0,0.0,0.0,0.0,0.0,0.0,0.0,0.0,5.2539,5.277,0.0,0.0,0.0,0.0,0.0,0.0,0.0,0.0,0.0,0.0,0.0,0.0,0.0,6.5604,6.7227,6.9888,7.1238,7.1277,7.3707,7.4983,7.5253,7.6729,7.7504,7.7661,7.6961,0.0,6.8818,6.6381,0.0,0.0,0.0,0.0,0.0,0.0,0.0,0.0,0.0,0.0,0.0,0.0,0.0,0.0,0.0,0.0,0.0,0.0,0.0,0.0,0.0,4.2582,4.4325,4.5995,4.6271,4.6503,4.6844,4.6541,0.0,0.0,0.0,4.692,4.7423,4.9445,5.2436,5.6438,5.9134,6.1119,6.2421,6.2763,6.2895,6.2861,6.1485,5.9803,5.7932,5.6221,0.0,0.0,0.0,0.0,0.0,0.0,0.0,0.0,0.0,0.0,0.0,0.0,0.0,0.0,0.0,0.0,0.0,0.0,0.0,0.0,0.0,0.0,0.0,0.0,0.0,0.0,0.0,0.0,0.0,0.0,0.0,0.0,0.0,0.0,0.0,0.0,0.0,0.0,0.0,5.3614,5.5733,5.6655,5.6382,5.5761,0.0,0.0,0.0,0.0,0.0,0.0,0.0,0.0,0.0,6.6314,6.9303,7.1476,7.2747,7.5289,7.6559,7.6598,7.818,7.9182,7.9648,8.0423,8.1062,8.149,8.1063,7.9478,7.6843,7.2858,7.0631,6.9667,0.0,0.0,0.0,0.0,6.9656,7.0157,0.0,0.0,0.0,0.0,0.0,0.0,0.0,0.0,0.0,0.0,0.0,0.0,4.261,4.4862,4.7038,4.8902,4.948,4.983,5.0021,4.9448,4.8795,4.8176,4.8329,4.8866,4.9713,5.2401,5.6205,6.1164,6.2747,6.4304,6.5724,6.5927,6.599,6.599,6.6218,6.449,6.1251,5.9578,5.794,5.6207,0.0,0.0,0.0,0.0,0.0,0.0,0.0,0.0,0.0,0.0,0.0,0.0,0.0,0.0,0.0,0.0,0.0,0.0,0.0,0.0,0.0,0.0,0.0,0.0,0.0,0.0,0.0,0.0,0.0,0.0,0.0,0.0,0.0,0.0,0.0,0.0,0.0,5.7247,5.894,6.0627,6.0278,5.9588,0.0,0.0,0.0,0.0,0.0,0.0,6.5853,6.8737,7.0856,7.1937,7.478,7.6742,7.7592,7.9708,8.0896,8.1127,8.1973,8.2824,8.3597,8.3891,8.4381,8.4963,8.4346,8.4027,8.3544,7.8454,7.5642,7.4463,7.3615,7.3441,7.3742,7.4638,7.5357,7.5965,0.0,0.0,0.0,0.0,0.0,0.0,0.0,0.0,0.0,0.0,0.0,4.2684,4.5886,4.784,4.9906,5.2352,5.1885,5.1808,5.254,5.0403,4.9066,4.9028,4.9789,5.0586,5.1461,5.6927,6.1046,6.3711,6.5327,6.6542,6.7386,6.8094,6.8427,6.8465,6.9304,6.7878,6.4726,6.3078,6.1366,5.9543,5.624,0.0,0.0,0.0,0.0,0.0,0.0,0.0,0.0,0.0,0.0,0.0,0.0,0.0,0.0,0.0,0.0,0.0,0.0,0.0,0.0,0.0,0.0,0.0,0.0,0.0,0.0,0.0,0.0,0.0,0.0,0.0,0.0,0.0,0.0,0.0,0.0,0.0,0.0,6.4128,6.4317,0.0,0.0,0.0,0.0,6.6519,6.8321,7.0395,7.2853,7.4665,7.6365,7.8023,7.9827,8.117,8.1981,8.2943,8.3824,8.4666,8.5474,8.6286,8.7171,8.7987,8.8414,8.8457,8.8459,8.8033,8.6855,8.1919,7.9855,7.9721,7.8912,7.9067,7.9879,8.0727,8.1078,8.1236,0.0,0.0,0.0,0.0,0.0,0.0,0.0,0.0,3.9447,4.0886,4.3214,4.5812,4.8637,5.0971,5.3113,5.5065,5.5437,5.5442,5.5213,5.3794,5.2739,5.2209,5.2472,5.3993,5.6993,6.067,6.3779,6.6235,6.7818,6.9033,6.9834,7.0673,7.1038,7.1076,7.1379,7.0882,6.9615,6.6873,6.4432,6.2241,5.9387,5.6456,0.0,0.0,0.0,0.0,0.0,0.0,0.0,0.0,0.0,0.0,0.0,0.0,0.0,0.0,0.0,0.0,0.0,0.0,0.0,0.0,0.0,0.0,0.0,0.0,0.0,0.0,0.0,0.0,0.0,0.0,0.0,0.0,0.0,0.0,0.0,0.0,0.0,6.8398,6.8667,0.0,6.8202,6.8975,7.0206,7.186,7.3591,7.5476,7.7431,7.9131,8.0596,8.1754,8.3439,8.4709,8.5555,8.6444,8.7021,8.7363,8.7637,8.7944,8.8252,8.856,8.8718,8.8718,8.8748,8.8597,8.8222,8.7006,8.5603,8.4209,8.3942,8.4049,8.4363,8.4672,8.5133,8.5597,0.0,0.0,0.0,0.0,0.0,0.0,0.0,0.0,4.1301,4.2987,4.5889,4.8752,5.1314,5.4101,5.6348,5.7738,5.8297,5.8331,5.7766,5.6345,5.5286,5.4756,5.5552,5.7668,6.1288,6.4106,6.6463,6.8306,6.9925,7.1038,7.1569,7.2701,7.3232,7.327,7.3838,7.3914,7.3497,7.1294,6.8597,6.565,6.3065,6.0247,5.7301,0.0,0.0,0.0,0.0,0.0,0.0,0.0,0.0,0.0,0.0,0.0,0.0,0.0,0.0,0.0,0.0,0.0,0.0,0.0,0.0,0.0,0.0,0.0,0.0,0.0,0.0,0.0,0.0,0.0,0.0,0.0,0.0,0.0,0.0,6.7398,6.9866,7.271,7.3056,7.3171,7.3441,7.4249,7.5361,7.6742,7.8442,8.0173,8.1858,8.3247,8.4405,8.5294,8.6405,8.7248,8.7829,8.8406,8.8829,8.9094,8.9094,8.9406,8.9983,8.9983,9.0137,9.0411,9.0411,9.0398,9.0488,9.1027,9.0378,8.8922,8.8366,8.8351,8.8654,8.8386,8.8671,8.9004,0.0,0.0,0.0,0.0,0.0,0.0,0.0,4.0463,4.2758,4.6115,4.879,5.1353,5.3951,5.7157,5.9453,6.0294,6.0363,6.0288,6.0133,5.7835,5.6496,5.6534,5.8889,6.1402,6.3905,6.7174,6.9222,6.9972,7.1645,7.2441,7.2517,7.4174,7.4965,7.5041,7.6714,7.6979,7.6178,7.6216,7.3909,6.9972,6.7314,6.4808,6.2244,0.0,0.0,0.0,0.0,0.0,0.0,0.0,0.0,0.0,0.0,0.0,0.0,0.0,0.0,0.0,0.0,0.0,0.0,0.0,0.0,0.0,0.0,0.0,0.0,0.0,0.0,0.0,0.0,0.0,0.0,0.0,0.0,0.0,6.9853,7.1318,7.363,7.7011,7.7473,7.7781,7.855,7.9469,8.035,8.1239,8.2781,8.4435,8.6081,8.697,8.782,8.8709,8.8744,8.8744,8.8782,8.8782,8.9205,8.9966,9.0004,9.0893,9.2556,9.2556,9.2941,9.3715,9.3715,9.3715,9.3715,9.3715,9.3807,9.3778,9.2119,9.2014,9.2751,9.194,9.1683,9.1519,0.0,0.0,0.0,0.0,0.0,0.0,0.0,4.1872,4.4317,4.7068,5.0168,5.3304,5.6511,5.8769,6.0609,6.1979,6.1496,6.1046,6.0965,5.9154,5.8588,5.9764,6.1719,6.4179,6.7199,6.8851,7.0322,7.172,7.2772,7.3601,7.425,7.5268,7.6102,7.6747,7.7813,7.8154,7.7965,7.8571,7.8197,7.6719,7.1716,6.8603,6.6603,0.0,0.0,0.0,0.0,0.0,0.0,0.0,0.0,0.0,0.0,0.0,0.0,0.0,0.0,0.0,0.0,0.0,0.0,0.0,0.0,0.0,0.0,0.0,0.0,0.0,0.0,0.0,0.0,0.0,0.0,0.0,7.1059,7.3192,7.3256,7.5226,7.747,7.9594,8.0928,8.1734,8.1965,8.3303,8.4493,8.538,8.5883,8.6617,8.7691,8.8003,8.8502,8.9312,8.9351,8.9658,9.0305,9.0881,9.1341,9.1641,9.2289,9.2869,9.3369,9.3369,9.3484,9.3715,9.3715,9.3715,9.3753,9.4373,9.4656,9.4611,9.362,9.34,9.3631,9.3438,9.2987,9.2448,0.0,0.0,0.0,0.0,0.0,0.0,0.0,4.2944,4.558,4.8481,5.1808,5.4906,5.7619,5.9658,6.1211,6.2121,6.1693,6.1455,6.1746,6.1127,6.1326,6.2652,6.4713,6.6842,6.91,7.0697,7.2139,7.3459,7.4245,7.5079,7.5951,7.7131,7.7965,7.8501,7.9676,8.0206,8.0244,8.0737,8.0964,8.0623,7.6833,7.3871,7.1498,6.9138,6.7207,6.5592,6.405,6.2442,6.0828,5.9529,0.0,0.0,0.0,0.0,0.0,0.0,0.0,0.0,0.0,0.0,0.0,0.0,0.0,0.0,0.0,0.0,0.0,0.0,0.0,0.0,0.0,0.0,0.0,0.0,7.5017,7.7517,7.8564,7.9714,8.1065,8.2705,8.4077,8.5031,8.5418,8.6339,8.7105,8.7608,8.7953,8.838,8.8883,8.9267,8.9645,9.0148,9.0148,9.0379,9.0911,9.1682,9.2138,9.2234,9.3107,9.374,9.4151,9.4151,9.44,9.4788,9.4788,9.4788,9.4826,9.5331,9.5523,0.0,0.0,0.0,0.0,0.0,9.4013,9.3335,0.0,0.0,0.0,0.0,0.0,0.0,0.0,4.3716,4.6503,4.9862,5.3184,5.5969,5.7838,6.0032,6.1404,6.1495,6.1387,6.161,6.2345,6.325,6.4235,6.5263,6.7504,6.9252,7.0275,7.2578,7.4164,7.5041,7.5837,7.6747,7.7699,7.9183,8.0017,8.0244,8.1842,8.26,8.2676,8.2789,8.286,8.286,8.1912,7.9556,7.6426,7.4215,7.2426,7.0859,6.9326,6.7672,6.6101,6.523,0.0,0.0,0.0,0.0,0.0,0.0,0.0,0.0,0.0,0.0,0.0,0.0,0.0,0.0,0.0,0.0,0.0,0.0,0.0,0.0,0.0,0.0,0.0,0.0,7.8671,8.2055,8.449,8.4326,8.45,8.5894,8.6809,8.7652,8.8424,8.8654,8.8769,8.8769,8.954,9.0,9.0,0.0,0.0,0.0,0.0,9.114,9.114,9.195,9.2343,9.2391,9.323,9.4166,9.5075,9.5075,9.5632,9.6534,9.6462,9.6428,9.6437,9.6322,9.6283,9.6283,9.6283,9.6343,9.6317,9.5671,9.4855,9.4131,0.0,0.0,0.0,0.0,0.0,0.0,0.0,4.4096,4.6503,4.9862,5.2652,5.5495,5.845,5.984,6.0993,6.2177,6.1697,6.161,6.2345,6.3818,6.5604,6.7807,6.9024,7.0649,7.2843,7.4056,7.5041,7.5875,7.6714,7.7927,7.941,7.9751,8.0623,8.1955,8.2941,8.3769,8.4478,8.5122,8.581,8.6303,8.4787,8.2551,7.9963,7.8326,7.7112,7.6065,7.4556,7.2945,7.1302,6.9731,6.7973,6.6181,6.4649,6.3041,0.0,0.0,0.0,0.0,0.0,0.0,0.0,0.0,0.0,0.0,0.0,0.0,0.0,0.0,0.0,0.0,0.0,0.0,0.0,8.06,8.2626,8.449,8.7032,8.7806,8.8012,8.7673,8.84,8.893,8.9121,9.035,9.1153,9.1153,9.1956,9.2414,9.2414,9.2567,9.2682,9.2682,9.2682,9.2682,9.2682,9.3518,9.3986,9.4048,0.0,0.0,9.6736,9.6736,9.7252,9.812,9.7466,9.7207,9.7211,9.6557,9.6283,9.6283,9.6283,9.6297,9.6329,9.6235,9.5645,9.4883,0.0,0.0,0.0,0.0,0.0,0.0,0.0,4.3861,4.5851,4.9254,5.186,5.4342,5.683,5.8167,5.919,5.9945,6.0737,6.1717,6.2909,6.5339,6.7504,6.9176,7.1256,7.2994,7.4202,7.5496,7.6557,7.7353,7.823,7.9297,8.051,8.1343,8.2215,8.3055,8.43,8.509,8.5577,8.6373,8.6979,8.7326,8.6487,8.539,8.4066,8.1693,8.0301,7.9528,7.8392,7.6883,7.5158,7.3436,7.1727,6.9938,6.7843,6.6333,6.4776,0.0,0.0,0.0,0.0,0.0,0.0,0.0,0.0,0.0,0.0,0.0,0.0,0.0,0.0,7.1332,7.4316,0.0,7.9746,8.3109,8.5096,8.6777,8.8453,8.9403,8.9633,8.8797,8.9791,9.0555,9.0555,9.1701,9.2465,9.2465,9.2847,9.3115,9.3115,9.3115,9.3115,9.3115,9.3115,9.3115,9.3115,9.395,9.4436,9.4462,9.5724,9.6626,9.7115,9.7537,9.8021,9.8542,9.812,9.7958,9.7898,9.7145,9.6592,9.6218,9.6265,9.6283,9.6292,9.6343,9.6087,9.5711,0.0,0.0,0.0,0.0,0.0,0.0,0.0,4.3362,4.5152,4.8396,5.079,5.2924,5.4734,5.6025,5.6971,5.745,5.9702,6.1894,6.3743,6.6821,6.9209,7.0578,7.3378,7.5041,7.5382,7.6865,7.804,7.8836,7.9714,8.0623,8.1609,8.3125,8.3921,8.4148,8.5659,8.6449,8.6638,8.732,8.7705,8.7857,8.7705,8.7669,8.7449,8.4524,8.2965,8.2237,8.1313,7.9715,7.7832,7.6311,7.4522,7.2578,7.062,6.9205,6.7734,6.4925,6.3878,0.0,0.0,0.0,0.0,0.0,0.0,0.0,0.0,6.8398,7.0121,7.2834,7.4622,7.6451,7.8973,8.1265,8.3333,8.5015,8.6986,8.8575,8.941,9.012,9.0257,8.957,9.0834,9.1816,9.1816,9.2733,9.3339,9.3339,9.3497,9.3573,9.3573,9.3573,9.3573,9.3573,9.3573,9.3573,9.3573,9.4294,9.4714,9.4905,9.6248,9.7095,9.7489,9.8184,9.867,9.8931,9.8799,9.8612,9.8349,9.7636,9.6956,9.6376,9.6458,9.6538,9.6514,9.636,9.6283,9.6297,0.0,0.0,0.0,0.0,0.0,0.0,0.0,0.0,4.4946,4.7532,4.9393,5.1364,5.3712,5.4102,5.5088,5.7218,5.967,6.2126,6.4581,6.7162,6.9962,7.3065,7.4283,7.561,7.7093,7.8002,7.8874,7.9751,8.0585,8.176,8.3358,8.4294,8.5122,8.5842,8.6834,8.7662,8.835,8.842,8.888,8.9487,8.8767,8.8541,8.848,8.6687,8.555,8.4798,8.3266,8.1099,7.8795,7.7846,7.5865,7.3734,7.3572,7.1925,6.9802,6.879,6.7439,6.6059,6.5108,6.5413,6.6556,6.8848,6.957,7.0529,0.0,7.4516,7.5586,7.8829,8.0277,8.1724,8.4207,8.554,8.68,8.8486,8.89,8.9294,9.0144,9.0241,9.0212,9.0098,9.1125,9.1816,9.1816,9.3306,9.4256,9.4256,9.4911,9.5336,9.5336,9.5336,9.5336,9.5336,9.5336,9.5336,9.5336,9.5407,9.5866,9.663,9.6821,9.7673,9.9137,9.9213,9.974,10.0503,9.984,9.9111,9.8344,9.7559,9.7237,9.7245,9.7269,9.7328,9.7288,9.6552,9.6283,9.6288,0.0,0.0,0.0,0.0,0.0,0.0,0.0,0.0,0.0,4.5995,4.8066,4.994,5.1439,5.2872,5.454,5.6516,5.898,6.1671,6.4694,6.7693,7.0612,7.3482,7.5382,7.6903,7.8078,7.9367,8.0244,8.0585,8.1912,8.3163,8.437,8.5128,8.5967,8.6904,8.7659,8.8201,8.8615,8.9108,8.9487,8.979,8.9449,8.9376,8.9304,8.7678,8.6296,8.501,8.291,8.1126,0.0,7.7574,7.584,7.4318,7.3445,7.214,7.0717,6.9438,6.8621,6.8165,6.8275,6.9311,7.0839,7.2864,7.4473,7.6078,7.7989,7.9555,8.116,8.3028,8.4093,8.5162,8.6734,8.7633,8.8388,8.9075,8.9517,8.9859,9.0246,9.0245,9.0211,9.0211,9.1025,9.1805,9.2262,9.3444,9.4353,9.4843,9.5192,9.5417,9.5486,9.5492,9.5526,9.5598,9.5604,9.5604,9.5604,9.5604,9.6024,9.6898,9.735,9.8235,9.9425,9.9878,10.0289,10.0685,10.0386,9.9758,9.896,9.8643,9.8319,9.795,9.8045,9.812,9.8125,9.7841,9.775,9.7673,0.0,0.0,0.0,0.0,0.0,0.0,0.0,0.0,0.0,0.0,4.6938,4.8843,4.9849,5.1806,5.3704,5.5375,5.7994,6.0989,6.4315,6.7883,7.0991,7.3482,7.6026,7.7775,7.8571,8.0244,8.123,8.1457,8.3125,8.4391,8.5184,8.6154,8.6975,8.7661,8.8362,8.8734,8.8901,8.9508,8.9753,8.979,8.979,8.9731,8.9441,8.7805,8.6055,8.417,8.2,8.0293,7.8742,7.6414,7.4985,7.4,7.2856,7.1992,7.1152,6.9988,6.9891,7.0467,7.1782,7.3399,7.5199,7.7076,7.914,8.0936,8.1996,8.3677,8.5272,8.6307,8.6984,8.7704,8.8523,8.9092,8.9414,8.9414,8.9815,9.0121,9.0121,9.0131,9.0108,9.0108,9.064,9.1362,9.2199,9.3323,9.4316,9.5147,9.5185,9.5227,9.5354,9.5359,9.54,9.5498,9.5503,9.5503,9.5503,9.5766,9.6318,9.719,9.8059,9.8917,9.9763,10.0298,10.0598,10.0598,10.0598,10.0298,9.9737,9.9549,9.9146,9.8659,9.8825,9.8923,9.8983,9.9336,9.9192,9.8678,0.0,0.0,0.0,0.0,0.0,0.0,0.0,0.0,0.0,0.0,0.0,0.0,0.0,5.0713,5.1957,5.3628,5.6819,6.0117,6.3402,6.7579,7.0991,7.3482,7.6026,7.7775,7.8571,8.0244,8.1495,8.2372,8.4029,8.5216,8.5897,8.7543,8.8262,8.821,8.9002,8.9419,8.9553,8.9591,8.9667,8.979,8.979,8.9335,8.8481,8.6936,8.4784,8.2369,8.0811,7.8585,7.6148,7.4457,7.3249,7.2498,7.2481,7.1945,7.1322,7.1338,7.1974,7.3253,7.5822,7.7798,7.9713,8.2158,8.3453,8.4594,8.6227,8.6686,8.7152,8.8683,8.9005,8.924,9.0011,9.014,9.0178,9.0178,9.0075,9.0026,9.0026,8.9881,8.9802,8.9802,8.984,9.0181,9.1053,9.2879,9.4316,9.5147,9.5185,9.5191,9.5191,9.5191,9.5191,9.5197,9.5197,9.5197,9.5197,9.6166,9.7069,9.7864,9.8871,9.9763,10.0604,10.0598,10.0598,10.0598,10.0598,10.0598,10.0489,9.9731,9.9417,9.9474,9.954,9.968,9.9943,10.0794,10.009,9.8678,0.0,0.0,0.0,0.0,0.0,0.0,0.0,0.0,0.0,0.0,0.0,0.0,0.0,0.0,0.0,0.0,5.6251,5.9217,6.2448,6.6077,6.9454,7.2484,7.4454,7.6117,7.751,7.9173,8.0193,8.0464,8.2688,8.4175,8.5007,8.6562,8.7599,8.821,8.8948,8.932,8.9451,8.9547,8.9308,8.8866,8.8958,8.8192,8.6758,8.5142,8.2618,7.9621,0.0,7.5789,7.4371,7.259,7.1062,6.9977,7.0583,7.0256,6.9988,7.1752,7.3667,7.5751,7.8337,8.0252,8.233,8.5462,8.6412,8.7023,8.8786,8.9125,8.9054,8.9059,8.9016,8.8923,8.8585,8.8474,8.8602,8.9178,8.9143,8.925,8.9781,8.9814,8.979,8.979,8.979,9.0131,9.1009,9.2189,9.3225,9.406,9.463,9.4971,9.5058,9.5064,9.5367,9.6061,9.6061,9.6327,9.686,9.7169,9.7802,9.864,9.9612,10.0207,10.0512,10.0601,10.0598,10.0598,10.0598,10.0598,10.0604,10.0298,9.9901,9.945,9.9578,9.9272,9.8969,9.9964,9.9618,9.8658,0.0,0.0,0.0,0.0,0.0,0.0,0.0,0.0,0.0,0.0,0.0,0.0,0.0,0.0,0.0,0.0,0.0,5.7875,6.1114,6.4475,6.75,7.0196,7.246,7.4164,7.5215,7.7172,7.8304,7.8606,8.1134,8.2771,8.3583,8.541,8.6596,8.72,8.7904,8.8314,8.8415,8.8286,8.7953,8.748,8.7008,8.6,8.456,8.2556,8.0087,0.0,7.4895,7.3309,7.2225,7.1057,6.9745,6.8754,6.9631,6.9981,7.0583,7.3222,7.5755,7.8232,8.0817,8.3186,8.5447,8.7743,8.8695,8.9194,8.9778,8.981,8.9438,8.8295,8.8056,8.7779,8.6859,8.6856,8.7178,8.7753,8.8252,8.8761,8.9297,8.9638,8.979,8.979,8.979,9.0131,9.1009,9.1843,9.2677,9.3511,9.4345,9.4952,9.5376,9.5376,9.5832,9.6755,9.6793,9.7021,9.7547,9.7908,9.8529,9.9454,9.9992,10.0403,10.0407,10.0492,10.0595,10.0598,10.0598,10.0598,10.0604,10.0298,9.9878,9.9393,9.9166,9.8763,9.8391,9.9083,9.8836,9.8225,0.0,0.0,0.0,0.0,0.0,0.0,0.0,0.0,0.0,0.0,0.0,0.0,0.0,0.0,0.0,0.0,0.0,0.0,5.9404,6.2698,6.5228,6.6832,7.004,7.1813,7.1894,7.4228,7.5851,7.6687,7.9216,8.0799,8.152,8.401,8.5137,8.508,8.5875,8.6331,8.6401,8.5776,8.5568,8.5513,8.4021,8.2903,8.188,7.9367,7.7358,7.5615,7.3194,7.1266,6.9896,6.9896,6.9403,6.8949,6.982,7.1266,7.3181,7.5784,7.8278,8.0768,8.3415,8.6486,8.8991,8.9155,9.0302,9.0993,8.9368,8.8905,8.8263,8.6391,8.5988,8.5688,8.4766,8.5274,8.588,8.6032,8.7434,8.8571,8.8729,8.9411,8.9866,8.9904,8.9942,9.0245,9.1079,9.1875,9.2715,9.3549,9.4345,9.5172,9.6031,9.6113,9.6486,9.7326,9.7357,9.7402,9.744,9.8374,9.9308,10.0203,10.0209,10.0316,10.0383,10.0395,10.0512,10.0592,10.0598,10.0604,10.0489,9.9725,9.9349,9.9196,9.8344,9.8106,9.8178,9.8222,9.7863,9.7452,0.0,0.0,0.0,0.0,0.0,0.0,0.0,0.0,0.0,0.0,0.0,0.0,0.0,0.0,0.0,0.0,0.0,0.0,5.6785,5.9981,6.2466,6.396,6.6066,6.7758,6.9037,7.0234,7.1287,7.2163,7.4645,7.6276,7.7105,7.9579,8.1069,8.1676,8.2502,8.2853,8.2904,8.2949,8.2606,8.1974,8.1179,7.9979,7.8457,7.6562,7.4819,7.3199,7.191,7.0773,6.9896,6.9896,7.0578,7.1569,7.2388,7.425,7.6611,7.9139,8.1198,8.3365,8.6536,8.8477,8.9905,9.1253,9.0908,8.9993,8.9067,8.7338,8.529,8.291,8.1956,8.1268,8.0358,8.1376,8.3006,8.4895,8.66,8.835,9.0207,9.0624,9.1003,9.1571,9.1647,9.1761,9.195,9.2753,9.3359,9.3587,9.4345,9.5172,9.6031,9.6113,9.6757,9.8236,9.8273,9.8577,9.9145,9.9413,9.9681,9.9904,10.0016,10.0088,10.0082,10.0315,10.0381,10.05,10.0595,10.0298,9.9693,9.9463,9.8661,9.7509,9.728,9.6838,9.6385,9.7085,9.6843,9.6347,0.0,0.0,0.0,0.0,0.0,0.0,0.0,0.0,0.0,0.0,0.0,0.0,0.0,0.0,0.0,0.0,0.0,0.0,0.0,5.7699,5.9662,6.0787,6.2472,6.3941,6.5266,6.6081,6.7095,6.8302,7.0437,7.1901,7.2727,7.5211,7.6826,7.7695,7.8522,7.9079,7.9391,7.926,7.892,0.0,0.0,7.6558,7.5534,7.3866,7.2663,7.172,7.0887,7.0995,7.1635,7.2355,7.327,7.4293,7.5875,7.7586,7.9594,8.2437,8.4484,8.6385,8.8994,9.0283,9.0946,9.1247,9.03,8.8785,8.6933,8.4806,8.2399,7.9481,7.8533,7.7965,7.7131,7.8647,8.0845,8.3385,8.5507,8.7699,9.0169,9.0857,9.1388,9.2216,9.2292,9.2449,9.2829,9.3625,9.4307,9.4679,9.5134,9.5741,9.6568,9.6985,9.7781,9.9076,9.8766,9.8615,9.869,9.869,9.869,9.869,9.8777,9.8849,9.8914,9.9068,9.9198,9.9307,0.0,9.9176,9.8808,9.8464,9.7738,9.6859,9.6477,9.6019,9.5648,9.6172,9.615,9.5875,0.0,0.0,0.0,0.0,0.0,0.0,0.0,0.0,0.0,0.0,4.6509,0.0,0.0,0.0,0.0,0.0,0.0,0.0,0.0,0.0,5.6984,5.7746,5.9286,6.0492,6.1285,6.2069,6.3153,6.4692,6.6349,6.7583,6.8436,7.0925,7.2545,7.3403,7.4235,7.4948,7.5587,7.5018,7.4835,7.4838,7.3401,7.2942,7.2952,0.0,7.0844,7.0887,7.0394,7.1749,7.4051,7.5951,7.6671,7.7201,7.9632,8.1002,8.2399,8.5653,8.7624,8.9146,9.0813,9.1761,9.1913,9.0245,8.9032,8.7402,8.4035,8.1722,7.9329,7.5951,7.5193,7.4889,7.4207,7.6178,7.8836,8.1614,8.4256,8.6866,8.9601,9.0687,9.1584,9.2494,9.2664,9.3037,9.3794,9.459,9.5392,9.6163,9.6332,9.6673,9.7433,9.8084,9.8766,9.9455,9.8804,9.8046,9.7326,9.7288,9.7288,9.7288,9.7288,9.7354,9.7477,9.7496,9.7635,9.7849,9.7879,9.7917,9.7862,9.7192,9.6821,9.663,9.591,9.5604,9.5604,9.5604,9.5664,9.5767,0.0,0.0,0.0,0.0,0.0,0.0,0.0,0.0,0.0,0.0,4.7229,4.7687,0.0,0.0,0.0,0.0,0.0,0.0,0.0,0.0,0.0,5.601,5.6995,5.7938,5.8718,5.8905,5.9436,6.0379,6.2036,6.3308,6.4204,6.6693,6.8307,6.9128,6.9911,7.0356,7.0474,7.0498,7.0545,7.0616,6.9735,6.9843,7.0422,6.9437,0.0,0.0,7.1531,7.3118,7.5155,7.8192,7.9676,8.0547,8.2367,8.3997,8.5767,8.8388,8.9373,8.998,9.1647,9.2184,9.1919,9.0283,8.8198,8.5653,8.2291,7.8647,7.5003,7.1678,7.0384,6.9854,6.9702,7.2312,7.5761,7.9676,8.3006,8.6449,9.0321,9.1477,9.2504,9.4011,9.4698,9.5084,9.5235,9.6028,9.6643,9.6917,9.745,9.7945,9.8336,9.7819,9.7591,9.7743,9.7591,9.7433,9.7288,9.7288,9.7288,9.7288,9.7288,9.7295,9.7328,9.7451,9.7528,9.7585,9.7807,0.0,9.6951,9.6896,9.6477,9.5795,9.5642,9.5604,9.5604,9.5604,9.5615,9.5648,0.0,0.0,0.0,0.0,0.0,0.0,0.0,4.6661,4.7804,4.8597,4.9053,4.9102,4.8689,4.9336,4.9771,0.0,0.0,0.0,0.0,0.0,0.0,0.0,5.4067,5.4672,5.554,5.5944,5.6582,5.7366,0.0,6.0717,6.1168,6.3238,6.4665,6.5486,6.5856,6.6489,6.7283,6.7346,6.7707,6.8158,6.7881,6.8058,6.8457,0.0,0.0,0.0,7.1114,7.281,7.4586,7.7093,7.9334,8.1609,8.4641,8.6114,8.7245,8.9752,9.0472,9.0738,9.195,9.1685,9.0668,8.8994,8.6379,8.3195,7.9367,7.5615,7.1976,6.8603,6.7276,6.6783,6.7234,7.0043,7.3662,7.7809,8.1319,8.4929,8.903,9.063,9.1982,9.3682,9.4905,9.5618,9.5618,9.6781,9.7557,9.7635,9.8333,9.8503,9.7856,9.734,9.6883,9.643,9.6877,9.6911,9.6575,9.6992,9.7215,9.7281,9.6871,9.6682,9.6644,9.6267,9.611,9.6218,9.6348,9.6211,9.594,9.6062,9.5879,9.5509,9.5576,9.5604,9.5604,9.5604,9.5604,9.5621,0.0,0.0,0.0,0.0,0.0,0.0,0.0,4.7877,4.9238,5.0014,5.0791,5.0772,4.9485,4.975,4.9971,0.0,0.0,0.0,0.0,0.0,0.0,0.0,0.0,0.0,5.2919,0.0,0.0,5.5076,5.7563,0.0,0.0,0.0,0.0,0.0,6.274,6.3533,6.473,6.4917,6.5402,0.0,0.0,6.6729,6.6981,0.0,0.0,0.0,0.0,7.1787,7.3336,7.5193,7.7813,8.0964,8.4635,8.6417,8.763,9.0093,9.0813,9.1003,9.1799,9.0971,8.9411,8.7586,8.4484,8.0813,7.6747,7.2962,6.9403,6.621,6.4904,6.4592,6.5388,6.8106,7.1584,7.5685,7.919,8.2859,8.7072,8.9064,9.0855,9.2898,9.4372,9.5407,9.5739,9.7134,9.809,9.8308,9.8624,9.8312,9.7138,9.6776,9.6305,9.5618,9.6253,9.6453,9.6124,9.6763,9.7134,9.7242,9.6668,9.6378,9.6334,9.5475,9.5154,9.5218,9.5059,9.5058,9.5161,9.5348,9.5406,9.5417,9.5554,9.5604,9.5604,9.5604,9.5604,9.5615,0.0,0.0,0.0,0.0,0.0,0.0,0.0,4.8711,5.0052,5.0808,5.1667,5.2058,5.1702,5.1091,5.0715,0.0,0.0,0.0,0.0,0.0,0.0,0.0,0.0,0.0,0.0,0.0,0.0,5.3407,5.5915,0.0,0.0,0.0,0.0,0.0,0.0,6.1999,6.2186,6.297,0.0,0.0,0.0,0.0,0.0,0.0,0.0,0.0,0.0,7.0578,7.1716,7.4169,7.6216,7.8078,7.9979,8.3195,8.6714,8.9184,8.9904,9.0093,9.0971,9.051,8.9222,8.6828,8.3157,7.9221,7.5799,7.1256,6.7011,6.4387,6.3151,6.2796,6.359,6.579,6.8829,7.2999,7.6472,8.0359,8.5254,8.7283,8.9419,9.2537,9.3666,9.4713,9.6194,9.7178,9.8072,9.893,9.774,9.694,9.6939,9.6147,9.5694,9.5618,9.5694,9.6071,9.6795,9.701,9.7124,9.71,9.7152,9.7174,9.7168,9.6341,9.6006,9.595,9.5281,9.5002,0.0,9.5274,9.5406,9.5417,9.5554,9.5604,9.5604,9.5604,9.5604,9.5604,0.0,0.0,0.0,0.0,0.0,0.0,4.7229,4.9273,5.095,5.1671,5.2946,5.3666,5.3535,5.2274,5.1265,5.0784,0.0,0.0,0.0,0.0,0.0,0.0,0.0,0.0,0.0,0.0,5.2423,5.2423,5.5427,0.0,0.0,0.0,0.0,0.0,0.0,6.0604,6.1088,6.1463,0.0,0.0,0.0,0.0,0.0,0.0,0.0,0.0,0.0,0.0,6.9745,7.0763,7.2203,7.3914,7.5572,7.7959,8.0953,8.5539,8.7207,8.7775,8.8653,8.8236,8.6979,8.4484,8.1495,7.7851,7.3004,6.9171,6.5742,6.265,6.1363,6.1173,6.2447,6.4256,6.6921,7.0997,7.449,7.8197,8.2605,8.5475,8.8142,9.0954,9.2903,9.4631,9.6224,9.7177,9.7846,9.8245,9.7193,9.632,9.5898,9.5077,9.4859,9.5341,9.5823,9.6544,9.7474,9.8022,9.8409,9.8585,9.8162,9.8003,9.8046,9.7212,9.6833,9.6795,9.5982,9.5667,0.0,9.5383,9.5301,9.5318,9.5526,9.5604,9.5604,9.5604,9.5604,9.5604,0.0,0.0,0.0,0.0,0.0,4.6471,4.7267,4.9349,5.1054,5.1789,5.3093,5.3883,5.3766,5.2418,5.133,5.0737,4.994,0.0,0.0,0.0,0.0,0.0,0.0,0.0,0.0,0.0,5.2152,5.264,5.5498,5.7004,0.0,0.0,5.929,5.929,0.0,0.0,0.0,0.0,0.0,0.0,0.0,0.0,0.0,0.0,0.0,0.0,0.0,0.0,0.0,0.0,0.0,7.0199,7.1403,7.326,7.6145,8.2052,8.4364,8.5236,8.6373,8.6032,8.4787,8.2291,7.9562,7.6107,7.073,6.7334,6.4523,6.1614,6.0306,6.0137,6.1433,6.3022,6.531,6.8885,7.248,7.6207,8.0293,8.3465,8.6507,8.9473,9.162,9.3723,9.5856,9.7245,9.7966,9.7703,9.6907,9.6043,9.5225,9.4444,9.4369,9.5187,9.5968,9.6847,9.7847,9.8674,9.9244,9.9542,9.9025,9.8819,9.8924,9.8084,9.7667,9.7629,9.6789,9.6303,0.0,9.5722,9.5414,9.5209,9.5503,9.5604,9.5604,9.5604,9.5604,9.5604,0.0,0.0,0.0,0.0,0.0,0.0,4.7267,4.8825,5.0131,5.0835,5.1684,5.2155,5.1947,5.1184,5.0703,5.0703,4.994,0.0,0.0,0.0,0.0,0.0,0.0,0.0,0.0,0.0,5.2715,5.4371,5.6061,5.73,5.8117,5.8915,5.929,5.929,0.0,0.0,0.0,0.0,0.0,0.0,0.0,0.0,0.0,0.0,0.0,0.0,0.0,0.0,0.0,0.0,0.0,0.0,0.0,6.9745,7.3578,7.9448,8.176,8.2784,8.4478,8.4294,8.3017,8.0547,7.7396,7.3828,6.9588,6.5995,6.3047,6.1337,6.021,5.9737,6.0552,6.2019,6.3914,6.644,7.026,7.4385,7.8547,8.1281,8.4366,8.8503,8.9743,9.1538,9.4887,9.7433,9.8559,9.7741,9.6907,9.6043,9.5225,9.4444,9.4369,9.5187,9.5968,9.6832,9.7673,9.8614,9.9193,9.9399,9.9535,9.9645,9.9752,9.8956,9.8577,9.8539,9.7667,9.6833,0.0,9.6369,9.5984,9.5209,9.5503,9.5604,9.5604,9.5604,9.5604,9.5604,0.0,0.0,0.0,0.0,0.0,0.0,0.0,4.7991,4.9336,4.9998,5.1303,5.2117,5.1909,5.1184,5.0703,5.0703,4.994,0.0,0.0,0.0,0.0,0.0,0.0,0.0,0.0,0.0,5.2715,5.4409,5.662,5.8122,5.8948,5.9774,6.0187,6.0149,5.9553,5.929,0.0,0.0,0.0,0.0,0.0,0.0,6.2698,0.0,0.0,0.0,0.0,0.0,0.0,0.0,0.0,0.0,0.0,0.0,0.0,7.1678,7.562,7.9107,7.9632,7.9973,7.9443,7.6368,7.3947,7.1203,6.6975,6.4285,6.218,6.0344,5.9703,5.9715,6.0506,6.1487,6.3238,6.629,6.9766,7.3516,7.7695,8.1407,8.5011,8.8585,9.2214,9.4834,9.5931,9.777,9.8559,9.7741,9.6907,9.6043,9.5225,9.4444,9.4369,9.5187,9.545,9.6276,9.7703,9.7982,9.8501,9.9185,9.9384,9.9535,9.9638,9.9483,9.941,9.9379,9.8539,9.7705,9.6884,9.6502,9.5911,9.5203,9.5406,9.5526,9.5604,9.5604,9.5604,9.5604,0.0,0.0,0.0,0.0,0.0,0.0,0.0,4.7058,4.7984,4.8684,4.9629,5.032,5.0482,5.0057,4.9873,5.0207,4.979,0.0,0.0,0.0,0.0,0.0,0.0,0.0,0.0,5.1972,5.3362,5.5352,5.7483,5.8985,5.9811,6.068,6.09,6.0562,6.0036,5.9591,0.0,0.0,0.0,0.0,0.0,0.0,6.1727,0.0,0.0,0.0,0.0,0.0,0.0,0.0,0.0,0.0,0.0,0.0,0.0,0.0,6.9773,7.3492,7.5084,7.5885,7.5534,7.2424,7.0639,6.8537,6.4282,6.2253,6.0832,5.9313,5.8995,5.9209,5.9971,6.1055,6.2675,6.5421,6.9128,7.3027,7.6863,8.0994,8.5049,8.8992,9.3302,9.6081,9.6374,9.7921,9.8559,9.7741,9.7215,9.6381,9.5262,9.4706,9.4556,9.4744,9.5037,9.5713,9.6764,9.7065,9.7704,9.8666,9.8821,9.9162,9.9606,9.9721,9.9789,9.9752,9.8956,9.8122,0.0,9.6572,9.5874,9.5197,9.5359,9.5486,9.5604,9.5604,9.5604,9.5604,0.0,0.0,0.0,0.0,0.0,0.0,0.0,4.6111,4.6345,4.7034,4.7116,4.7373,4.804,4.8183,4.8517,4.934,0.0,0.0,0.0,0.0,0.0,0.0,0.0,0.0,5.1851,5.2765,5.4422,5.6891,5.8577,5.9853,6.0712,6.1506,6.1468,6.0675,6.0637,6.0112,0.0,0.0,0.0,0.0,0.0,0.0,0.0,0.0,0.0,0.0,0.0,0.0,0.0,0.0,0.0,0.0,0.0,0.0,0.0,0.0,0.0,0.0,0.0,7.1749,7.1312,6.8764,6.7487,6.579,6.1731,6.0082,0.0,5.8345,5.8147,5.8342,5.9215,6.0759,6.2449,6.4182,6.8602,7.2947,7.6219,8.0455,8.4998,8.9736,9.3183,9.5503,9.6321,9.786,9.8506,9.78,9.7741,9.699,9.5375,9.5225,9.4812,9.4038,9.4706,9.515,9.5187,9.5931,9.6795,9.7786,9.794,9.8499,9.9403,9.9556,9.9593,9.9562,9.8842,9.8008,9.7181,9.6521,9.5856,9.5185,9.5348,9.5475,9.5587,9.5598,9.5604,9.5604,0.0,0.0,0.0,0.0,0.0,0.0,0.0,0.0,0.0,0.0,4.6773,4.7147,4.7282,4.7838,4.8292,0.0,0.0,0.0,0.0,0.0,0.0,0.0,0.0,0.0,5.1851,5.2765,5.4422,5.6891,5.9173,6.0712,6.1543,6.2407,6.2332,6.1473,6.0862,6.0112,0.0,0.0,0.0,0.0,0.0,0.0,0.0,0.0,0.0,0.0,5.9891,5.9874,0.0,0.0,0.0,0.0,0.0,0.0,0.0,0.0,6.1923,6.3268,6.357,0.0,6.7061,6.5141,6.3985,6.2695,0.0,5.9157,5.8444,5.8171,5.8098,5.8568,6.0036,6.1651,6.3538,6.5839,6.9809,7.3784,7.7132,8.3322,8.8466,9.0914,9.3432,9.5306,9.6161,9.7143,9.7938,9.838,9.7972,9.7252,9.6148,9.5518,9.4812,9.4038,9.4188,9.4594,9.5187,9.5375,9.5916,9.6742,9.6943,9.7216,9.7548,9.7671,9.7794,9.7894,9.7705,9.7136,9.6378,9.6222,9.5718,9.5058,9.5179,9.5348,9.5469,9.5565,9.5604,9.5604,0.0,0.0,0.0,0.0,0.0,0.0,0.0,0.0,0.0,0.0,0.0,4.6048,4.6373,4.6786,0.0,0.0,0.0,0.0,0.0,0.0,0.0,0.0,0.0,5.0237,5.1851,5.3136,5.4976,5.745,5.9929,6.1581,6.2407,6.3275,6.2975,6.1736,6.0149,5.9206,0.0,0.0,0.0,0.0,5.832,0.0,0.0,0.0,0.0,0.0,5.8881,5.9173,0.0,5.9763,5.9893,5.9856,0.0,0.0,0.0,0.0,5.9278,5.9882,5.9844,6.1965,6.3887,6.2557,6.1824,6.1006,5.9278,5.8504,5.8147,5.8126,5.838,5.9173,6.083,6.282,6.4998,6.7513,7.1349,7.5737,8.0618,8.6063,9.0043,9.1327,9.3515,9.5095,9.5545,9.6269,9.6895,9.7344,9.7127,9.6612,9.5742,9.5405,9.4812,9.4038,9.4,9.4226,9.4669,9.4669,9.5037,9.5856,9.6026,9.6374,9.6887,9.7048,9.7154,9.7288,9.6909,9.6492,9.6075,9.5658,9.5294,9.5002,9.5076,9.5179,9.533,9.5406,9.5435,9.544,0.0,0.0,0.0,0.0,0.0,0.0,0.0,0.0,0.0,0.0,0.0,0.0,0.0,0.0,0.0,0.0,0.0,0.0,0.0,0.0,0.0,0.0,4.9678,5.0391,5.1889,5.3654,5.5756,5.8117,6.0567,6.2261,6.312,6.3914,6.3393,6.1698,5.921,5.8117,0.0,0.0,0.0,0.0,5.6891,0.0,0.0,0.0,0.0,0.0,0.0,0.0,0.0,5.9422,5.9608,5.9418,5.8834,0.0,0.0,0.0,0.0,0.0,5.7985,5.9895,6.1528,6.0852,6.0674,6.0261,5.8666,5.8192,5.8117,5.8267,5.891,6.0079,6.1999,6.4397,6.6902,6.953,7.3666,7.859,8.4472,8.8114,9.0517,9.1329,9.3365,9.4712,9.4801,9.5342,9.5748,9.586,9.6048,9.5784,9.4945,9.5075,9.4789,9.4038,9.4,9.4,9.4,9.4,9.4331,9.5007,9.5147,9.5637,9.651,9.665,9.6755,9.6871,0.0,0.0,9.5848,9.5103,9.487,9.4971,9.499,9.5064,9.5161,9.5179,9.5185,9.5241,0.0,0.0,0.0,0.0,0.0,0.0,0.0,0.0,0.0,0.0,0.0,0.0,0.0,0.0,0.0,0.0,0.0,0.0,0.0,0.0,0.0,5.0474,5.0512,5.0958,5.1889,5.4213,5.6311,5.8117,6.0567,6.2261,6.312,6.3914,6.3393,6.1698,5.921,5.8117,5.8042,0.0,0.0,0.0,5.6891,0.0,0.0,0.0,0.0,0.0,0.0,0.0,0.0,5.844,5.8265,5.7798,5.8295,0.0,0.0,0.0,0.0,0.0,5.7166,5.846,5.9881,6.0538,6.0642,6.0356,5.9365,5.8572,5.8305,5.899,5.9811,6.1313,6.4354,6.6945,6.968,7.2909,7.8053,8.252,8.4961,8.8114,9.0474,9.1146,9.2705,9.3926,9.4417,9.4579,9.4944,9.569,9.5844,9.5621,9.4938,9.4939,9.4677,9.4031,9.4,9.4,9.4,9.4,9.4075,9.4188,9.421,9.4407,9.4781,9.4802,9.4966,9.5179,0.0,9.4989,9.4989,9.4875,9.4812,9.4844,9.4952,9.5008,9.5039,9.5149,9.5185,9.5191,0.0,0.0,0.0,0.0,0.0,0.0,0.0,0.0,0.0,0.0,0.0,0.0,0.0,0.0,0.0,0.0,0.0,0.0,0.0,0.0,4.9865,5.0662,5.1567,5.2427,5.3245,5.5268,5.7333,5.9431,6.1923,6.3355,6.3726,6.32,6.2299,6.1055,5.8577,5.7183,5.669,5.5906,0.0,0.0,0.0,0.0,0.0,0.0,0.0,0.0,0.0,0.0,0.0,0.0,5.749,5.7183,5.7067,0.0,0.0,0.0,0.0,0.0,5.6708,5.8087,5.9713,6.1553,6.1609,6.128,6.1355,6.1055,6.1013,6.1848,6.305,6.466,6.7052,6.9906,7.3435,7.809,8.1844,8.4735,8.6431,8.9027,9.0868,9.1177,9.2478,9.344,9.3732,9.3689,9.3826,9.4206,9.4353,9.4295,9.4,9.4086,9.406,9.3852,9.386,9.3904,9.4,9.4,9.4,9.4,9.4,9.416,9.4404,9.4404,9.4567,9.48,0.0,9.48,9.48,9.48,9.48,9.4806,9.487,9.4895,9.4902,9.4958,9.5027,9.5088,0.0,0.0,0.0,0.0,0.0,0.0,0.0,0.0,0.0,0.0,0.0,0.0,0.0,0.0,0.0,0.0,0.0,0.0,0.0,4.949,4.994,5.0925,5.2393,5.3591,5.4371,5.6399,5.8502,6.06,6.29,6.4026,6.3994,6.2487,6.1243,6.0187,5.7901,5.6432,5.556,5.4742,5.4296,0.0,0.0,0.0,0.0,0.0,0.0,0.0,0.0,0.0,0.0,0.0,0.0,0.0,0.0,0.0,0.0,5.4718,5.4509,5.4865,5.6467,5.8056,5.9929,6.2439,6.275,6.2675,6.3726,6.3796,6.3946,6.4965,6.651,6.8157,6.9755,7.329,7.7495,8.2339,8.466,8.6305,8.7554,8.9737,9.1178,9.1104,9.2362,9.312,9.2857,9.2772,9.2625,9.2431,9.2664,9.279,9.2652,9.2957,9.3106,9.308,9.308,9.3208,9.3341,9.3565,9.3813,9.4,9.4,9.416,9.4404,9.4404,9.4567,9.48,9.48,9.48,9.48,9.48,9.48,9.48,9.48,9.48,9.4768,9.4572,9.456,9.4648,0.0,0.0,0.0,0.0,0.0,0.0,0.0,0.0,0.0,0.0,0.0,0.0,0.0,0.0,0.0,0.0,0.0,0.0,0.0,4.949,5.0199,5.1739,5.269,5.3591,5.4371,5.7525,5.9628,6.06,6.2332,6.3195,6.3158,6.2224,6.0947,5.9328,5.7643,5.6432,5.556,5.4742,5.3962,5.3295,0.0,0.0,0.0,0.0,0.0,0.0,0.0,0.0,0.0,0.0,0.0,0.0,0.0,0.0,5.4593,5.4509,5.4509,5.4865,5.6467,5.8056,5.9929,6.2439,6.3613,6.4557,6.6177,6.5904,6.5781,6.7401,6.9058,7.0748,7.2357,7.7239,8.1707,8.3697,8.6025,8.7592,8.7534,8.9641,9.1096,9.0867,9.2221,9.2849,9.1906,9.1807,9.1465,9.0722,9.1361,9.1553,9.1013,9.1699,9.1822,9.12,9.1313,9.1395,9.1409,9.2336,9.3197,9.4,9.4,9.416,9.4404,9.4404,9.4567,9.48,9.48,9.48,9.48,9.48,9.48,9.48,9.48,9.48,9.4724,9.3966,9.3707,9.3599,0.0,0.0,0.0,0.0,0.0,0.0,0.0,0.0,0.0,0.0,0.0,0.0,0.0,0.0,0.0,0.0,0.0,0.0,0.0,4.949,5.0237,5.1814,5.3207,5.4563,5.5911,5.8689,6.0787,6.2139,6.2782,6.3345,6.3801,6.1398,5.9628,5.8497,5.6845,5.5639,5.4818,5.4521,5.4221,5.3892,5.3407,0.0,0.0,0.0,0.0,0.0,0.0,0.0,0.0,0.0,5.4723,5.451,5.4861,5.481,5.4625,5.4526,5.4923,5.5572,5.6631,5.8464,6.0712,6.3238,6.5228,6.7031,6.872,6.9241,6.9836,7.1526,7.277,7.4353,7.7057,8.0624,8.3697,8.5312,8.6851,8.7923,8.8263,8.9465,9.0259,9.0,9.0889,9.1351,9.099,9.0945,9.0833,9.0536,9.0796,9.0865,9.0632,9.09,9.1009,9.0882,9.1013,9.1104,9.1207,9.1698,9.2115,9.2461,9.3512,9.411,9.4272,9.4272,9.4383,9.4574,9.4623,9.4663,9.4669,9.4767,9.48,9.4762,9.4231,9.3738,9.3208,9.2904,9.2791,9.2765,0.0,0.0,0.0,0.0,0.0,0.0,0.0,0.0,0.0,0.0,0.0,0.0,0.0,0.0,0.0,0.0,0.0,0.0,4.9039,4.9077,4.9828,5.1442,5.3136,5.4901,5.6854,5.9065,6.1017,6.267,6.297,6.312,6.3088,6.0492,5.8727,5.7667,5.6235,5.5151,5.4409,5.4409,5.4259,5.3962,5.3407,5.2882,0.0,0.0,0.0,0.0,0.0,0.0,0.0,0.0,5.362,5.367,5.4029,5.4174,5.4289,5.4455,5.5149,5.6066,5.7002,5.9102,6.1656,6.4407,6.7143,6.9723,7.1944,7.2658,7.3328,7.5023,7.6231,7.7846,8.0624,8.2984,8.4936,8.6288,8.7411,8.8265,8.8633,8.9295,8.963,8.9468,9.005,9.0387,9.0164,9.0127,9.0016,8.9764,8.9979,9.0016,8.9764,8.9979,9.0095,9.0007,9.0131,9.0296,9.0451,9.0873,9.1094,9.1101,9.2528,9.3404,9.3803,9.4074,9.4265,9.4411,9.4554,9.4614,9.4628,9.4741,9.4648,9.4345,9.3511,9.2829,9.226,9.1988,9.1913,9.19,0.0,0.0,0.0,0.0,0.0,0.0,0.0,0.0,0.0,0.0,0.0,0.0,0.0,0.0,0.0,0.0,0.0,0.0,4.8146,4.8179,4.8934,5.0624,5.2318,5.4346,5.6816,5.8464,6.0116,6.1773,6.2632,6.2214,6.0562,5.9666,5.8427,5.6854,5.5977,5.5151,5.4409,5.4409,5.3925,5.3224,5.3182,5.2206,0.0,0.0,0.0,0.0,0.0,0.0,0.0,0.0,5.1889,5.2051,5.3005,5.3297,5.3447,5.4283,5.5141,5.6174,5.7689,5.9924,6.2637,6.5989,6.9278,7.2571,7.5875,7.6,7.5893,7.7583,7.9279,8.0925,8.252,8.4172,8.5568,8.6401,8.7815,8.8745,8.854,8.9063,8.9431,8.9296,8.9979,9.0164,8.9355,8.9273,8.8946,8.8166,8.8835,8.8946,8.8129,8.8872,8.8988,8.8338,8.8444,8.8599,8.8803,8.974,9.0186,9.0186,9.1064,9.1969,9.293,9.3803,9.4265,9.4404,9.4547,9.4608,9.4621,9.4741,9.4307,9.3473,9.2639,9.2292,9.2178,9.1388,9.1079,9.099,0.0,0.0,0.0,0.0,0.0,0.0,0.0,0.0,0.0,0.0,0.0,0.0,0.0,0.0,0.0,0.0,0.0,0.0,4.7346,4.7879,4.8705,4.9794,5.2018,5.3821,5.5122,5.7333,5.9286,6.0975,6.0604,5.9886,5.883,5.8014,5.7342,5.6854,5.5977,5.5485,5.5226,5.463,5.4263,5.4,5.3445,5.254,5.1518,0.0,0.0,0.0,0.0,0.0,0.0,0.0,0.0,0.0,5.3005,5.3297,5.3598,5.499,5.6416,5.782,5.9421,6.2064,6.5068,6.7809,7.1,7.4154,7.6901,7.7764,7.8628,8.0875,8.2233,8.3322,8.4366,8.5937,8.7073,8.7202,8.8082,8.8716,8.8406,8.8517,8.8612,8.8487,8.8686,8.8723,8.85,8.8463,8.8352,8.8129,8.8315,8.8352,8.8092,8.8424,8.8516,8.8301,8.8562,8.8753,8.8803,8.9177,8.9367,8.9367,9.0193,9.1341,9.2774,9.3037,9.3479,9.4146,9.4362,9.4466,9.4448,9.4096,9.3132,9.1805,9.1578,9.1079,9.051,9.0283,9.0207,9.0162,0.0,0.0,0.0,0.0,0.0,0.0,0.0,0.0,0.0,0.0,0.0,0.0,0.0,0.0,0.0,0.0,0.0,0.0,0.0,4.7274,4.8101,4.8964,5.1335,5.3328,5.4713,5.6286,5.7392,5.8104,5.8591,5.8572,5.808,5.7263,5.7075,5.7333,5.6123,5.5597,5.556,5.4742,5.4409,5.4371,5.3854,5.2949,5.1851,0.0,0.0,0.0,0.0,0.0,0.0,0.0,0.0,0.0,5.1995,5.2496,5.3056,5.4752,5.6624,5.8674,6.0989,6.3979,6.7245,7.0394,7.344,7.6488,7.9648,8.0731,8.1594,8.3421,8.4433,8.5105,8.563,8.6745,8.7544,8.7459,8.8067,8.8518,8.8331,8.795,8.768,8.7579,8.7572,8.7572,8.7572,8.7906,8.8092,8.8092,8.8092,8.8092,8.8092,8.8217,8.8331,8.8391,8.8635,8.8832,8.8896,8.895,8.8999,8.8999,8.948,9.0411,9.1726,9.2401,9.3001,9.3576,9.3872,9.4029,9.4027,9.3024,9.1995,9.1085,9.07,9.0245,8.979,8.979,8.979,8.9827,0.0,0.0,0.0,0.0,0.0,0.0,0.0,0.0,0.0,0.0,0.0,0.0,0.0,0.0,0.0,0.0,0.0,0.0,0.0,4.6475,4.7297,4.8055,5.0362,5.2712,5.4917,5.5092,5.4799,5.4079,5.6533,5.7742,5.7629,5.715,5.73,5.7929,5.6386,5.571,5.5672,5.478,5.4409,5.4409,5.4334,5.3316,5.1889,5.1814,0.0,0.0,0.0,0.0,0.0,0.0,0.0,0.0,5.0324,5.1184,5.2227,5.3996,5.6282,5.8943,6.2402,6.5711,6.9203,7.3365,7.6413,7.9348,8.3196,8.421,8.4541,8.5323,8.6002,8.6429,8.649,8.7013,8.7405,8.739,8.7839,8.8189,8.8174,8.7292,8.6672,8.6672,8.6672,8.6672,8.6672,8.7423,8.7869,8.7869,8.7869,8.7877,8.7884,8.8016,8.8167,8.8316,8.8476,8.8671,8.8773,8.8773,8.8773,8.8773,8.8848,8.9254,9.0036,9.1726,9.2608,9.2815,9.3133,9.3338,9.3245,9.1729,9.1041,9.0895,9.0093,8.979,8.979,8.979,8.979,8.9827,0.0,0.0,0.0,0.0,0.0,0.0,0.0,0.0,0.0,0.0,0.0,0.0,0.0,0.0,0.0,0.0,0.0,0.0,0.0,4.6098,4.699,4.7098,4.9416,5.1277,5.2432,5.2555,5.2519,5.2331,5.4253,5.4859,5.4305,5.6065,5.7004,5.715,5.6774,5.6624,5.6512,5.5047,5.4409,5.4334,5.3704,5.2836,5.1814,5.1184,4.9948,0.0,0.0,0.0,0.0,0.0,0.0,0.0,4.9494,5.0725,5.2339,5.4663,5.7103,5.9924,6.3904,6.7401,7.093,7.5055,7.896,8.2125,8.3521,8.4874,8.6073,8.6867,8.7139,8.7419,8.7926,8.8129,8.8227,8.8115,8.7697,8.7294,8.7158,8.6398,8.5855,8.5855,8.5855,8.5855,8.5855,8.6041,8.616,8.616,8.616,8.6168,8.6289,8.6459,8.6612,8.6755,8.6909,8.7005,8.7039,8.7039,8.7039,8.7039,8.7715,8.8159,8.8384,8.9998,9.1242,9.2106,9.2318,9.2095,9.1616,9.123,9.07,9.0055,8.9866,8.979,8.979,8.979,8.979,8.9827,0.0,0.0,0.0,0.0,0.0,0.0,0.0,0.0,0.0,0.0,0.0,0.0,0.0,0.0,0.0,0.0,0.0,0.0,0.0,0.0,4.7294,4.8442,4.967,5.0718,5.1545,5.1265,5.1145,5.1145,5.2507,5.3395,5.3816,5.5493,5.6507,5.6891,5.647,5.6057,5.5615,5.4375,5.3587,5.317,5.2761,5.2085,5.1259,5.0433,4.931,4.8142,4.7763,0.0,0.0,0.0,0.0,0.0,0.0,0.0,5.2302,5.44,5.7033,6.0191,6.4354,6.8222,7.234,7.7604,8.1117,8.3446,8.4165,8.4998,8.5838,8.6589,8.7359,8.8002,8.8324,8.8018,8.7674,8.7598,8.6921,8.6333,8.6242,8.5521,8.5045,8.5045,8.5045,8.5045,8.5045,8.538,8.5602,8.5602,8.5602,8.5663,8.5775,8.5981,8.6176,8.6317,8.6432,8.6513,8.6513,8.6513,8.6513,8.6513,8.6964,8.7408,8.7858,8.9587,9.0912,9.1889,9.1613,9.1376,9.1085,9.0662,9.0207,8.979,8.979,8.979,8.979,8.979,8.979,8.9827,0.0,0.0,0.0,0.0,0.0,0.0,0.0,0.0,0.0,0.0,0.0,0.0,0.0,0.0,0.0,0.0,0.0,0.0,0.0,0.0,0.0,4.9987,4.9932,5.0154,5.0752,5.0245,4.9969,4.999,5.1266,5.259,5.3992,5.5072,5.5977,5.6624,5.5789,5.5039,5.4334,5.3366,5.2573,5.1889,5.1739,5.1292,5.0624,4.9828,4.8968,4.8104,4.7271,4.7004,4.7083,4.7575,0.0,0.0,0.0,0.0,5.2006,5.37,5.6436,5.9774,6.3921,6.8586,7.3685,7.9658,8.2365,8.3754,8.4468,8.4731,8.4987,8.5544,8.684,8.7891,8.7823,8.7143,8.6598,8.6598,8.5929,8.538,8.538,8.4711,8.4191,8.4191,8.4191,8.4191,8.4191,8.4785,8.5194,8.5194,8.5216,8.5291,8.5402,8.5613,8.5763,8.5909,8.6039,8.61,8.61,8.61,8.61,8.61,8.6213,8.6739,8.764,8.9266,9.0545,9.1437,9.0895,9.0764,9.0813,9.0093,8.979,8.979,8.979,8.979,8.979,8.979,8.979,8.9827,0.0,0.0,0.0,0.0,0.0,0.0,0.0,0.0,0.0,0.0,0.0,0.0,0.0,0.0,0.0,0.0,0.0,0.0,4.4207,0.0,0.0,4.9167,4.8467,4.8081,4.8184,4.817,4.819,4.8317,5.0659,5.1973,5.2264,5.4546,5.5672,5.5747,5.493,5.4484,5.4296,5.2757,5.2006,5.1851,5.1146,5.0812,5.0624,4.9828,4.8968,4.8104,4.7271,4.7004,4.6892,4.6261,4.7015,0.0,0.0,0.0,5.1188,5.2882,5.5206,5.8108,6.2148,6.8784,7.5434,7.9159,8.1357,8.2766,8.344,8.415,8.4628,8.4629,8.5455,8.6185,8.5998,8.5833,8.5751,8.5751,8.5082,8.4562,8.4562,8.3856,8.3373,8.3373,8.3373,8.3373,8.3373,8.3448,8.3522,8.3522,8.3647,8.374,8.3889,8.4012,8.4199,8.4378,8.4404,8.4417,8.4417,8.4417,8.4417,8.4411,8.5117,8.5906,8.6701,8.7698,8.875,8.9725,8.9754,8.985,8.998,8.9866,8.979,8.979,8.979,8.979,8.979,8.979,8.979,8.9827,0.0,0.0,0.0,0.0,0.0,0.0,0.0,0.0,0.0,0.0,0.0,0.0,0.0,0.0,0.0,4.3986,4.3986,4.4229,4.4788,4.5495,4.6388,4.7574,4.7239,4.7033,4.7033,4.7078,4.7395,4.7985,5.0093,5.1403,5.196,5.4438,5.5372,5.4926,5.4559,5.3883,5.2944,5.2227,5.1363,5.0575,5.0662,5.0703,5.0662,5.0324,4.9644,4.8818,4.795,0.0,4.7008,4.709,4.7579,4.8284,4.8689,0.0,0.0,0.0,5.4121,5.7361,6.3267,6.8791,7.3808,7.7527,8.0044,8.1799,8.247,8.3253,8.3789,8.3722,8.4064,8.4652,8.5461,8.5231,8.4934,8.4934,8.4265,8.3745,8.3745,8.341,8.3046,8.26,8.2927,8.3002,8.2563,8.2935,8.3224,8.3312,8.3377,8.3482,8.3712,8.375,8.3896,8.4073,8.4117,8.4117,8.4117,8.4117,8.4117,8.4117,8.4448,8.5049,8.5831,8.6206,8.7269,8.8751,8.9255,8.9591,8.979,8.979,8.979,8.979,8.979,8.979,8.979,8.979,8.979,8.9827,0.0,0.0,0.0,0.0,0.0,0.0,0.0,0.0,0.0,0.0,0.0,0.0,0.0,0.0,0.0,0.0,4.3986,4.4358,4.5253,4.5291,4.5662,4.6475,4.6294,4.6182,4.6182,4.6243,4.6733,4.7646,4.9383,5.0812,5.1935,5.42,5.5076,5.4705,5.4484,5.3691,5.249,5.1851,5.1025,5.0124,5.0545,5.0966,5.1342,5.1342,5.0962,5.032,4.9456,0.0,0.0,0.0,0.0,4.8561,4.9094,4.9706,0.0,0.0,0.0,5.6789,6.3329,6.7488,7.0986,7.5265,7.8187,8.0289,8.1433,8.2296,8.2965,8.315,8.3187,8.3559,8.4785,8.4488,8.4116,8.4116,8.3596,8.3113,8.2927,8.289,8.2593,8.1783,8.2192,8.2333,8.1738,8.2221,8.2607,8.2715,8.2794,8.2935,8.3124,8.3205,8.3292,8.3472,8.3472,8.3472,8.3472,8.366,8.3772,8.3772,8.3998,8.4411,8.5005,8.523,8.6121,8.7567,8.8385,8.8917,8.9135,8.9165,8.9297,8.9487,8.9487,8.9638,8.979,8.979,8.979,8.982,0.0,0.0,0.0,0.0,0.0,0.0,0.0,0.0,0.0,0.0,0.0,0.0,4.1612,4.302,4.3986,4.3986,4.3986,4.4358,4.5253,4.5291,4.5662,4.6475,4.5774,0.0,4.5365,4.5369,4.5785,4.6688,4.8422,5.0123,5.1857,5.3624,5.4855,5.5485,5.4742,5.4334,5.4108,5.1747,0.0,0.0,5.0996,5.1642,5.3074,5.3074,0.0,0.0,0.0,0.0,0.0,0.0,0.0,0.0,0.0,4.9251,4.9438,0.0,0.0,0.0,6.0422,6.392,6.752,7.2395,7.5479,7.7925,8.0252,8.1441,8.2266,8.3039,8.3187,8.3225,8.3299,8.3299,8.3262,8.3262,8.3225,8.2927,8.2192,8.208,8.1746,8.0884,8.081,8.081,8.0772,8.081,8.081,8.0854,8.1121,8.1323,8.1343,8.1589,8.1738,8.1745,8.1745,8.1745,8.1745,8.2489,8.2858,8.2896,8.3697,8.411,8.4185,8.4967,8.5422,8.5692,8.6612,8.7166,8.7353,8.7468,8.7971,8.8647,8.8647,8.9146,8.979,8.979,8.979,8.9808,0.0,0.0,0.0,0.0,0.0,0.0,0.0,0.0,0.0,0.0,0.0,0.0,0.0,4.3355,4.3986,4.3986,4.354,4.3136,4.2954,4.3396,4.3804,4.4098,4.4325,4.4473,4.4473,4.4473,4.4921,4.5827,4.7507,4.8911,5.0193,5.2917,5.4348,5.4647,5.5024,5.4893,5.4296,5.2915,5.2164,0.0,0.0,0.0,5.4075,0.0,0.0,0.0,0.0,0.0,0.0,0.0,0.0,0.0,0.0,0.0,4.8468,4.9192,5.1382,5.4292,5.7894,6.1246,6.4785,6.9174,7.2524,7.5355,7.7844,7.9442,8.0624,8.1441,8.159,8.159,8.159,8.2482,8.3046,8.2526,8.2415,8.211,8.1293,8.1181,8.0847,8.0029,8.0401,8.0512,7.9992,8.0401,8.0734,8.0877,8.1071,8.1258,8.1308,8.1492,8.1594,8.1594,8.1594,8.1594,8.1594,8.1888,8.2039,8.2039,8.2865,8.3278,8.3271,8.4141,8.455,8.4609,8.5046,8.599,8.7195,8.7354,8.7554,8.7895,8.8388,8.8767,8.9108,8.9601,8.979,8.9808,0.0,0.0,0.0,0.0,0.0,0.0,0.0,0.0,0.0,0.0,0.0,0.0,0.0,0.0,4.3992,4.3982,4.3243,4.2578,4.2058,4.2244,4.25,4.2797,4.3318,4.3726,4.3982,4.3986,4.4463,4.5378,4.6452,4.7731,4.9206,5.1696,5.317,5.3735,5.4416,5.4693,5.4618,5.3573,0.0,5.311,0.0,0.0,5.6067,0.0,0.0,0.0,0.0,0.0,0.0,0.0,0.0,0.0,0.0,0.0,0.0,4.8754,5.026,5.2415,5.5424,5.847,6.1739,6.5819,6.9317,7.2487,7.5243,7.7101,7.8655,8.0029,8.0289,8.0387,8.0596,8.1547,8.2126,8.162,8.1553,8.1255,8.0401,8.0289,7.9992,7.9175,7.9584,7.9695,7.9145,7.9584,7.996,8.0065,8.021,8.0332,8.0425,8.0602,8.0718,8.0762,8.0762,8.0762,8.0762,8.1031,8.1188,8.1225,8.2001,8.2408,8.2414,8.3278,8.366,8.3704,8.4103,8.5053,8.6296,8.6455,8.6679,8.7055,8.7857,8.835,8.8691,8.9481,8.979,8.9802,0.0,0.0,0.0,0.0,0.0,0.0,0.0,0.0,0.0,4.1392,0.0,0.0,0.0,0.0,0.0,4.4008,4.3236,4.2753,4.2716,4.1976,4.1906,4.2723,4.2797,4.3169,4.3986,4.3986,4.4395,4.5216,4.5337,4.6613,4.8973,4.9907,5.1214,5.2797,5.2797,5.3722,5.5132,5.3559,5.3825,5.5253,0.0,5.6164,5.9044,0.0,0.0,0.0,6.0299,5.8671,0.0,5.6543,0.0,0.0,0.0,0.0,0.0,0.0,0.0,5.0669,0.0,0.0,0.0,6.2476,6.5931,6.9199,7.2487,7.4524,7.6375,7.8827,7.9347,7.9564,8.0229,8.0355,8.0399,8.0551,8.061,8.0394,7.9576,7.9472,7.9175,7.8402,7.829,7.8253,7.8253,7.8253,7.8253,7.8253,7.839,7.8471,7.8509,7.8767,7.8972,7.9098,7.911,7.911,7.911,7.9948,8.0368,8.0368,8.1188,8.1557,8.1594,8.2408,8.2783,8.2865,8.3833,8.435,8.4493,8.4621,8.5238,8.6146,8.7055,8.7895,8.8647,8.9487,8.979,8.979,0.0,0.0,0.0,0.0,0.0,4.123,4.132,4.1345,4.178,0.0,0.0,0.0,0.0,4.49,4.4473,4.3906,4.2546,4.148,4.0885,4.067,4.0959,4.1816,4.247,4.3169,4.3986,4.3986,4.3838,4.3507,4.472,4.5368,4.5442,4.7471,4.9005,5.0018,5.0609,5.18,5.333,5.3033,5.3838,5.5398,5.6365,5.8036,0.0,0.0,0.0,0.0,0.0,6.1539,5.9849,0.0,5.7827,5.4718,0.0,0.0,0.0,0.0,0.0,0.0,5.2601,0.0,0.0,0.0,0.0,0.0,6.8952,7.1377,7.3428,7.5271,7.6115,7.6589,7.6769,7.6791,7.7027,7.7648,7.8822,7.9383,7.8523,7.8555,7.855,7.8327,7.7807,7.7435,7.7435,7.6871,7.6767,7.7398,7.7565,7.7899,7.8471,7.8767,7.8928,7.8966,7.906,7.911,7.911,7.9341,7.9454,7.9454,8.0324,8.0743,8.0781,8.1557,8.2264,8.2821,8.3085,8.3639,8.4356,8.4585,8.4898,8.5388,8.6834,8.7554,8.7895,8.9297,8.979,8.979,0.0,0.0,0.0,0.0,0.0,4.3057,4.3267,4.3291,4.3647,0.0,0.0,0.0,0.0,0.0,4.5199,4.4354,4.3102,4.185,4.0668,4.0337,4.0544,4.1366,4.1964,4.2781,4.3931,4.4004,4.3615,4.2801,4.4098,4.451,4.4023,4.5848,4.7144,4.7924,4.8737,4.9814,5.1124,5.1919,5.379,0.0,5.7652,0.0,0.0,6.3493,6.4609,0.0,0.0,0.0,6.3225,6.3225,6.0587,0.0,0.0,0.0,0.0,0.0,0.0,0.0,0.0,0.0,5.5707,5.8148,0.0,0.0,6.5976,6.8035,6.9912,7.219,7.304,7.3536,7.4175,7.4271,7.4509,7.5278,7.6367,7.7286,7.7919,7.8092,7.8065,7.7837,7.7398,7.6952,7.6581,7.6098,7.6024,7.6507,7.6611,7.6908,7.7415,7.7604,7.7746,7.7904,7.7985,7.8047,7.8059,7.8403,7.859,7.8628,7.946,7.9873,7.9873,8.0737,8.1369,8.1851,8.252,8.3167,8.3803,8.4336,8.4659,8.4939,8.6317,8.7093,8.7554,8.8842,8.9525,8.979,0.0,0.0,4.3187,4.3948,4.4731,4.5471,4.6101,4.6272,4.6355,0.0,4.6397,4.6507,4.6594,4.6518,4.6152,4.5432,4.4398,4.3144,4.1638,4.0723,4.0579,4.1395,4.1539,4.2322,4.3844,4.3965,4.3599,4.2786,4.3499,4.3875,4.3875,4.4659,4.5513,4.6401,4.7218,4.8073,4.8997,5.0673,5.3757,5.7578,5.847,6.0847,0.0,0.0,6.6939,6.7788,6.8493,6.7788,6.6451,6.6085,6.2848,0.0,0.0,0.0,0.0,0.0,5.1532,0.0,0.0,0.0,0.0,5.662,5.8351,0.0,6.3348,6.4746,6.6248,6.9306,7.0001,7.0478,7.189,7.212,7.2372,7.3075,7.3382,7.4533,7.7299,7.7697,7.7545,7.6986,7.6871,7.6507,7.572,7.5571,7.5578,7.5645,7.5757,7.5847,7.596,7.598,7.6153,7.6462,7.6487,7.6554,7.6594,7.7351,7.777,7.777,7.8478,7.8885,7.9004,7.9761,8.0218,8.0481,8.1888,8.271,8.3056,8.3822,8.4362,8.48,8.5702,8.6551,8.7364,8.8274,8.907,8.9676,0.0,4.4453,4.4793,4.5523,4.6303,4.6852,4.6902,4.7444,4.811,4.8798,4.9449,4.9853,4.9872,4.8675,4.7839,4.7656,4.5134,4.341,4.308,4.1744,4.1338,4.2153,4.2258,4.2782,4.3788,4.3873,4.3513,4.2735,4.2912,4.302,4.302,4.321,4.4102,4.5551,4.6368,4.7553,4.8997,5.0673,5.3757,5.7615,5.9096,6.203,6.5788,6.7416,6.8939,7.0233,7.0382,6.9824,6.8605,6.5968,6.3108,6.0253,0.0,0.0,0.0,5.3407,0.0,0.0,0.0,0.0,0.0,0.0,0.0,0.0,6.0902,6.2408,6.3915,6.59,6.6818,6.759,6.8482,6.8666,6.8946,6.9713,7.0431,7.1985,7.5299,7.5941,7.6028,7.5907,7.543,7.502,7.4834,7.424,7.4128,7.4797,7.5422,7.5807,7.5834,7.5934,7.6071,7.6243,7.6437,7.6554,7.6669,7.6782,7.6857,7.6857,7.7007,7.7464,7.8146,7.8302,7.9129,8.0405,8.0743,8.1614,8.2872,8.3144,8.384,8.4794,8.5613,8.6095,8.6525,8.8041,8.8691,8.8918,4.5553,4.5872,4.6353,4.7072,4.7904,4.8547,4.8893,4.9292,4.9696,5.0146,5.0545,5.0797,5.0797,5.0063,4.9219,4.837,4.6833,4.5227,4.3616,4.2773,4.2353,4.2353,4.2398,4.2845,4.3688,4.3816,4.3237,4.1987,4.2509,4.2551,4.2143,4.2593,4.3689,4.5332,4.6145,4.7404,4.9039,5.1115,5.4124,5.769,5.9733,0.0,6.6939,6.8939,7.0462,7.1589,7.1998,7.136,6.9862,6.7008,6.4705,0.0,0.0,5.8349,5.7016,0.0,5.5565,5.5734,0.0,0.0,0.0,5.6737,0.0,0.0,0.0,5.9574,6.026,6.1912,6.2572,6.3092,6.3913,6.439,6.4904,6.5735,6.691,6.8448,7.0551,7.2747,7.4079,7.3822,7.3501,7.3165,7.2809,7.2406,7.2326,7.2734,7.3143,7.3558,7.398,7.4082,7.4365,7.4909,7.5079,7.5214,7.5347,7.5782,7.6,7.6,7.6407,7.7045,7.7889,7.7889,7.8559,7.9798,8.0218,8.0856,8.1676,8.2529,8.3282,8.3933,8.4929,8.5623,8.6183,8.7055,8.763,8.8122,4.6308,4.6801,4.7541,4.8389,4.9265,5.0115,5.0912,5.1164,5.1274,5.1274,5.1384,5.1494,5.1494,0.0,0.0,4.9361,4.8668,4.72,4.4603,4.3983,4.3428,4.28,4.2655,4.2909,4.3559,4.3684,4.3107,4.1749,4.2201,4.2277,4.1944,4.2313,4.3498,4.5279,4.6261,4.7602,4.931,5.1927,5.4867,5.795,6.0587,6.393,6.7565,6.9979,7.1441,7.2314,7.3088,7.245,7.0796,6.8531,6.6656,6.4801,6.2262,6.083,0.0,0.0,0.0,0.0,0.0,0.0,0.0,0.0,0.0,5.6167,0.0,0.0,0.0,5.8425,5.875,5.8976,5.9789,6.0456,6.1117,6.1771,6.3123,6.434,6.5001,6.8242,7.0749,7.119,7.1279,7.1047,7.048,7.0456,7.0456,7.0456,7.0567,7.0988,7.167,7.1862,7.2409,7.3354,7.3516,7.3726,7.4015,7.4777,7.5179,7.5179,7.5843,7.66,7.7432,7.7583,7.8108,7.8928,7.9761,8.0255,8.0481,8.1813,8.261,8.31,8.4246,8.5133,8.5845,8.602,8.6562,8.7289,4.6989,4.7058,4.7613,4.9165,5.011,5.0949,5.1725,5.2485,5.292,5.292,5.355,5.3995,0.0,0.0,0.0,0.0,0.0,0.0,4.7787,0.0,4.4516,4.4443,4.3731,4.3409,4.3519,4.3592,4.3523,4.3339,4.2073,4.2158,4.3517,4.2129,4.2765,4.5094,4.6732,4.8364,5.0078,5.3347,5.6199,5.8836,6.203,6.4928,0.0,6.9979,7.1441,7.2314,7.3088,7.2828,7.1788,0.0,6.8266,6.6389,0.0,6.2417,6.1375,6.0456,0.0,0.0,0.0,0.0,0.0,0.0,5.7802,0.0,0.0,0.0,5.5983,5.689,0.0,5.733,5.8107,0.0,0.0,5.8547,5.9312,5.9924,6.004,6.1643,6.4265,6.8083,6.866,6.8742,6.8778,6.8753,6.8753,6.8753,6.9422,6.9862,6.9979,7.0648,7.1497,7.2497,7.2664,7.3134,7.3977,7.4208,7.4342,7.4342,7.4417,7.4911,7.5705,7.6488,7.7276,7.8071,7.8891,7.9679,8.0405,8.0593,8.157,8.3094,8.4116,8.4666,8.4975,8.5801,8.6146,8.6373,4.7089,4.7484,4.8191,4.9385,5.0256,5.1059,5.1872,5.2674,5.3361,5.3843,5.4179,5.4583,0.0,0.0,0.0,0.0,0.0,5.0755,0.0,0.0,4.6571,4.6127,4.5333,4.4676,4.4195,4.4221,4.3765,4.2851,4.2235,4.232,4.2992,4.282,4.4063,4.6468,4.82,5.0421,5.3015,5.5936,5.8581,6.1139,6.4413,6.6636,6.8196,7.0159,7.1731,7.2939,7.3274,7.2865,7.2004,0.0,6.9168,0.0,0.0,0.0,0.0,6.291,0.0,0.0,0.0,0.0,0.0,0.0,0.0,0.0,5.6203,0.0,5.4284,0.0,0.0,0.0,0.0,0.0,0.0,0.0,5.5574,5.6407,5.6407,5.7807,6.0203,6.4009,6.4924,6.5324,6.5516,6.5592,6.5856,6.6302,6.6673,6.7485,6.8939,6.9311,7.0116,7.1479,7.1653,7.2197,7.3184,7.3321,7.3677,7.4191,7.4191,7.4604,7.5442,7.6256,7.7089,7.7927,7.8741,7.9304,7.9686,8.018,8.0812,8.1589,8.2548,8.3669,8.4768,8.5227,8.5382,8.5539,4.7004,0.0,4.848,4.9328,4.9983,5.0716,5.1747,5.2757,5.3642,0.0,0.0,0.0,5.6203,5.646,0.0,0.0,5.4577,5.3256,0.0,0.0,4.8631,4.7819,4.6796,0.0,0.0,4.514,4.4337,4.2943,4.2777,4.2815,4.3044,4.3516,4.5131,4.7721,4.9709,5.2428,5.5715,5.871,6.1303,6.3665,6.6748,6.8698,6.9892,7.0895,7.2146,7.3385,7.3385,7.2988,7.2342,7.1355,7.0073,0.0,6.7418,0.0,6.5614,0.0,0.0,0.0,6.2952,0.0,0.0,0.0,0.0,0.0,0.0,0.0,0.0,0.0,0.0,0.0,0.0,0.0,5.2595,5.1798,0.0,5.3408,5.3408,5.462,5.6726,6.0105,6.1245,6.1812,6.1997,6.2338,6.2814,6.3402,6.4093,6.5336,6.7379,6.7936,6.8902,7.053,7.071,7.136,7.2527,7.2702,7.3244,7.4145,7.4174,7.4492,7.5098,7.6144,7.6976,7.762,7.8666,7.911,7.9148,7.9798,8.018,8.0455,8.1182,8.2477,8.3942,8.4294,8.4606,8.4871,4.682,4.7455,0.0,4.906,4.9237,4.9784,5.1358,5.2951,0.0,0.0,0.0,0.0,0.0,0.0,0.0,0.0,0.0,5.5176,5.4326,0.0,5.0367,0.0,0.0,4.7039,0.0,0.0,4.5438,4.4626,4.3832,4.3873,4.4594,4.3873,4.5199,4.8389,5.09,5.3926,5.7402,6.1496,6.431,6.6196,6.8642,7.1017,7.2996,0.0,7.2686,7.3385,7.3385,0.0,0.0,7.2155,7.1118,0.0,0.0,0.0,0.0,0.0,0.0,0.0,0.0,0.0,0.0,6.1741,0.0,0.0,0.0,0.0,5.3214,0.0,0.0,0.0,0.0,0.0,0.0,0.0,5.087,0.0,0.0,5.1615,5.3393,5.6753,5.798,5.8537,5.8542,5.9391,5.9938,5.9975,6.2246,6.3999,6.4853,6.6451,6.8085,6.9676,6.986,7.0721,7.2398,7.266,7.3202,7.4021,7.4133,7.4191,7.4304,7.5956,7.6713,7.6826,7.8397,7.911,7.911,7.9148,7.9648,8.0424,8.0592,8.1168,8.2008,8.2935,8.3782,8.4505,0.0,0.0,0.0,4.8336,4.8867,4.9919,0.0,5.3299,0.0,0.0,0.0,0.0,0.0,6.0162,6.023,0.0,0.0,5.7624,5.6822,5.5029,0.0,0.0,0.0,5.0451,0.0,0.0,4.7453,4.6212,4.5421,4.5164,4.5516,4.6324,4.7865,5.0105,5.3172,5.667,6.0463,6.3539,6.6451,6.9207,7.1655,7.3114,7.3827,0.0,7.368,7.3865,7.3323,7.3111,0.0,7.1951,7.1369,7.0905,6.9706,6.913,6.8832,6.8568,6.8495,0.0,0.0,0.0,6.5448,6.3019,0.0,0.0,0.0,0.0,0.0,0.0,0.0,0.0,0.0,0.0,5.0765,4.9366,4.87,4.8186,0.0,4.8264,4.938,5.1046,5.3518,5.5107,5.5107,5.5897,5.6916,5.8069,5.996,6.1932,6.3888,6.5602,6.7008,6.8085,6.8653,6.9544,7.0715,7.1449,7.2284,7.3202,7.3876,7.4191,7.4266,7.5881,7.6632,7.6745,7.8397,7.911,7.911,7.911,7.9266,7.9535,7.9579,8.013,8.1057,8.2628,8.3386,8.3732,4.7772,0.0,0.0,0.0,0.0,0.0,0.0,0.0,0.0,0.0,5.8884,0.0,6.2168,0.0,6.2358,0.0,6.1435,6.015,5.9324,5.7776,0.0,5.553,5.4714,0.0,0.0,5.1054,4.9747,4.8228,4.7431,4.7087,4.7185,4.825,4.9811,5.1788,5.4811,5.8439,6.2419,6.5232,6.8344,7.1575,7.3969,7.4767,7.4509,0.0,7.417,7.3721,0.0,7.2955,7.2782,7.2169,7.1694,7.1337,7.0725,7.033,7.0117,7.0117,7.0117,6.9853,6.8832,6.8141,0.0,6.4707,6.2469,0.0,5.8798,0.0,0.0,0.0,0.0,0.0,0.0,0.0,5.0246,4.8558,4.7631,4.6824,0.0,4.6356,4.6865,4.7384,4.9885,5.1705,5.2036,5.2827,5.4062,5.577,5.7773,5.9991,6.2537,6.4576,6.6159,6.7268,6.8085,6.8914,6.9823,7.0477,7.1467,7.2757,7.3399,7.3888,7.4229,7.5581,7.6332,7.6669,7.8059,7.8853,7.911,7.911,7.911,7.911,7.911,7.9454,8.0155,8.1984,8.3019,8.3584,0.0,0.0,0.0,0.0,4.9262,0.0,0.0,0.0,5.6695,0.0,6.0897,6.2784,6.3821,6.4727,6.5325,6.5362,6.3857,0.0,6.1783,6.0291,0.0,0.0,5.7299,5.6431,5.5452,5.3843,0.0,0.0,0.0,4.9489,4.9463,4.9625,5.0991,5.3361,5.5783,5.9162,6.3254,6.65,6.9845,7.3142,7.5403,7.5794,7.5014,7.4889,7.4065,7.2975,7.2975,7.2835,7.2695,7.2695,7.2088,7.1344,7.1344,7.0837,7.0227,7.0227,7.0227,7.0227,7.0183,6.9052,6.7657,6.6769,0.0,0.0,0.0,0.0,5.6768,0.0,0.0,0.0,0.0,0.0,0.0,4.8585,4.7516,4.664,4.5883,4.5773,4.5773,4.5773,4.7131,4.8416,4.9348,5.0245,5.1487,5.3165,5.5727,5.8291,6.0748,6.3317,6.5485,6.7119,6.8011,6.8828,6.9639,6.9829,7.0782,7.2538,7.272,7.3293,7.4217,7.5023,7.5849,7.6669,7.7508,7.8371,7.911,7.911,7.911,7.911,7.911,7.9148,7.941,8.1031,8.2646,8.4117,5.0193,5.0572,5.1435,0.0,5.2408,5.2594,0.0,0.0,0.0,0.0,6.1855,6.3103,6.5344,6.5264,6.5373,6.6132,6.5258,0.0,0.0,0.0,0.0,6.1268,6.0917,6.003,5.8503,5.6877,0.0,5.2929,0.0,5.0775,5.0315,5.1055,5.2349,5.421,5.6602,5.9966,6.4006,6.6615,6.9972,7.3596,7.4801,7.4787,7.4067,0.0,7.3427,7.261,7.261,7.2589,7.2546,7.2546,7.237,7.2195,7.2195,7.2048,7.1872,7.1872,7.1872,7.1754,7.116,7.069,6.9883,6.7877,6.6299,6.4615,0.0,0.0,0.0,0.0,0.0,0.0,0.0,0.0,0.0,4.8563,4.6085,4.4346,4.4167,4.413,4.413,4.413,4.4493,4.5301,4.6696,4.8146,4.9669,5.1413,5.4505,5.7175,5.9112,6.2209,6.4371,6.5411,6.6859,6.7973,6.8791,6.9531,7.0435,7.1515,7.2385,7.3252,7.4062,7.4988,7.5887,7.6713,7.7545,7.8371,7.911,7.911,7.911,7.911,7.911,7.9867,8.0994,8.1444,8.2646,8.4117,5.2065,0.0,0.0,5.6524,0.0,0.0,5.7369,5.8275,0.0,6.2774,6.3532,0.0,6.6839,6.674,6.6699,6.73,6.6605,0.0,6.4965,0.0,0.0,6.3384,6.3309,6.2583,6.1208,5.9615,0.0,5.5825,0.0,5.2741,5.2095,5.2328,5.3329,5.5029,5.7085,6.0278,6.436,6.8171,7.1291,7.3788,7.4581,7.4434,0.0,7.3714,7.32,7.2488,7.2488,7.2488,7.2459,7.2085,7.1975,7.1901,7.1578,7.1468,7.1468,7.1468,7.1468,7.1358,7.091,7.0499,6.9919,6.8568,6.7273,6.5807,6.3604,6.2472,6.1124,0.0,0.0,0.0,0.0,0.0,0.0,4.8116,4.559,4.4004,0.0,4.3726,4.3506,4.3506,4.3506,4.3873,4.4754,4.5989,4.7554,4.96,5.2308,5.4904,5.7334,6.0697,6.3256,6.4742,6.6413,6.7676,6.8493,6.9018,6.9729,7.0609,7.1581,7.2536,7.3413,7.4362,7.5472,7.6635,7.7145,7.8027,7.911,7.911,7.911,7.911,7.911,8.0124,8.1594,8.1594,8.2646,8.4117,0.0,0.0,0.0,0.0,0.0,0.0,0.0,6.0948,0.0,6.4548,0.0,6.667,6.8204,6.8473,6.8524,6.8545,0.0,6.724,6.6533,6.579,6.5363,6.5224,6.513,6.4595,6.3685,6.2005,0.0,0.0,0.0,5.4745,5.3986,5.3323,5.393,5.5658,5.7268,6.0388,6.4757,6.9853,7.2569,7.3457,7.425,7.4177,7.3531,7.3531,7.312,7.2488,7.2488,7.2488,7.2378,7.1564,7.1307,7.116,7.0367,7.0117,7.0117,7.0117,7.0117,7.011,7.0096,6.9568,6.9011,6.888,6.7641,6.6032,6.43,6.3282,6.1986,5.9569,5.8421,5.7364,0.0,0.0,0.0,4.7607,4.5854,0.0,0.0,0.0,4.3767,4.3653,4.3653,0.0,4.351,4.4232,4.5654,4.7971,4.9863,5.2351,5.5644,5.9022,6.1988,6.4408,6.6191,6.7528,6.8345,6.8456,6.8963,6.9871,7.0709,7.1627,7.2601,7.3556,7.4827,7.6349,7.6566,7.7521,7.8966,7.9072,7.911,7.911,7.9229,8.0168,8.1482,8.167,8.2683,8.396,0.0,0.0,0.0,0.0,0.0,6.4004,6.533,6.4541,6.4649,6.7032,6.7525,6.8027,6.9053,6.9207,6.9274,6.9362,6.9267,0.0,0.0,0.0,0.0,6.8567,6.7824,6.7025,6.6207,6.3932,6.1679,0.0,0.0,5.5321,5.3986,5.3323,5.393,5.5658,5.7268,6.1006,6.6219,6.8568,7.0396,7.1791,7.2599,7.2826,7.2716,7.2716,7.2606,7.2488,7.2488,7.2488,7.2378,7.1564,7.1307,7.116,7.0367,7.0117,7.0117,7.0117,7.0117,7.0089,6.9969,6.9824,6.954,6.8688,6.8266,6.7377,6.4992,6.4319,6.3507,6.0976,5.9819,5.8774,5.7149,0.0,0.0,0.0,0.0,0.0,0.0,0.0,4.5223,4.4557,4.4484,4.4232,4.3543,4.4232,4.5434,4.7191,4.8949,5.1386,5.4747,5.7545,6.0215,6.2736,6.5076,6.6716,6.7491,6.8159,6.8914,6.9756,7.0654,7.1584,7.2466,7.3417,7.443,7.5469,7.6218,7.711,7.8146,7.8816,7.911,7.9185,7.9873,8.0368,8.0781,8.2114,8.2783,8.3121,0.0,0.0,0.0,0.0,0.0,0.0,0.0,6.8923,6.8706,6.8641,6.8605,6.8953,6.9827,6.9907,6.9937,7.0013,7.0021,6.9839,6.9403,6.9335,6.9109,6.8695,6.8229,0.0,6.6815,6.4837,6.2838,6.0833,0.0,0.0,5.4477,5.3313,5.3706,5.5542,5.8817,6.2562,6.653,6.8568,7.0143,7.138,7.2195,7.2488,7.2488,7.2488,7.2488,7.2488,7.2488,7.2488,7.2378,7.1564,7.102,7.0543,6.9743,6.9199,6.8855,6.8779,6.8759,6.8724,6.8534,6.8498,6.8367,6.7895,6.7416,6.6617,6.4982,6.4208,6.3297,6.1215,6.0471,5.9463,5.705,5.4049,0.0,0.0,0.0,0.0,0.0,0.0,4.6388,4.598,4.5214,4.4553,4.4154,4.4085,4.4557,4.576,4.7454,4.9744,5.2683,5.5678,5.8678,6.1659,6.4153,6.6042,6.7305,0.0,6.8679,6.9088,7.0382,7.1231,7.169,7.305,7.4157,7.5041,7.6057,7.698,7.786,7.8747,7.911,7.9148,7.9567,7.9986,8.0481,8.1263,8.182,8.2376,0.0,6.5524,0.0,0.0,6.9044,7.0053,7.1432,7.2356,7.2251,7.0452,7.0198,7.0387,7.085,7.0887,7.0814,7.0641,7.0633,7.0351,6.9735,6.9699,6.9401,6.877,6.8445,6.7945,6.7329,6.5417,6.3599,0.0,0.0,0.0,0.0,5.3717,5.4223,5.641,6.056,6.3915,6.6637,0.0,7.0199,7.1244,7.2064,7.2394,7.2394,7.2394,7.2394,7.2394,7.2394,7.2394,7.2284,7.1654,7.084,6.9921,6.9107,6.828,6.7579,6.747,6.7435,6.74,6.7203,6.7161,6.7154,6.7118,6.6444,6.5559,6.4731,6.3842,6.2773,6.134,6.0905,5.9862,5.6832,5.4731,0.0,0.0,0.0,0.0,0.0,0.0,4.7558,4.7374,4.609,4.5067,4.4737,4.4121,4.4011,4.4663,4.6144,4.8191,5.0918,5.4056,5.738,6.0783,6.3282,6.5336,6.7045,0.0,6.8345,6.8531,7.0122,7.0902,7.0939,7.2738,7.3925,7.459,7.5676,7.6737,7.7767,7.8723,7.911,7.911,7.911,7.9529,8.0143,8.033,8.0818,8.1557,0.0,0.0,0.0,0.0,0.0,7.1959,7.2119,7.2961,7.356,7.3454,7.3478,7.3225,7.2573,7.2464,7.2175,7.1458,7.1386,7.1386,7.1277,7.1277,7.1233,7.1161,6.9836,6.9047,6.8974,6.5968,6.3599,0.0,0.0,5.7179,0.0,5.4832,5.6461,5.9643,6.1538,0.0,0.0,6.8136,6.942,7.0931,7.1712,7.204,7.204,7.204,7.204,7.204,7.204,7.204,7.2048,7.1967,7.1041,6.9766,6.8954,6.8058,6.7245,6.7238,6.7231,6.7196,6.7047,6.7004,6.7005,6.6859,6.6207,6.5395,6.4605,6.3801,6.2954,6.2064,6.1304,6.0043,5.7557,5.6905,5.6035,0.0,0.0,0.0,0.0,0.0,4.9087,4.8264,4.7411,4.631,4.4847,4.4626,4.4626,4.47,4.5525,4.7454,5.0723,5.3397,5.6393,5.9832,6.24,6.4525,6.6196,6.7014,6.7788,6.8531,7.0122,7.0902,7.0939,7.2649,7.3544,7.3764,7.4609,7.6,7.7767,7.8723,7.911,7.911,7.911,7.9148,7.9304,8.0105,8.0443,8.0631,0.0,0.0,0.0,0.0,0.0,0.0,0.0,7.5769,7.6352,7.6422,7.4966,7.376,7.3478,7.3434,7.3108,7.2283,7.2211,7.203,7.1531,7.1487,7.1313,7.085,6.9771,6.8974,6.8496,6.6279,6.433,0.0,0.0,0.0,0.0,0.0,0.0,0.0,0.0,6.5631,6.7869,6.9179,7.0141,7.085,7.1667,7.2003,7.2003,7.2003,7.2003,7.2003,7.2003,7.2003,7.2003,7.2003,7.0982,6.9646,6.9346,6.8318,6.7189,6.7097,6.7069,6.704,6.6918,6.6874,6.6859,6.6801,6.6207,6.5374,6.4584,6.3787,6.2954,6.2173,6.1376,6.0507,5.9536,5.8166,5.6899,0.0,0.0,0.0,0.0,0.0,0.0,4.9943,4.8627,4.7379,4.6237,4.5691,4.5402,4.5402,4.5736,4.7141,5.0041,0.0,5.5568,5.8969,6.1541,6.393,6.6085,6.6896,6.7713,6.8531,7.0122,7.0902,7.0976,7.2636,7.3754,7.436,7.4658,7.5848,7.7603,7.799,7.8472,7.8991,7.8991,7.9041,7.9148,7.9492,7.9604,7.9679,7.4894,0.0,7.5904,0.0,7.6569,7.6982,7.7065,7.7604,7.8026,7.8026,7.6324,7.4994,7.4546,7.4301,7.3856,7.3108,7.2826,7.2464,7.1885,7.1639,7.1277,7.0742,6.9989,0.0,6.8706,6.7148,6.5518,6.3903,6.2549,0.0,0.0,0.0,0.0,0.0,6.5591,6.757,6.9263,7.0614,7.1256,7.1399,7.1989,7.207,7.1851,7.1851,7.1851,7.1851,7.1851,7.1851,7.1815,7.1604,7.0621,6.95,6.9544,6.8393,6.7054,6.6983,6.6947,6.6925,6.6815,6.6779,6.6779,6.6779,6.6207,6.5446,6.4874,6.3932,6.2954,6.2173,6.1557,6.1086,6.0833,5.921,5.784,5.7587,0.0,0.0,0.0,5.3526,0.0,5.0925,4.9505,4.8336,4.7521,4.6943,4.6728,4.6952,4.7209,4.8119,4.9919,0.0,0.0,0.0,0.0,0.0,6.6038,6.6884,6.7713,6.8531,6.9905,7.0679,7.0976,7.2636,7.3772,7.4414,7.4676,7.5641,7.7081,7.7381,7.8039,7.8909,7.8909,7.8991,7.911,7.911,7.911,7.911,7.7294,7.7473,7.7473,7.7482,7.7482,7.7482,7.7482,7.7668,7.7788,7.7788,7.7963,7.7514,7.6122,7.5273,7.4555,7.3925,7.3152,7.2718,7.2682,7.1921,7.1487,0.0,0.0,7.0387,7.0387,6.8778,6.7177,6.5555,0.0,0.0,6.0797,0.0,6.4004,6.5663,6.8069,7.0025,7.1531,7.2319,7.2682,7.269,7.269,7.2219,7.1502,7.1502,7.1502,7.1502,7.1502,7.1502,7.1394,7.0677,6.9888,6.923,6.9344,6.8195,6.6786,6.6786,6.6786,6.6786,6.6779,6.6779,6.6779,6.6779,6.6207,6.5591,6.5591,6.4367,6.2954,6.2173,6.1985,6.1738,6.0942,6.0115,5.9319,5.8522,0.0,0.0,0.0,5.3742,0.0,5.0775,4.987,4.91,4.8365,4.8264,4.8636,4.9495,5.0293,5.076,0.0,0.0,0.0,5.93,6.2008,0.0,6.5882,6.6843,6.7713,6.8493,6.9342,7.0122,7.0976,7.2636,7.3423,7.3473,7.4414,7.5248,7.6117,7.7081,7.8039,7.8909,7.8909,7.8991,7.911,7.911,7.911,7.911,7.9899,7.9935,7.9792,7.9212,7.914,7.914,7.914,7.9198,7.9227,7.9227,7.8802,7.8378,7.8097,7.7064,7.5912,0.0,7.4418,7.4086,0.0,7.2754,7.2319,7.2319,7.1104,7.0387,7.0387,6.9373,6.8315,6.7249,0.0,0.0,0.0,6.5982,6.7329,6.8931,7.0198,7.1639,7.3144,7.3398,7.3181,7.2718,7.2718,7.2211,7.1487,7.1487,7.1487,7.1487,7.1487,7.1487,7.1386,7.0641,6.988,6.9091,6.8629,6.7692,6.6779,6.6779,6.6779,6.6779,6.6779,6.6779,6.6779,6.6779,6.6605,6.6279,6.5736,6.4367,6.2954,6.2173,6.1985,6.1912,6.1666,6.0507,5.9536,5.9246,5.7908,0.0,5.5183,0.0,5.3554,5.1536,5.1135,5.0717,4.9953,4.995,5.0362,5.1179,5.1977,5.2449,0.0,0.0,0.0,0.0,6.2211,0.0,6.671,6.7006,6.7623,6.8493,6.9311,7.0431,7.1818,7.2902,7.3385,7.3429,7.3728,7.4299,7.5117,7.5988,7.69,7.7876,7.8412,7.878,7.8972,7.8972,7.9035,7.911,8.1148,8.1113,8.0863,8.0032,7.989,7.989,7.989,7.989,7.989,7.989,7.9471,7.9091,7.8893,7.8295,0.0,7.5842,7.5266,7.4816,7.4375,7.3587,7.3144,7.3144,7.2219,7.172,7.172,7.1213,0.0,6.9784,6.9176,6.8488,6.7728,6.8525,6.9438,7.046,7.1784,7.2971,7.3905,7.4231,7.3868,7.3108,7.2826,7.2211,7.1487,7.1487,7.1487,7.1487,7.1487,7.1487,7.1342,7.0201,6.9498,6.8875,6.7714,6.7005,6.663,6.6749,6.6779,6.6779,6.6779,6.6779,6.6779,6.6779,6.6779,6.6496,6.541,6.4367,6.3352,6.2245,6.1985,6.1985,6.1985,6.0688,5.9608,5.9608,5.8239,5.667,5.519,0.0,5.4524,0.0,0.0,0.0,0.0,5.2056,5.2491,5.3309,5.4363,5.5018,0.0,0.0,5.8914,6.1353,6.3124,6.4998,6.6932,6.7358,6.7852,6.8457,6.962,7.0691,7.1744,7.2865,7.3385,7.3385,7.3385,7.3868,7.4649,7.5132,7.6134,7.7334,7.7862,7.8374,7.8832,7.8832,7.8883,7.8966,8.1327,8.1194,8.0899,8.0032,7.989,7.989,7.989,7.9961,7.9961,7.9925,7.9961,7.9685,7.8874,7.8883,7.8527,7.744,0.0,0.0,7.5247,7.4431,7.3969,7.3977,7.3933,7.3888,7.3888,7.388,7.3518,7.2774,7.1269,7.0154,6.9445,7.0134,7.0496,7.0677,7.2826,7.3832,7.3941,7.4701,7.4556,7.376,7.2999,7.2211,7.1487,7.1479,7.1479,7.1471,7.1463,7.1455,7.1222,6.9518,6.8958,6.8646,6.6942,6.6392,6.6446,6.6711,6.6764,6.6764,6.6815,6.6779,6.6779,6.6779,6.6779,6.6388,6.4837,6.4439,6.3968,6.239,6.2028,6.1992,6.1919,6.0652,5.9572,5.9536,5.8202,5.6681,5.519,5.5565,5.5203,5.3084,0.0,0.0,5.4411,5.458,5.4992,0.0,5.7231,0.0,0.0,0.0,6.0517,6.2829,6.4614,6.5978,6.6764,6.7782,6.8278,6.8333,7.0059,7.0902,7.0976,7.2636,7.3385,7.3385,7.3385,7.3831,7.4537,7.4574,7.5614,7.7209,7.7246,7.7854,7.8688,7.8688,7.8688,7.8715,0.0,0.0,8.1505,8.0139,7.989,7.989,7.989,8.0425,8.0613,7.9961,8.0435,8.0506,7.9711,7.9127,7.8714,7.8589,7.7236,7.6505,7.6696,7.5369,7.4677,7.4802,7.4115,7.376,7.376,7.361,7.3502,7.3471,7.248,7.1974,7.1857,7.1422,7.1567,7.2183,7.2754,7.3333,7.3905,7.4086,7.3724,7.2971,7.279,7.2211,7.1479,7.1396,7.1348,7.1324,7.1159,7.111,7.0958,6.9929,6.9581,6.9329,6.7707,6.7232,6.7127,6.6713,6.6549,6.6615,6.6749,6.6779,6.6779,6.6779,6.6779,6.6533,6.5555,6.4837,6.4113,6.3135,6.2433,6.1811,6.1195,6.0254,5.9391,5.8775,5.784,5.6869,5.5891,5.5891,5.5794,0.0,5.5557,5.6105,5.6749,5.7026,5.7483,0.0,0.0,5.971,6.1582,6.1838,6.2505,6.3766,6.5407,6.6691,6.7618,6.7861,6.81,6.8333,7.0059,7.0902,7.0976,7.2636,7.3385,7.3385,7.3385,7.3497,7.372,7.4351,7.5219,7.6219,7.6888,7.772,7.8556,7.8556,7.8616,7.8702,8.2663,8.2414,8.2059,8.0876,8.0662,8.0662,8.0662,8.1053,8.117,8.0733,8.0833,8.0751,8.0313,7.9663,7.9295,7.9401,7.8112,7.7416,7.7613,7.6442,7.58,7.5923,7.5088,7.4649,7.4649,7.4546,7.4366,7.4109,7.3308,7.2814,7.2589,7.1773,7.1677,7.2175,7.2537,7.2935,7.337,7.337,7.3108,7.2682,7.2283,7.1845,7.1404,7.1324,7.1243,7.1162,7.1029,7.0996,7.0872,6.9991,6.9707,6.9475,6.8175,6.7757,6.7645,6.7021,6.6672,6.6527,6.6734,6.6779,6.6779,6.6779,6.6779,6.6605,6.5772,6.4982,6.4185,6.3359,6.2542,6.1731,6.0942,6.0145,5.9355,5.8528,5.7732,5.6905,5.6108,5.6615,5.6977,5.6579,5.7437,5.8215,5.8647,5.9285,5.9832,6.0266,6.1,0.0,6.3313,6.4083,6.4714,6.5197,6.6035,6.6926,6.7814,6.788,6.8201,6.8757,7.0162,7.1005,7.1406,7.2789,7.3385,7.3385,7.3385,7.3385,7.3423,7.3868,7.476,7.5838,7.6321,7.7297,7.8407,7.8407,7.8455,7.8522,8.2867,8.269,8.2477,8.1724,8.1582,8.1582,8.1582,8.1688,8.1724,8.1618,8.1251,8.0947,8.0841,8.0472,8.0162,8.0019,7.8953,7.8291,7.8242,7.7497,7.7003,7.6886,7.6293,7.5897,7.5754,7.5718,7.5323,7.4559,7.3769,7.3063,7.2445,7.164,7.1324,7.1452,7.2163,7.2497,7.2505,7.2529,7.2573,7.2645,7.1926,7.1585,7.1464,7.1408,7.1222,7.0982,7.0922,7.0905,7.0781,6.9986,6.973,6.9554,6.861,6.8266,6.8129,6.7414,6.6934,6.6647,6.6726,6.6764,6.6779,6.6779,6.6779,6.6634,6.5953,6.5048,6.4222,6.3504,6.265,6.1731,6.0942,6.0145,5.9355,5.8528,5.7732,5.7013,5.6434,0.0,5.8275,5.7949,5.9365,6.0476,6.0689,6.1592,6.2151,6.2151,6.3472,6.4316,6.447,6.5748,6.6549,6.6659,6.6659,6.6996,6.77,6.784,6.837,6.9286,7.0219,7.1111,7.1933,7.2916,7.3366,7.3385,7.3385,7.3385,7.3385,7.3385,7.4277,7.5608,7.5608,7.6581,7.7956,7.8067,7.8104,7.8155,8.2867,8.269,8.2477,8.1724,8.1582,8.1582,8.1582,8.2113,8.23,8.1688,8.2074,8.214,8.1528,8.1531,8.1307,8.0621,8.057,8.0096,7.8936,7.8112,7.7432,7.6922,7.6688,7.6249,7.5568,7.5397,7.4995,7.434,7.3543,7.2857,7.2216,7.1424,7.1045,7.1078,7.1404,7.1504,7.1513,7.1648,7.2066,7.2666,7.244,7.2339,7.2262,7.1947,7.1382,7.0802,7.065,7.0599,7.0555,7.0423,7.0343,7.0227,6.9372,6.9106,6.8862,6.7585,6.7135,6.7023,6.6632,6.6675,6.6779,6.6779,6.6779,6.6779,6.6641,6.5489,6.4367,6.4222,6.3012,6.1731,6.0942,6.0145,5.9355,5.8528,5.7732,5.7369,5.7949,0.0,5.9101,6.1014,6.1723,6.2556,6.3922,6.4472,6.4744,6.4744,6.4964,6.5405,6.6072,6.6366,6.6813,6.748,6.7517,6.759,6.77,6.784,6.8318,6.9135,7.0099,7.1,7.1926,7.2811,7.3298,7.3385,7.3385,7.3385,7.3385,7.3385,7.3943,7.4797,7.4797,7.5355,7.6284,7.7027,7.7287,7.7405,8.3023,8.2952,8.2846,8.2529,8.2459,8.2459,8.2459,8.2741,8.2846,8.2494,8.2506,8.2404,8.2086,8.1861,8.148,8.0774,8.0813,8.0489,7.9551,7.8748,7.7963,7.7233,7.6775,7.6157,7.5361,7.527,7.4868,7.4137,7.3314,7.2632,7.2023,7.1234,7.0933,7.0996,7.1114,7.1154,7.119,7.168,7.2109,7.2462,7.2848,7.2908,7.2779,7.2126,7.1649,7.1205,7.0683,7.0514,7.0514,7.0514,7.0514,7.0443,7.0077,6.9935,6.9666,6.8115,6.7203,6.6667,6.6453,6.648,6.6533,6.6533,6.6533,6.6556,6.663,6.5749,6.4795,6.4454,6.3454,6.2252,6.1014,6.0514,5.997,5.9174,5.8739,0.0,5.8993,5.9789,6.076,6.1883,6.2951,6.3914,6.4717,6.5387,6.5833,6.5955,6.6366,6.6739,6.7143,6.7143,6.7333,6.77,6.77,6.77,6.77,6.7767,6.8419,6.9655,7.0136,7.1132,7.2529,7.298,7.3278,7.3385,7.3385,7.3385,7.3385,7.3385,7.3868,7.4612,7.4612,7.5095,7.5838,7.6246,7.6395,7.6469,8.3197,8.3197,8.3197,8.3197,8.3197,8.3197,8.3197,8.3197,8.3197,8.3197,8.2835,8.2603,8.2603,8.2266,8.1713,8.0896,8.0912,8.0641,7.9883,7.9309,7.8624,7.7803,7.6911,7.601,7.5215,7.5215,7.4823,7.3993,7.3182,7.2476,7.1828,7.1076,7.0794,7.09,7.0949,7.103,7.1253,7.1917,7.2437,7.2796,7.3365,7.3522,7.3284,7.2445,7.1956,7.1593,7.08,7.0514,7.0514,7.0514,7.0514,7.0514,7.0514,7.0514,7.0229,6.8801,6.7461,6.6436,6.6333,6.6284,6.6284,6.6284,6.6284,6.6315,6.6421,6.5854,6.5163,6.4715,6.4019,6.3026,6.16,6.1195,6.0833,6.0007,0.0,5.9934,6.0115,6.1376,6.2426,6.2788,6.4051,6.5055,6.553,6.6329,6.6845,6.6966,6.76,6.7921,6.77,6.77,6.77,6.77,6.77,6.77,6.77,6.77,6.8508,7.0117,7.019,7.1204,7.2941,7.3084,7.3232,7.337,7.341,7.3385,7.3385,7.3385,7.3757,7.4314,7.4314,7.4686,7.5274,7.5466,7.5534,7.5534,8.3197,8.3197,8.3197,8.3197,8.3197,8.3197,8.3197,8.3197,8.3197,8.3197,8.3184,8.3125,8.3125,8.3334,8.283,8.1289,8.1554,8.1196,7.9712,7.9747,7.9435,7.866,7.7197,7.601,7.5215,7.5215,7.4823,7.3993,7.3182,7.2423,7.1682,7.0888,7.054,7.0557,7.0727,7.1188,7.1841,7.211,7.3048,7.4405,7.4276,7.4233,7.4099,7.3109,7.2316,7.1593,7.08,7.0514,7.0514,7.0514,7.0514,7.0514,7.0514,7.0514,7.0327,6.9471,6.814,6.6852,6.6415,6.6284,6.6284,6.6284,6.6284,6.6284,6.63,6.5786,6.527,6.5249,6.4723,6.4041,6.3171,6.2397,6.1666,6.0833,0.0,0.0,6.1738,6.2585,6.3642,6.5156,6.5546,6.6299,6.7782,6.8281,6.8494,6.8457,6.8662,6.8495,6.7737,6.77,6.77,6.77,6.77,6.77,6.77,6.77,6.8508,7.0117,7.0124,7.1045,7.273,7.2934,7.3084,7.3225,7.3364,7.3385,7.3385,7.3385,7.3423,7.3497,7.3497,7.3534,7.3683,7.4426,7.4686,7.4797,8.3197,8.3197,8.3197,8.3197,8.3197,8.3197,8.3197,8.3197,8.3197,8.3197,8.3197,8.3197,8.3197,8.3286,8.2973,8.2022,8.1662,8.1128,8.0338,7.994,7.9193,7.8008,7.6947,7.601,7.5215,7.5215,7.4823,7.3993,7.3672,7.3155,7.2379,7.1585,7.1228,7.1236,7.1305,7.151,7.184,7.2893,7.3671,7.4279,7.4682,7.4869,7.4753,7.3886,7.3048,7.2263,7.1522,7.0907,7.0514,7.0514,7.0514,7.0514,7.0514,7.0514,7.0327,6.9534,6.8516,6.7621,6.7473,6.6718,6.6002,6.6002,6.6002,6.599,6.6099,6.591,6.5643,6.537,6.5134,6.4752,6.4056,6.3671,6.3382,6.3092,0.0,6.3128,6.3454,6.4185,6.491,6.5518,6.6511,6.7455,6.8124,6.8786,6.9004,6.8649,6.8675,6.8429,6.7731,6.77,6.77,6.77,6.77,6.77,6.77,6.77,6.8508,7.0117,7.0117,7.0994,7.2709,7.2772,7.2968,7.3199,7.3258,7.3338,7.3385,7.3385,7.3385,7.3385,7.3385,7.3385,7.3423,7.372,7.3868,7.3906,8.3197,8.3197,8.3197,8.3197,8.3197,8.3197,8.3197,8.3197,8.3197,8.3197,8.3197,8.3197,8.3197,8.3197,8.2948,8.2348,8.1849,8.1278,8.0572,7.9933,7.8963,7.757,7.7009,7.6259,7.5215,7.5215,7.493,7.4386,7.4136,7.3708,7.3155,7.2414,7.2057,7.2057,7.2057,7.2191,7.2477,7.3565,7.4136,7.4421,7.4966,7.5215,7.5108,7.4314,7.3681,7.3083,7.2307,7.1549,7.0871,7.0871,7.0728,7.0514,7.0514,7.0514,7.0327,6.9534,6.89,6.8409,6.8167,6.7346,6.6482,6.6232,6.6161,6.6121,6.5982,6.5982,6.5904,6.558,6.5593,6.548,6.4809,6.4729,6.4693,6.4439,6.462,6.4765,6.4765,6.5482,6.5989,6.5989,6.7177,6.8127,6.8493,6.9271,6.9528,6.8902,6.8943,6.863,6.7767,6.77,6.77,6.77,6.7958,6.8098,6.8098,6.8098,6.8758,7.0117,7.0367,7.1224,7.2638,7.2688,7.2821,7.3057,7.3111,7.3219,7.3351,7.3351,7.3346,7.3385,7.3385,7.3385,7.3385,7.3385,7.3385,7.3385,8.3197,8.3197,8.3197,8.3197,8.3197,8.3197,8.3197,8.3197,8.3197,8.3197,8.3197,8.3197,8.3197,8.3197,8.2928,8.2166,8.2302,8.1726,8.021,7.9797,7.8999,7.757,7.7508,7.6795,7.5251,7.5215,7.5215,7.5215,7.4386,7.3993,7.3993,7.3191,7.2807,7.2807,7.2807,7.3253,7.3993,7.3984,7.4457,7.5215,7.5215,7.5215,7.5108,7.4314,7.3984,7.3886,7.3083,7.2343,7.17,7.17,7.1156,7.0514,7.0514,7.0514,7.0327,6.9534,6.932,6.9141,6.8337,6.8131,6.7953,6.7204,6.6989,6.6775,6.5982,6.5903,6.5985,6.5985,6.6269,6.6237,6.5443,6.5475,6.5337,6.4541,6.5084,6.5591,6.5591,6.6315,6.6779,6.6779,6.7503,6.8307,6.9127,7.0061,7.0282,6.9468,6.9712,6.9266,6.7804,6.77,6.77,6.7737,6.8495,6.8892,6.8892,6.8892,6.9295,7.0117,7.091,7.1711,7.2496,7.2638,7.2709,7.2716,7.292,7.3071,7.3199,7.3199,7.3285,7.3385,7.3385,7.3385,7.3385,7.3385,7.3385,7.3385,8.3175,8.3197,8.3197,8.3197,8.3197,8.3197,8.3197,8.3197,8.3197,8.3197,8.3197,8.3197,8.3197,8.3197,8.3092,8.2892,8.2442,8.1601,8.02,8.0161,7.9493,7.8002,7.7642,7.7045,7.6045,7.551,7.5215,7.5215,7.4966,7.4859,7.4823,7.4038,7.3645,7.3645,7.3645,7.3716,7.383,7.4373,7.469,7.4772,7.4772,7.4857,7.4951,7.4738,7.4384,7.3958,7.3717,7.3146,7.2379,7.1879,7.1558,7.1228,7.0693,7.0514,7.0434,7.022,7.0149,7.0077,6.9836,6.9765,6.9444,6.8096,6.7382,6.6926,6.6704,6.6236,6.5879,6.5998,6.6063,6.6128,6.6035,6.6142,6.6138,6.5922,6.6198,6.646,6.646,6.6634,6.6779,6.6779,6.8025,6.8938,6.9199,7.0426,7.0967,7.0275,6.9449,6.9057,6.9223,6.8807,6.8788,6.9382,6.9633,6.9743,6.9743,6.9743,7.0146,7.0947,7.1197,7.1711,7.2488,7.2532,7.261,7.2709,7.2758,7.2961,7.3199,7.3199,7.3285,7.3385,7.3385,7.3385,7.3385,7.3385,7.3385,7.3385,8.3019,8.3064,8.3097,8.3186,8.3197,8.3197,8.3197,8.3197,8.3197,8.3197,8.3197,8.3197,8.3197,8.3197,8.3197,8.3197,8.2517,8.1775,8.0954,8.0495,7.9877,7.8933,7.8154,7.7264,7.6281,7.5856,7.551,7.5215,7.5215,7.5215,7.518,7.4716,7.4457,7.4457,7.4384,7.4293,7.4219,7.4606,7.4707,7.4584,7.4584,7.4669,7.4782,7.4782,7.4619,7.4348,7.4348,7.3904,7.3217,7.2762,7.2191,7.1558,7.0764,7.0514,7.0514,7.0514,7.0514,7.0514,7.0514,7.0514,7.0264,6.9301,6.8239,6.7346,6.7061,6.6383,6.5828,6.5895,6.5974,6.6052,6.6161,6.6307,6.6406,6.6406,6.6578,6.6683,6.6683,6.6742,6.6779,6.6779,6.8214,6.9199,6.9199,7.0589,7.1239,7.0646,6.9544,6.9164,6.9748,6.9395,6.9436,6.9989,7.0312,7.0524,7.058,7.0881,7.1138,7.1307,7.1637,7.2048,7.2488,7.2488,7.2539,7.2617,7.2617,7.28,7.3118,7.3118,7.3239,7.3385,7.3385,7.3385,7.3385,7.3385,7.3385,7.3385,8.2818,8.2864,8.2931,8.3109,8.3142,8.3142,8.3142,8.3142,8.3142,8.3142,8.3142,8.3142,8.3142,8.3142,8.3142,8.3142,8.2522,8.2111,8.2063,8.0922,8.0193,8.0073,7.8913,7.7591,7.6088,7.6244,7.5973,7.5161,7.517,7.5179,7.5161,7.5134,7.5161,7.5125,7.495,7.4866,7.4838,7.465,7.4546,7.4536,7.4536,7.4546,7.4565,7.4565,7.4697,7.4875,7.4875,7.4515,7.4046,7.3975,7.2986,7.1612,7.0891,7.0597,7.057,7.0587,7.0524,7.0488,7.0506,7.0514,7.0478,7.0407,6.9229,6.7917,6.7239,6.6418,6.5804,6.5804,6.5887,6.5962,6.5962,6.6217,6.6369,6.6369,6.6556,6.6647,6.6619,6.6761,6.6865,6.6873,6.8235,6.9236,6.9308,7.0633,7.1267,7.0732,6.994,6.9608,6.9785,6.9727,6.9814,7.0082,7.0814,7.1245,7.1396,7.21,7.2107,7.1417,7.2158,7.2488,7.2488,7.2488,7.2488,7.2488,7.2488,7.2704,7.2996,7.2996,7.3165,7.3385,7.3385,7.3385,7.3385,7.3385,7.3385,7.3423,8.2533,8.2579,8.259,8.2647,8.2659,8.2659,8.2659,8.2659,8.2659,8.2659,8.2659,8.2659,8.2659,8.2659,8.2659,8.2659,8.2519,8.2215,8.181,8.1515,8.0924,7.9912,7.9745,7.867,7.6511,7.6064,7.5556,7.4968,7.4801,7.4801,7.4959,7.4791,7.4716,7.4716,7.4678,7.4574,7.4431,7.4383,7.4267,7.4137,7.4137,7.4209,7.4364,7.4364,7.4489,7.4659,7.4659,7.4572,7.4361,7.374,7.2898,7.2056,7.1879,7.1445,7.1011,7.1162,7.0743,7.0289,7.0471,7.0514,7.0363,6.9721,6.8837,6.806,6.7917,6.6803,6.5804,6.5804,6.5828,6.5859,6.5859,6.6467,6.7016,6.7016,6.7644,6.7954,6.7343,6.7418,6.7496,6.7511,6.85,6.9453,7.0097,7.0951,7.1438,7.1324,7.0722,7.0625,7.1273,7.0812,7.0857,7.1514,7.1712,7.1903,7.2094,7.2248,7.2307,7.2232,7.2415,7.2488,7.2488,7.2488,7.2488,7.2488,7.2488,7.2704,7.2996,7.2996,7.3165,7.3385,7.3385,7.3385,7.3385,7.3385,7.3385,7.3571,8.2812,8.2558,8.235,8.2476,8.2499,8.2499,8.2499,8.2499,8.2499,8.2499,8.2499,8.2499,8.2499,8.2499,8.2499,8.2499,8.2499,8.2382,8.2088,8.174,8.1107,8.0182,7.989,7.8872,7.7031,7.6317,7.5581,7.4754,7.4641,7.465,7.4754,7.4641,7.4584,7.4584,7.4489,7.4402,7.4296,7.419,7.4108,7.401,7.401,7.4079,7.4151,7.4151,7.4277,7.445,7.445,7.4508,7.4478,7.3689,7.3114,7.2698,7.2309,7.1672,7.1124,7.1223,7.0753,7.0219,7.0315,7.0445,7.0291,6.9498,6.8686,6.8024,6.7668,6.666,6.5804,6.5804,6.5804,6.5804,6.5804,6.6526,6.7091,6.7091,6.7892,6.8383,6.7996,6.8031,6.8141,6.812,6.9033,6.9976,7.0842,7.1277,7.1487,7.1487,7.121,7.1221,7.162,7.1334,7.1382,7.1895,7.1903,7.2032,7.2307,7.2307,7.238,7.2488,7.2488,7.2488,7.2488,7.2488,7.2488,7.2488,7.2488,7.2704,7.2996,7.2996,7.3165,7.3385,7.3385,7.3385,7.3385,7.3385,7.3385,7.3571,8.3212,8.2694,8.2279,8.2361,8.2373,8.2373,8.2373,8.2373,8.2373,8.2373,8.2373,8.2373,8.2373,8.2373,8.2373,8.2373,8.2373,8.2396,8.243,8.1816,8.1187,8.0655,7.9952,7.8941,7.7578,7.6858,7.5921,7.4748,7.4569,7.4508,7.4536,7.4498,7.4489,7.4479,7.4316,7.4248,7.4229,7.4088,7.401,7.401,7.401,7.401,7.401,7.401,7.4083,7.4248,7.4248,7.4345,7.4408,7.3727,7.3506,7.3409,7.2702,7.1899,7.1227,7.1228,7.0717,7.0106,7.0141,7.0263,7.0206,6.9447,6.8644,6.7876,6.7168,6.6383,6.5804,6.5804,6.5804,6.5804,6.5804,6.6561,6.7204,6.7204,6.806,6.8714,6.8571,6.8681,6.875,6.8758,6.9677,7.0618,7.1403,7.1479,7.1487,7.1487,7.1487,7.1487,7.1487,7.1487,7.1593,7.1726,7.1734,7.1895,7.227,7.2233,7.2321,7.2488,7.2488,7.2488,7.2488,7.2488,7.2488,7.2488,7.2488,7.2704,7.2996,7.2996,7.3165,7.3385,7.3385,7.3385,7.3385,7.3385,7.3385,7.3534,8.3088,8.2859,8.2583,8.2009,8.1871,8.1871,8.1871,8.1871,8.1871,8.1871,8.1871,8.1871,8.1871,8.1871,8.1871,8.1871,8.1871,8.1965,8.2129,8.2037,8.176,8.1211,8.0656,7.9659,7.8132,7.7537,7.6604,7.5303,7.4493,7.4151,7.4335,7.4151,7.4088,7.4088,7.4059,7.4049,7.4049,7.402,7.401,7.401,7.401,7.401,7.401,7.401,7.403,7.4049,7.4049,7.4069,7.4053,7.3948,7.3913,7.3913,7.3772,7.2778,7.1657,7.1819,7.0825,6.9715,6.9876,6.9973,6.9822,6.9189,6.8477,6.7745,6.7127,6.6383,6.5804,6.5804,6.5804,6.5804,6.5804,6.6989,6.7953,6.7953,6.9211,6.9969,6.9282,6.9333,6.9449,6.9473,7.0441,7.1192,7.1316,7.1444,7.1487,7.1487,7.1487,7.1487,7.1487,7.1487,7.1502,7.1526,7.1526,7.169,7.2025,7.2033,7.2218,7.2488,7.2488,7.2488,7.2488,7.2488,7.2488,7.2488,7.2488,7.2704,7.2996,7.2996,7.3165,7.3385,7.3385,7.3385,7.3385,7.3385,7.3385,7.3534,8.4038,8.3591,8.3075,8.2318,8.2301,8.2293,8.1845,8.181,8.181,8.181,8.181,8.181,8.181,8.181,8.181,8.181,8.181,8.1858,8.193,8.193,8.1689,8.117,8.0902,8.0176,7.8904,7.8195,7.7207,7.5906,7.5043,7.4446,7.4112,7.4049,7.401,7.401,7.401,7.401,7.401,7.401,7.401,7.401,7.401,7.401,7.401,7.401,7.401,7.401,7.401,7.401,7.401,7.401,7.401,7.401,7.401,7.3238,7.2239,7.1938,7.1091,7.0171,6.9838,6.9804,6.9725,6.906,6.8652,6.8136,6.7078,6.6549,6.6218,6.5859,6.5804,6.5804,6.5804,6.7053,6.8096,6.8096,6.9444,7.0363,7.0006,7.0038,7.0131,7.0276,7.0712,7.1101,7.1268,7.1348,7.1428,7.1479,7.1487,7.1487,7.1487,7.1487,7.1487,7.1487,7.1487,7.1659,7.1995,7.2003,7.2152,7.2488,7.2488,7.2488,7.2488,7.2488,7.2488,7.2488,7.2488,7.2704,7.2996,7.2996,7.3165,7.3385,7.3385,7.3385,7.346,7.3906,7.4054,7.4128]},{"header":{"parameterUnit":"m.s-1","parameterCategory":1,"la1":30.6,"la2":28.766,"lo1":-90.7593,"lo2":-88.6598,"dy":0.0162,"dx":0.0183,"nx":116,"ny":114,"refTime":"2023-10-03T18:00:00:Z","depth":0,"parameterNumber":3,"parameterNumberName":"V-component_of_WINDS"},"data":[0.0,0.0,0.0,0.0,0.0,0.0,0.0,0.0,0.0,0.0,0.0,0.0,0.0,0.0,0.0,0.0,0.0,0.0,0.0,0.0,0.0,0.0,0.0,0.0,0.0,0.0,0.0,0.0,0.0,0.0,0.0,0.0,0.0,0.0,0.0,0.0,0.0,0.0,0.0,0.0,0.0,0.0,0.0,0.0,0.0,0.0,0.0,0.0,0.0,0.0,0.0,0.0,0.0,0.0,0.0,0.0,0.0,0.0,0.0,0.0,0.0,0.0,0.0,0.0,0.0,0.0,0.0,0.0,0.0,0.0,0.0,0.0,0.0,0.0,0.0,0.0,0.0,0.0,0.0,0.0,0.0,0.0,0.0,0.0,0.0,0.0,0.0,0.0,0.0,0.0,0.0,0.0,0.0,0.0,0.0,0.0,0.0,0.0,0.0,0.0,0.0,0.0,0.0,0.0,0.0,0.0,0.0,0.0,0.0,0.0,0.0,0.0,0.0,0.0,0.0,0.0,0.0,0.0,0.0,0.0,0.0,0.0,0.0,0.0,0.0,0.0,0.0,0.0,0.0,0.0,0.0,0.0,0.0,0.0,0.0,0.0,0.0,0.0,0.0,0.0,0.0,0.0,0.0,0.0,0.0,0.0,0.0,0.0,0.0,0.0,0.0,0.0,0.0,0.0,0.0,0.0,0.0,0.0,0.0,0.0,0.0,0.0,0.0,0.0,0.0,0.0,0.0,0.0,0.0,0.0,0.0,0.0,0.0,0.0,0.0,0.0,0.0,0.0,0.0,0.0,0.0,0.0,0.0,0.0,0.0,0.0,0.0,0.0,0.0,0.0,0.0,0.0,0.0,0.0,0.0,0.0,0.0,0.0,0.0,0.0,0.0,0.0,0.0,0.0,0.0,0.0,0.0,0.0,0.0,0.0,0.0,0.0,0.0,0.0,0.0,0.0,0.0,0.0,0.0,0.0,0.0,0.0,0.0,0.0,0.0,0.0,0.0,0.0,0.0,0.0,0.0,0.0,0.0,0.0,0.0,0.0,0.0,0.0,0.0,0.0,0.0,0.0,0.0,0.0,0.0,0.0,0.0,0.0,0.0,0.0,0.0,0.0,0.0,0.0,0.0,0.0,0.0,0.0,0.0,0.0,0.0,0.0,0.0,0.0,0.0,0.0,0.0,0.0,0.0,0.0,0.0,0.0,0.0,0.0,0.0,0.0,0.0,0.0,0.0,0.0,0.0,0.0,0.0,0.0,0.0,0.0,0.0,0.0,0.0,0.0,0.0,0.0,0.0,0.0,0.0,0.0,0.0,0.0,0.0,0.0,0.0,0.0,0.0,0.0,0.0,0.0,0.0,0.0,0.0,0.0,0.0,0.0,0.0,0.0,0.0,0.0,0.0,0.0,0.0,0.0,0.0,0.0,0.0,0.0,0.0,0.0,0.0,0.0,0.0,0.0,0.0,0.0,0.0,0.0,0.0,0.0,0.0,0.0,0.0,0.0,0.0,0.0,0.0,0.0,0.0,0.0,0.0,0.0,0.0,0.0,0.0,0.0,0.0,0.0,0.0,0.0,0.0,0.0,0.0,0.0,0.0,0.0,0.0,0.0,0.0,0.0,0.0,0.0,0.0,0.0,0.0,0.0,0.0,0.0,0.0,0.0,0.0,0.0,0.0,0.0,0.0,0.0,0.0,0.0,0.0,0.0,0.0,0.0,0.0,0.0,0.0,0.0,0.0,0.0,0.0,0.0,0.0,0.0,0.0,0.0,0.0,0.0,0.0,0.0,0.0,0.0,0.0,0.0,0.0,0.0,0.0,0.0,0.0,0.0,0.0,0.0,0.0,0.0,0.0,0.0,0.0,0.0,0.0,0.0,0.0,0.0,0.0,0.0,0.0,0.0,0.0,0.0,0.0,0.0,0.0,0.0,0.0,0.0,0.0,0.0,0.0,0.0,0.0,0.0,0.0,0.0,0.0,0.0,0.0,0.0,0.0,0.0,0.0,0.0,0.0,0.0,0.0,0.0,0.0,0.0,0.0,0.0,0.0,0.0,0.0,0.0,0.0,0.0,0.0,0.0,0.0,0.0,0.0,0.0,0.0,0.0,0.0,0.0,0.0,0.0,0.0,0.0,0.0,0.0,0.0,0.0,0.0,0.0,0.0,0.0,0.0,0.0,0.0,0.0,0.0,0.0,0.0,0.0,0.0,0.0,0.0,0.0,0.0,0.0,0.0,0.0,0.0,0.0,0.0,0.0,0.0,0.0,0.0,0.0,0.0,0.0,0.0,0.0,0.0,0.0,0.0,0.0,0.0,0.0,0.0,0.0,0.0,0.0,0.0,0.0,0.0,0.0,0.0,0.0,0.0,0.0,0.0,0.0,0.0,0.0,0.0,0.0,0.0,0.0,0.0,0.0,0.0,0.0,0.0,0.0,0.0,0.0,0.0,0.0,0.0,0.0,0.0,0.0,0.0,0.0,0.0,0.0,0.0,0.0,0.0,0.0,0.0,0.0,0.0,0.0,0.0,0.0,0.0,0.0,0.0,0.0,0.0,0.0,0.0,0.0,0.0,0.0,0.0,0.0,0.0,0.0,0.0,0.0,0.0,0.0,0.0,0.0,0.0,0.0,0.0,0.0,0.0,0.0,0.0,0.0,0.0,0.0,0.0,0.0,0.0,0.0,0.0,0.0,0.0,0.0,0.0,0.0,0.0,0.0,0.0,0.0,0.0,0.0,0.0,0.0,0.0,0.0,0.0,0.0,0.0,0.0,0.0,0.0,0.0,0.0,0.0,0.0,0.0,0.0,0.0,0.0,0.0,0.0,0.0,0.0,0.0,0.0,0.0,0.0,0.0,0.0,0.0,0.0,0.0,0.0,0.0,0.0,0.0,0.0,0.0,0.0,0.0,0.0,0.0,0.0,0.0,0.0,0.0,0.0,0.0,0.0,0.0,0.0,0.0,0.0,0.0,0.0,0.0,0.0,0.0,0.0,0.0,0.0,0.0,0.0,0.0,0.0,0.0,0.0,0.0,0.0,0.0,0.0,0.0,0.0,0.0,0.0,0.0,0.0,0.0,0.0,0.0,0.0,0.0,0.0,0.0,0.0,0.0,0.0,0.0,0.0,0.0,0.0,0.0,0.0,0.0,0.0,0.0,0.0,0.0,0.0,0.0,0.0,0.0,0.0,0.0,0.0,0.0,0.0,0.0,0.0,0.0,0.0,0.0,0.0,0.0,0.0,0.0,0.0,0.0,0.0,0.0,0.0,0.0,0.0,0.0,0.0,0.0,0.0,0.0,0.0,0.0,0.0,0.0,0.0,0.0,0.0,0.0,0.0,0.0,0.0,0.0,0.0,0.0,0.0,0.0,0.0,0.0,0.0,0.0,0.0,0.0,0.0,0.0,0.0,0.0,0.0,0.0,0.0,0.0,0.0,0.0,0.0,0.0,0.0,0.0,0.0,0.0,0.0,0.0,0.0,0.0,0.0,0.0,0.0,0.0,0.0,0.0,0.0,0.0,0.0,0.0,0.0,0.0,0.0,0.0,0.0,0.0,0.0,0.0,0.0,0.0,0.0,0.0,0.0,0.0,0.0,0.0,0.0,0.0,0.0,0.0,0.0,0.0,0.0,0.0,0.0,0.0,0.0,0.0,0.0,0.0,0.0,0.0,0.0,0.0,0.0,0.0,0.0,0.0,0.0,0.0,0.0,0.0,0.0,0.0,0.0,0.0,0.0,0.0,0.0,0.0,0.0,0.0,0.0,0.0,0.0,0.0,0.0,0.0,0.0,0.0,0.0,0.0,0.0,0.0,0.0,0.0,0.0,0.0,0.0,0.0,0.0,0.0,0.0,0.0,0.0,0.0,0.0,0.0,0.0,0.0,0.0,0.0,0.0,0.0,0.0,0.0,0.0,0.0,0.0,0.0,0.0,0.0,0.0,0.0,0.0,0.0,0.0,0.0,0.0,0.0,0.0,0.0,0.0,0.0,0.0,0.0,0.0,0.0,0.0,0.0,0.0,0.0,0.0,0.0,0.0,0.0,0.0,0.0,0.0,0.0,0.0,0.0,0.0,0.0,0.0,0.0,0.0,0.0,0.0,0.0,0.0,0.0,0.0,0.0,0.0,0.0,0.0,0.0,0.0,0.0,0.0,0.0,0.0,0.0,0.0,0.0,0.0,0.0,0.0,0.0,0.0,0.0,0.0,0.0,0.0,0.0,0.0,0.0,0.0,0.0,0.0,0.0,0.0,0.0,0.0,0.0,0.0,0.0,0.0,0.0,0.0,0.0,0.0,0.0,0.0,0.0,0.0,0.0,0.0,0.0,0.0,0.0,0.0,0.0,0.0,0.0,0.0,0.0,0.0,0.0,0.0,0.0,0.0,0.0,0.0,0.0,0.0,0.0,0.0,0.0,0.0,0.0,0.0,0.0,0.0,0.0,0.0,0.0,0.0,0.0,0.0,0.0,0.0,0.0,0.0,0.0,0.0,0.0,0.0,0.0,0.0,0.0,0.0,0.0,0.0,0.0,0.0,0.0,0.0,0.0,0.0,0.0,0.0,0.0,0.0,0.0,0.0,0.0,0.0,0.0,0.0,0.0,0.0,0.0,0.0,0.0,0.0,0.0,0.0,0.0,0.0,0.0,0.0,0.0,0.0,0.0,0.0,0.0,0.0,0.0,0.0,0.0,0.0,0.0,0.0,0.0,0.0,0.0,0.0,0.0,0.0,0.0,0.0,0.0,0.0,0.0,0.0,0.0,0.0,0.0,0.0,0.0,0.0,0.0,0.0,0.0,0.0,0.0,0.0,0.0,0.0,0.0,0.0,0.0,0.0,0.0,0.0,0.0,0.0,0.0,0.0,0.0,0.0,0.0,0.0,0.0,0.0,0.0,0.0,0.0,0.0,0.0,0.0,0.0,0.0,0.0,0.0,0.0,0.0,0.0,0.0,0.0,0.0,0.0,0.0,0.0,0.0,0.0,0.0,0.0,0.0,0.0,0.0,0.0,0.0,0.0,0.0,0.0,0.0,0.0,0.0,0.0,0.0,0.0,0.0,0.0,0.0,0.0,0.0,0.0,0.0,0.0,0.0,0.0,0.0,0.0,0.0,0.0,0.0,0.0,0.0,0.0,0.0,0.0,0.0,0.0,0.0,0.0,0.0,0.0,0.0,0.0,0.0,0.0,0.0,0.0,0.0,0.0,0.0,0.0,0.0,0.0,0.0,0.0,0.0,0.0,0.0,0.0,0.0,0.0,0.0,0.0,0.0,0.0,0.0,0.0,0.0,0.0,0.0,0.0,0.0,0.0,0.0,0.0,0.0,0.0,0.0,0.0,0.0,0.0,0.0,0.0,0.0,0.0,0.0,0.0,0.0,0.0,0.0,0.0,0.0,0.0,0.0,0.0,0.0,0.0,0.0,0.0,0.0,0.0,0.0,0.0,0.0,0.0,0.0,0.0,0.0,0.0,0.0,0.0,0.0,0.0,0.0,0.0,0.0,0.0,0.0,0.0,0.0,0.0,0.0,0.0,0.0,0.0,0.0,0.0,0.0,0.0,0.0,0.0,0.0,0.0,0.0,0.0,0.0,0.0,0.0,0.0,0.0,0.0,0.0,0.0,0.0,0.0,0.0,0.0,0.0,0.0,0.0,0.0,0.0,0.0,0.0,0.0,0.0,0.0,0.0,0.0,0.0,0.0,0.0,0.0,0.0,0.0,0.0,0.0,0.0,0.0,0.0,0.0,0.0,0.0,0.0,0.0,0.0,0.0,0.0,0.0,0.0,0.0,0.0,0.0,0.0,0.0,0.0,0.0,0.0,0.0,0.0,0.0,0.0,0.0,0.0,0.0,0.0,0.0,0.0,0.0,0.0,0.0,0.0,0.0,0.0,0.0,0.0,0.0,0.0,0.0,0.0,0.0,0.0,0.0,0.0,0.0,0.0,0.0,0.0,0.0,0.0,0.0,0.0,0.0,0.0,0.0,0.0,0.0,0.0,0.0,0.0,0.0,0.0,0.0,0.0,0.0,0.0,0.0,0.0,0.0,0.0,0.0,0.0,0.0,0.0,0.0,0.0,0.0,0.0,0.0,0.0,0.0,0.0,0.0,0.0,0.7811,0.0,0.0,0.0,0.0,0.0,0.0,0.0,0.0,0.0,0.0,0.0,0.0,0.0,0.0,0.0,0.0,0.0,0.0,0.0,0.0,0.0,0.0,0.0,0.0,0.0,0.0,0.0,0.0,0.0,0.0,0.0,0.0,0.0,0.0,0.0,0.0,0.0,0.0,0.0,0.9965,1.0363,1.0815,1.0704,1.0588,1.0439,0.0,0.0,0.0,0.0,0.0,0.0,0.0,0.0,0.0,0.0,0.0,0.0,0.0,0.0,0.0,0.0,0.0,0.0,0.0,0.0,0.0,0.0,0.0,0.0,0.0,0.0,0.0,0.0,0.0,0.0,0.0,0.0,0.0,0.0,0.0,0.0,0.0,0.0,0.0,0.0,0.0,0.0,0.0,0.0,0.0,0.0,0.0,0.0,0.0,0.0,0.0,0.0,0.0,0.0,0.0,0.0,0.0,0.0,0.0,0.0,0.0,0.0,0.0,0.0,0.0,0.0,0.0,0.0,0.0,0.0,0.0,0.8263,0.0,0.0,0.0,0.0,0.0,0.0,0.0,0.0,0.0,0.0,0.0,0.0,0.0,0.0,0.0,0.0,0.0,0.0,0.0,0.0,0.0,0.0,0.0,0.0,0.847,0.887,0.8874,0.8938,0.0,0.0,0.0,0.0,0.0,0.0,0.0,0.9543,0.9855,1.0084,1.0762,1.1317,1.1777,1.2056,1.1862,1.126,1.1002,0.0,0.0,0.0,0.0,0.0,0.0,0.0,0.0,0.0,0.0,0.0,0.0,0.0,0.0,0.0,0.0,0.0,0.0,0.0,0.0,0.0,0.0,0.0,0.0,0.0,0.0,0.0,0.0,0.0,0.0,0.0,0.0,0.0,0.0,0.0,0.0,0.0,0.0,0.0,0.0,0.0,0.0,0.0,0.0,0.0,0.0,0.0,0.0,0.0,0.0,0.0,0.0,0.0,0.0,0.0,0.0,0.0,0.0,0.0,0.0,0.0,0.0,0.0,1.0748,1.099,1.1193,1.0859,1.0822,1.098,0.9825,0.9196,0.8955,0.8677,0.0,0.0,0.0,0.0,0.0,0.0,0.0,0.0,0.0,0.0,0.0,0.0,0.0,0.0,0.0,0.0,0.0,0.0,0.0,0.0,0.0,0.8496,0.8883,0.9286,0.9157,0.9148,0.9343,0.0,0.0,0.0,0.0,0.0,0.9535,1.0024,1.048,1.0854,1.203,1.2715,1.2904,1.3444,1.3657,1.3518,1.2227,1.1645,1.1629,0.0,0.0,0.0,0.0,0.0,0.0,0.0,0.0,0.0,0.0,0.0,0.0,0.0,0.0,0.0,0.0,0.0,0.0,0.0,0.0,0.0,0.0,0.0,0.0,0.0,0.0,0.0,0.0,0.0,0.0,0.0,0.0,0.0,0.0,0.0,0.0,0.0,0.0,0.0,0.0,0.0,0.838,0.8417,0.0,0.0,0.0,0.0,0.0,0.0,0.0,0.0,0.0,0.0,0.0,0.0,0.0,1.0537,1.0779,1.1206,1.1422,1.1429,1.1818,1.2002,1.2045,1.2217,1.2319,1.2322,1.1738,0.0,0.9653,0.9311,0.0,0.0,0.0,0.0,0.0,0.0,0.0,0.0,0.0,0.0,0.0,0.0,0.0,0.0,0.0,0.0,0.0,0.0,0.0,0.0,0.0,0.8966,0.9409,0.9816,0.9835,0.9871,0.9957,0.9879,0.0,0.0,0.0,0.9973,1.0053,1.0496,1.1265,1.2351,1.3364,1.397,1.4232,1.449,1.4611,1.4585,1.3948,1.3412,1.3009,1.2609,0.0,0.0,0.0,0.0,0.0,0.0,0.0,0.0,0.0,0.0,0.0,0.0,0.0,0.0,0.0,0.0,0.0,0.0,0.0,0.0,0.0,0.0,0.0,0.0,0.0,0.0,0.0,0.0,0.0,0.0,0.0,0.0,0.0,0.0,0.0,0.0,0.0,0.0,0.0,0.9062,0.942,0.9592,0.9562,0.9488,0.0,0.0,0.0,0.0,0.0,0.0,0.0,0.0,0.0,1.1507,1.187,1.2141,1.2357,1.2789,1.3005,1.3011,1.3258,1.3428,1.3485,1.3346,1.3315,1.3363,1.2816,1.2078,1.1206,1.0381,0.9946,0.9791,0.0,0.0,0.0,0.0,0.8996,0.877,0.0,0.0,0.0,0.0,0.0,0.0,0.0,0.0,0.0,0.0,0.0,0.0,0.9021,0.951,0.9985,1.0422,1.0517,1.0563,1.0604,1.0482,1.0358,1.0268,1.03,1.0401,1.0553,1.1243,1.2316,1.377,1.4558,1.5105,1.5381,1.5543,1.5615,1.5615,1.5669,1.5167,1.4264,1.3874,1.3327,1.267,0.0,0.0,0.0,0.0,0.0,0.0,0.0,0.0,0.0,0.0,0.0,0.0,0.0,0.0,0.0,0.0,0.0,0.0,0.0,0.0,0.0,0.0,0.0,0.0,0.0,0.0,0.0,0.0,0.0,0.0,0.0,0.0,0.0,0.0,0.0,0.0,0.0,1.0062,1.036,1.069,1.0646,1.0507,0.0,0.0,0.0,0.0,0.0,0.0,1.1649,1.2159,1.2514,1.2684,1.3207,1.3553,1.3682,1.4055,1.4287,1.4328,1.4477,1.4604,1.4717,1.4392,1.431,1.4385,1.3807,1.3332,1.2882,1.1528,1.0778,1.0465,1.0325,1.0158,0.9974,1.0054,0.9984,0.9853,0.0,0.0,0.0,0.0,0.0,0.0,0.0,0.0,0.0,0.0,0.0,0.9048,0.9766,1.0155,1.058,1.1098,1.1043,1.1027,1.1153,1.0685,1.0401,1.0393,1.0569,1.0767,1.0968,1.249,1.3761,1.4727,1.5533,1.5995,1.6159,1.6722,1.7001,1.7011,1.7199,1.6453,1.5018,1.4689,1.4291,1.3849,1.3049,0.0,0.0,0.0,0.0,0.0,0.0,0.0,0.0,0.0,0.0,0.0,0.0,0.0,0.0,0.0,0.0,0.0,0.0,0.0,0.0,0.0,0.0,0.0,0.0,0.0,0.0,0.0,0.0,0.0,0.0,0.0,0.0,0.0,0.0,0.0,0.0,0.0,0.0,1.1307,1.1359,0.0,0.0,0.0,0.0,1.1692,1.2047,1.2432,1.2887,1.3186,1.3444,1.3714,1.4053,1.4312,1.4432,1.4602,1.478,1.4953,1.5095,1.5215,1.5371,1.5465,1.5515,1.5498,1.5026,1.4732,1.4437,1.2654,1.1667,1.1226,1.109,1.1112,1.1226,1.1368,1.1395,1.1394,0.0,0.0,0.0,0.0,0.0,0.0,0.0,0.0,0.8306,0.8679,0.9185,0.9738,1.0352,1.0834,1.1274,1.1673,1.1989,1.2149,1.2098,1.2003,1.1888,1.1754,1.1828,1.2186,1.2913,1.3832,1.4779,1.5768,1.6536,1.6992,1.7169,1.7519,1.7671,1.768,1.7756,1.7488,1.6914,1.6286,1.558,1.4835,1.4172,1.3326,0.0,0.0,0.0,0.0,0.0,0.0,0.0,0.0,0.0,0.0,0.0,0.0,0.0,0.0,0.0,0.0,0.0,0.0,0.0,0.0,0.0,0.0,0.0,0.0,0.0,0.0,0.0,0.0,0.0,0.0,0.0,0.0,0.0,0.0,0.0,0.0,0.0,1.206,1.2108,0.0,1.2045,1.2162,1.2379,1.2671,1.2976,1.3308,1.3697,1.3953,1.4189,1.437,1.4713,1.4936,1.5086,1.5218,1.532,1.5404,1.5428,1.5482,1.5536,1.5591,1.5593,1.5593,1.5424,1.5149,1.4788,1.4243,1.3367,1.2397,1.2335,1.214,1.188,1.1923,1.2012,1.2078,0.0,0.0,0.0,0.0,0.0,0.0,0.0,0.0,0.8791,0.9125,0.9754,1.0376,1.0907,1.1515,1.2025,1.2437,1.2807,1.3015,1.3038,1.2943,1.2843,1.2704,1.2905,1.3463,1.4449,1.5095,1.5822,1.6675,1.7292,1.7671,1.7803,1.8105,1.8238,1.8247,1.8389,1.8407,1.8304,1.7776,1.6964,1.6027,1.5414,1.4603,1.3658,0.0,0.0,0.0,0.0,0.0,0.0,0.0,0.0,0.0,0.0,0.0,0.0,0.0,0.0,0.0,0.0,0.0,0.0,0.0,0.0,0.0,0.0,0.0,0.0,0.0,0.0,0.0,0.0,0.0,0.0,0.0,0.0,0.0,0.0,1.1884,1.228,1.28,1.2861,1.2882,1.2929,1.3071,1.3288,1.3553,1.3809,1.4114,1.4457,1.4679,1.4859,1.4992,1.5211,1.5384,1.5462,1.5563,1.5638,1.571,1.571,1.574,1.5841,1.5841,1.5868,1.5891,1.5891,1.5736,1.5447,1.5539,1.4921,1.3885,1.365,1.3229,1.278,1.2717,1.2659,1.2534,0.0,0.0,0.0,0.0,0.0,0.0,0.0,0.8601,0.9076,0.9815,1.0385,1.0915,1.1468,1.2165,1.2824,1.3367,1.3417,1.3573,1.39,1.3435,1.3157,1.3166,1.3731,1.4476,1.5434,1.6205,1.6878,1.7426,1.7822,1.802,1.8038,1.8494,1.8713,1.8732,1.9127,1.9193,1.9015,1.9025,1.8428,1.7426,1.6783,1.6177,1.5483,0.0,0.0,0.0,0.0,0.0,0.0,0.0,0.0,0.0,0.0,0.0,0.0,0.0,0.0,0.0,0.0,0.0,0.0,0.0,0.0,0.0,0.0,0.0,0.0,0.0,0.0,0.0,0.0,0.0,0.0,0.0,0.0,0.0,1.2356,1.2595,1.2983,1.3601,1.3682,1.3737,1.3873,1.4057,1.4236,1.437,1.462,1.4912,1.5251,1.5384,1.551,1.5642,1.5673,1.5673,1.568,1.568,1.5754,1.5939,1.5946,1.6078,1.632,1.632,1.6388,1.6498,1.6498,1.6498,1.6498,1.6498,1.6198,1.5667,1.4925,1.4342,1.3913,1.3792,1.3395,1.2888,0.0,0.0,0.0,0.0,0.0,0.0,0.0,0.8924,0.9445,1.0031,1.0664,1.1315,1.2012,1.2475,1.3021,1.3705,1.3897,1.4111,1.4461,1.4304,1.4319,1.4607,1.4835,1.5464,1.6599,1.6748,1.7147,1.784,1.8144,1.8372,1.8513,1.8788,1.8996,1.9157,1.9401,1.9486,1.9439,1.959,1.9474,1.9106,1.786,1.7105,1.6567,0.0,0.0,0.0,0.0,0.0,0.0,0.0,0.0,0.0,0.0,0.0,0.0,0.0,0.0,0.0,0.0,0.0,0.0,0.0,0.0,0.0,0.0,0.0,0.0,0.0,0.0,0.0,0.0,0.0,0.0,0.0,1.3571,1.3855,1.3515,1.3815,1.4358,1.5111,1.541,1.5564,1.5608,1.5886,1.6113,1.6258,1.633,1.6445,1.6649,1.6683,1.6778,1.6906,1.6913,1.6971,1.712,1.7229,1.7109,1.6778,1.6923,1.6793,1.6437,1.6437,1.6457,1.6498,1.6498,1.6498,1.6505,1.6588,1.6557,1.6363,1.5667,1.508,1.462,1.459,1.4182,1.3559,0.0,0.0,0.0,0.0,0.0,0.0,0.0,0.914,0.9701,1.0333,1.1027,1.1671,1.2247,1.28,1.3378,1.3967,1.4261,1.4595,1.5056,1.5117,1.529,1.5621,1.591,1.6414,1.7209,1.7422,1.7777,1.8294,1.8533,1.8741,1.8959,1.9231,1.9439,1.955,1.9842,1.9974,1.9984,2.0107,2.0163,2.0078,1.9134,1.8418,1.7764,1.6559,1.5729,1.5087,1.4108,1.3415,1.2929,1.2653,0.0,0.0,0.0,0.0,0.0,0.0,0.0,0.0,0.0,0.0,0.0,0.0,0.0,0.0,0.0,0.0,0.0,0.0,0.0,0.0,0.0,0.0,0.0,0.0,1.4709,1.5155,1.5294,1.5314,1.5528,1.61,1.6414,1.6625,1.6676,1.6856,1.7006,1.7079,1.7146,1.7204,1.7277,1.7352,1.7451,1.7523,1.7523,1.7568,1.7697,1.7821,1.7727,1.7433,1.7651,1.7453,1.6946,1.6946,1.6884,1.6714,1.6714,1.6714,1.672,1.6783,1.6816,0.0,0.0,0.0,0.0,0.0,1.4706,1.4235,0.0,0.0,0.0,0.0,0.0,0.0,0.0,0.9267,0.9871,1.0599,1.132,1.1929,1.2343,1.3103,1.3771,1.425,1.4543,1.4951,1.5562,1.5807,1.6053,1.6291,1.6831,1.7246,1.7501,1.8117,1.8534,1.8732,1.893,1.9157,1.9373,1.972,1.9927,1.9984,2.0358,2.0547,2.0565,2.0594,2.0635,2.0635,2.0399,1.9836,1.8989,1.7497,1.6742,1.6237,1.5032,1.4365,1.405,1.3828,0.0,0.0,0.0,0.0,0.0,0.0,0.0,0.0,0.0,0.0,0.0,0.0,0.0,0.0,0.0,0.0,0.0,0.0,0.0,0.0,0.0,0.0,0.0,0.0,1.5559,1.6368,1.7334,1.6965,1.6688,1.6891,1.7095,1.7261,1.7388,1.7433,1.7456,1.7456,1.7582,1.7673,1.7673,0.0,0.0,0.0,0.0,1.7948,1.7948,1.8081,1.8107,1.8064,1.8254,1.8144,1.7755,1.7755,1.7536,1.7157,1.7117,1.7084,1.7032,1.7011,1.7004,1.7004,1.7004,1.6663,1.6118,1.5474,1.513,1.4961,0.0,0.0,0.0,0.0,0.0,0.0,0.0,0.936,0.9871,1.0599,1.1191,1.1907,1.2841,1.3249,1.3819,1.4766,1.4759,1.4951,1.5562,1.5949,1.6376,1.6906,1.719,1.7615,1.8183,1.8486,1.8732,1.894,1.9127,1.9429,1.9776,1.9861,2.0078,2.0386,2.0631,2.0862,2.1087,2.1248,2.1395,2.1518,2.114,2.0582,1.9821,1.8443,1.7803,1.7474,1.6166,1.5484,1.5135,1.4822,1.4448,1.4048,1.3742,1.3418,0.0,0.0,0.0,0.0,0.0,0.0,0.0,0.0,0.0,0.0,0.0,0.0,0.0,0.0,0.0,0.0,0.0,0.0,0.0,1.6857,1.728,1.7718,1.835,1.8464,1.8432,1.8336,1.8488,1.8624,1.8664,1.8896,1.9064,1.9064,1.9231,1.9327,1.9327,1.9359,1.9383,1.9383,1.9383,1.9383,1.9383,1.9585,1.9442,1.8947,0.0,0.0,1.8639,1.8639,1.8436,1.8047,1.7927,1.7605,1.7141,1.7026,1.7004,1.7004,1.7004,1.6926,1.6742,1.6131,1.5871,1.5692,0.0,0.0,0.0,0.0,0.0,0.0,0.0,0.9335,0.9746,1.0455,1.1156,1.1876,1.2566,1.3212,1.3818,1.4357,1.4739,1.5173,1.5721,1.631,1.6831,1.7227,1.7766,1.8221,1.8544,1.8845,1.911,1.9309,1.9505,1.9748,2.005,2.0258,2.0475,2.066,2.0994,2.1215,2.1362,2.156,2.1712,2.1773,2.1589,2.1142,2.0474,1.9142,1.8401,1.7927,1.6909,1.6495,1.634,1.5986,1.5758,1.5525,1.4866,1.4459,1.4083,0.0,0.0,0.0,0.0,0.0,0.0,0.0,0.0,0.0,0.0,0.0,0.0,0.0,0.0,1.5182,1.5796,0.0,1.6928,1.7642,1.8063,1.842,1.8801,1.9029,1.9078,1.8874,1.9086,1.9248,1.9248,1.9492,1.9654,1.9654,1.9735,1.9792,1.9792,1.9792,1.9792,1.9792,1.9792,1.9792,1.9792,1.9996,1.9965,1.9648,1.9911,1.9796,1.9345,1.9429,1.9192,1.8764,1.8684,1.8487,1.8172,1.7731,1.7494,1.7372,1.7109,1.7004,1.6952,1.6663,1.6538,1.6419,0.0,0.0,0.0,0.0,0.0,0.0,0.0,0.9242,0.9649,1.0356,1.1115,1.1778,1.2275,1.3112,1.3694,1.3875,1.4695,1.5432,1.593,1.666,1.7256,1.7577,1.8295,1.8732,1.8817,1.9165,1.9458,1.9656,1.9852,2.0078,2.0324,2.0701,2.09,2.0956,2.1357,2.1579,2.1626,2.1797,2.1867,2.1905,2.1867,2.1528,2.0944,1.9733,1.8844,1.8161,1.7446,1.7262,1.7277,1.6918,1.6863,1.6777,1.5878,1.5402,1.4997,1.3948,1.3614,0.0,0.0,0.0,0.0,0.0,0.0,0.0,0.0,1.4519,1.4865,1.544,1.5861,1.6272,1.6809,1.7297,1.7713,1.807,1.8564,1.8979,1.9183,1.9413,1.9519,1.9371,1.9437,1.9516,1.9516,1.9711,1.9866,1.9866,1.9873,1.989,1.989,1.989,1.989,1.989,1.989,1.989,1.989,2.007,2.0159,2.02,2.0458,2.0417,2.0056,2.0171,1.9935,1.9426,1.9288,1.9224,1.9145,1.8509,1.8107,1.7808,1.7361,1.7131,1.7045,1.7018,1.7004,1.6926,0.0,0.0,0.0,0.0,0.0,0.0,0.0,0.0,0.9682,1.047,1.0922,1.1593,1.2709,1.2926,1.3337,1.4167,1.4826,1.5472,1.6121,1.6745,1.7464,1.826,1.8542,1.8873,1.9221,1.9448,1.9666,1.9861,2.0069,2.0361,2.0735,2.1017,2.1248,2.1428,2.165,2.1882,2.2028,2.2071,2.216,2.2312,2.2132,2.1743,2.1166,2.0262,1.9456,1.8702,1.7841,1.7516,1.7446,1.7213,1.7123,1.698,1.6458,1.5945,1.5415,1.4739,1.4335,1.406,1.3839,1.3904,1.4166,1.4654,1.4827,1.5012,0.0,1.5796,1.6023,1.6733,1.7063,1.7394,1.7923,1.8231,1.8499,1.8834,1.9327,1.9719,1.9855,2.0316,2.062,2.0594,1.9941,1.9516,1.9516,1.9833,2.0062,2.0062,2.0174,2.0237,2.0237,2.0237,2.0237,2.0237,2.0237,2.0237,2.0237,2.0279,2.0377,2.0539,2.058,2.0705,2.0959,2.0975,2.0746,2.0333,1.9661,1.9321,1.9172,1.8908,1.8516,1.8051,1.7918,1.76,1.7154,1.7052,1.7004,1.6978,0.0,0.0,0.0,0.0,0.0,0.0,0.0,0.0,0.0,1.0184,1.0945,1.1687,1.2305,1.2861,1.344,1.4075,1.4688,1.5358,1.6149,1.6878,1.7605,1.8364,1.8817,1.9174,1.9467,1.9788,1.9984,2.0069,2.0399,2.0711,2.1036,2.1546,2.1733,2.1693,2.2212,2.2298,2.2094,2.2217,2.2312,2.2387,2.2302,2.1948,2.1414,2.0822,2.0047,1.9187,1.8191,1.7939,0.0,1.7887,1.7924,1.7907,1.7188,1.6593,1.5981,1.5255,1.4782,1.4489,1.4532,1.4732,1.5057,1.5488,1.5809,1.6149,1.6555,1.6887,1.7228,1.7648,1.7898,1.8126,1.8436,1.8902,1.9292,1.9442,1.9974,2.041,2.0472,2.0653,2.0801,2.0801,2.0571,2.0484,2.0586,2.085,2.108,2.1216,2.1267,2.1154,2.0841,2.0815,2.0659,2.032,2.0294,2.0294,2.0294,2.0294,2.0383,2.0596,2.072,2.088,2.1105,2.123,2.1174,2.1,2.0709,2.0466,2.0274,1.9873,1.9501,1.915,1.8448,1.8047,1.7799,1.739,1.7236,1.7222,0.0,0.0,0.0,0.0,0.0,0.0,0.0,0.0,0.0,0.0,1.0971,1.174,1.2068,1.2782,1.3405,1.3807,1.4443,1.5189,1.6054,1.6925,1.77,1.8364,1.8978,1.9392,1.959,1.9984,2.0229,2.0286,2.0701,2.1114,2.1486,2.2106,2.2367,2.2365,2.2929,2.2897,2.2398,2.255,2.2534,2.2387,2.2387,2.2139,2.1679,2.1131,2.0387,1.9529,1.8508,1.8261,1.8383,1.8213,1.8305,1.8386,1.7638,1.7055,1.6529,1.5837,1.5375,1.5119,1.5319,1.5601,1.5963,1.6339,1.6777,1.7157,1.7429,1.7786,1.8174,1.8567,1.8762,1.8942,1.922,1.9726,2.0079,2.0079,2.0606,2.1013,2.1013,2.1145,2.1243,2.1243,2.1369,2.1539,2.1736,2.1733,2.1775,2.1994,2.2003,2.1821,2.144,2.1414,2.1232,2.0789,2.0763,2.0763,2.0763,2.0656,2.0693,2.0908,2.0955,2.1054,2.1205,2.1319,2.1411,2.1411,2.1411,2.1319,2.1143,2.0706,2.034,1.9988,1.9154,1.8641,1.8318,1.7907,1.7602,1.7372,0.0,0.0,0.0,0.0,0.0,0.0,0.0,0.0,0.0,0.0,0.0,0.0,0.0,1.2644,1.2984,1.3386,1.415,1.4971,1.5845,1.6849,1.77,1.8364,1.8978,1.9392,1.959,1.9984,2.0295,2.049,2.0951,2.1518,2.2165,2.2666,2.316,2.3661,2.3874,2.3673,2.316,2.317,2.2877,2.2387,2.2387,2.2274,2.1984,2.1072,2.033,1.968,1.8796,1.8369,1.815,1.7833,1.7839,1.795,1.7527,1.7252,1.7,1.6593,1.6265,1.6093,1.6225,1.6514,1.6898,1.7416,1.7715,1.7981,1.8377,1.8475,1.8724,1.9585,1.9757,1.9963,2.0626,2.0759,2.0768,2.0768,2.121,2.1587,2.1587,2.202,2.2338,2.2338,2.2348,2.2432,2.2649,2.2084,2.1775,2.1994,2.2003,2.1977,2.1977,2.1977,2.1977,2.1951,2.1951,2.1951,2.1951,2.1567,2.1464,2.1668,2.1269,2.1205,2.1384,2.1411,2.1411,2.1411,2.1411,2.1411,2.136,2.117,2.0764,2.0295,2.0167,1.9461,1.8495,1.8624,1.8127,1.7372,0.0,0.0,0.0,0.0,0.0,0.0,0.0,0.0,0.0,0.0,0.0,0.0,0.0,0.0,0.0,0.0,1.4009,1.4867,1.595,1.6897,1.7881,1.8957,1.945,1.9885,2.0271,2.0706,2.0973,2.102,2.1625,2.2112,2.248,2.3321,2.3677,2.3661,2.4224,2.4194,2.3707,2.3341,2.3019,2.2698,2.2334,2.2014,2.1631,2.1006,2.0312,1.9575,0.0,1.8305,1.7855,1.7742,1.7574,1.7407,1.7394,1.709,1.6702,1.671,1.6923,1.7271,1.7703,1.809,1.8464,1.8775,1.9182,1.9492,1.948,1.9759,2.0074,2.0229,2.0244,2.03,2.0375,2.068,2.0991,2.1101,2.1581,2.1968,2.2099,2.2289,2.2387,2.2387,2.2387,2.2472,2.2665,2.2612,2.265,2.2853,2.2992,2.291,2.2547,2.2521,2.2428,2.2205,2.2205,2.2266,2.239,2.2266,2.2299,2.249,2.2084,2.1929,2.1996,2.1584,2.1411,2.1411,2.1411,2.1411,2.1384,2.1319,2.1121,2.0799,2.0372,1.9915,1.9434,1.8809,1.8323,1.7924,0.0,0.0,0.0,0.0,0.0,0.0,0.0,0.0,0.0,0.0,0.0,0.0,0.0,0.0,0.0,0.0,0.0,1.4598,1.5805,1.6693,1.7634,1.8747,1.9352,1.9785,2.0088,2.0633,2.0936,2.1016,2.1692,2.2227,2.2665,2.3536,2.3939,2.3952,2.4481,2.4466,2.3949,2.3373,2.2951,2.2598,2.192,2.1442,2.1083,2.056,1.9968,0.0,1.8673,1.8087,1.759,1.7593,1.7369,1.7142,1.7341,1.7225,1.7068,1.7284,1.7773,1.8331,1.8774,1.9277,1.9727,1.9854,2.0248,2.0515,2.0238,2.0451,2.0674,2.0588,2.0582,2.0568,2.0553,2.0902,2.1232,2.1346,2.1774,2.2156,2.2264,2.2349,2.2387,2.2387,2.2387,2.2472,2.2665,2.2872,2.308,2.3288,2.3495,2.3482,2.3228,2.3228,2.3173,2.3006,2.3015,2.3069,2.3222,2.3054,2.2974,2.2961,2.2712,2.2489,2.2288,2.1905,2.1612,2.1411,2.1411,2.1411,2.1384,2.1319,2.123,2.107,2.0627,2.0262,1.9934,1.926,1.8681,1.8122,0.0,0.0,0.0,0.0,0.0,0.0,0.0,0.0,0.0,0.0,0.0,0.0,0.0,0.0,0.0,0.0,0.0,0.0,1.5397,1.6233,1.7059,1.7869,1.8726,1.92,1.9201,1.9846,2.028,2.0481,2.1156,2.1886,2.2655,2.3323,2.3936,2.4421,2.4624,2.445,2.391,2.3234,2.2653,2.209,2.1144,2.0622,2.0367,1.9788,1.9288,1.8853,1.8228,1.7727,1.7407,1.7407,1.7284,1.7171,1.7388,1.7727,1.8119,1.8325,1.8815,1.9321,1.9498,2.0091,2.0699,2.0686,2.0926,2.106,2.0632,2.0551,2.0555,2.0666,2.0669,2.0745,2.1061,2.1286,2.1437,2.1475,2.1825,2.2109,2.2123,2.2293,2.2406,2.2416,2.2425,2.2501,2.2708,2.2907,2.309,2.3297,2.3495,2.3729,2.3999,2.3992,2.4112,2.4294,2.433,2.4313,2.4323,2.3958,2.3584,2.3191,2.3164,2.2872,2.2398,2.2343,2.1996,2.1439,2.1411,2.1384,2.136,2.1197,2.1089,2.1056,2.0932,2.0546,2.0002,1.9983,1.9189,1.8007,0.0,0.0,0.0,0.0,0.0,0.0,0.0,0.0,0.0,0.0,0.0,0.0,0.0,0.0,0.0,0.0,0.0,0.0,1.5066,1.5967,1.6957,1.8001,1.8594,1.907,1.943,1.9787,2.0084,2.0288,2.0986,2.1535,2.1905,2.2631,2.3103,2.3396,2.3633,2.3684,2.3504,2.2614,2.2086,2.1726,2.0593,1.9918,1.9562,1.9089,1.8654,1.8208,1.7888,1.7605,1.7407,1.7407,1.7577,1.7803,1.8069,1.8513,1.9057,1.9571,2.0033,2.0544,2.1225,2.1676,2.1922,2.1829,2.193,2.1891,2.1229,2.1069,2.0895,2.0432,2.022,2.0074,2.0012,2.0289,2.0696,2.1191,2.1617,2.2028,2.2491,2.2595,2.269,2.2831,2.285,2.2879,2.2926,2.3099,2.325,2.3307,2.3495,2.3729,2.3999,2.3992,2.4152,2.4521,2.4531,2.4606,2.4748,2.4643,2.4536,2.4446,2.3983,2.3683,2.3537,2.2699,2.2225,2.205,2.1612,2.1319,2.1162,2.1113,2.0943,2.0726,2.0677,2.0501,2.0185,1.989,1.951,1.9001,0.0,0.0,0.0,0.0,0.0,0.0,0.0,0.0,0.0,0.0,0.0,0.0,0.0,0.0,0.0,0.0,0.0,0.0,0.0,1.573,1.6546,1.7448,1.795,1.8354,1.8695,1.8968,1.9259,1.9585,2.0218,2.0639,2.0876,2.1566,2.2029,2.2256,2.2493,2.2675,2.2718,2.1888,2.1354,0.0,0.0,1.9266,1.8855,1.8438,1.8096,1.784,1.7633,1.7681,1.7861,1.804,1.8247,1.8502,1.894,1.9344,1.9845,2.0554,2.1064,2.1513,2.2189,2.251,2.2596,2.2354,2.2279,2.2059,2.1247,2.0899,2.0544,1.9817,1.9581,1.9439,1.9231,1.9609,2.0157,2.079,2.1319,2.1891,2.2482,2.2627,2.2759,2.2992,2.3011,2.3023,2.3118,2.3316,2.3486,2.3606,2.372,2.3871,2.4105,2.4209,2.4408,2.4702,2.4654,2.4616,2.4635,2.4635,2.4635,2.4635,2.4285,2.3988,2.3719,2.3071,2.2503,2.2016,0.0,2.1335,2.1002,2.0929,2.0775,2.0588,2.0507,2.0409,2.0276,2.0059,1.9781,1.937,0.0,0.0,0.0,0.0,0.0,0.0,0.0,0.0,0.0,0.0,1.1583,0.0,0.0,0.0,0.0,0.0,0.0,0.0,0.0,0.0,1.5971,1.6575,1.7017,1.7346,1.7555,1.7798,1.8127,1.8569,1.9025,1.9399,1.9684,2.0358,2.0802,2.107,2.1286,2.1491,2.1674,2.0959,2.0446,1.9987,1.9154,1.8588,1.8231,0.0,1.7643,1.7633,1.751,1.7889,1.8506,1.8959,1.9138,1.9271,1.9855,2.0173,2.0544,2.138,2.1872,2.2227,2.2642,2.2879,2.2916,2.2501,2.2198,2.1792,2.0928,2.0352,1.9779,1.8959,1.8769,1.8694,1.8523,1.9015,1.9656,2.0301,2.1007,2.1683,2.234,2.2663,2.2941,2.3168,2.3292,2.3412,2.3603,2.3803,2.3977,2.4115,2.4242,2.4327,2.4349,2.4483,2.4654,2.4797,2.4663,2.4474,2.4294,2.4285,2.4285,2.4285,2.4285,2.4019,2.3515,2.3435,2.285,2.1917,2.1783,2.1428,2.0941,2.0714,2.058,2.0539,2.0359,2.0294,2.0294,2.0294,2.0007,1.9511,0.0,0.0,0.0,0.0,0.0,0.0,0.0,0.0,0.0,0.0,1.1762,1.1862,0.0,0.0,0.0,0.0,0.0,0.0,0.0,0.0,0.0,1.611,1.636,1.6614,1.6872,1.6926,1.706,1.7313,1.777,1.8153,1.8429,1.9104,1.9567,1.9822,2.0067,2.0216,2.0229,1.9716,1.9253,1.8839,1.8197,1.7778,1.7558,1.7312,0.0,0.0,1.7793,1.8209,1.876,1.9495,1.9842,2.0059,2.0513,2.0918,2.1409,2.2038,2.2283,2.2434,2.285,2.2957,2.2891,2.251,2.199,2.138,2.0494,1.9609,1.8722,1.7851,1.7549,1.7416,1.7379,1.805,1.8911,1.9842,2.0696,2.1579,2.2519,2.3206,2.3762,2.4176,2.4794,2.5172,2.5212,2.5422,2.5388,2.4952,2.5543,2.5501,2.4603,2.4417,2.4361,2.4398,2.4361,2.4349,2.4285,2.4285,2.4285,2.4285,2.4285,2.4258,2.4126,2.3621,2.3302,2.3063,2.2103,0.0,2.1272,2.0789,2.0507,2.0335,2.0302,2.0294,2.0294,2.0294,2.0242,2.0085,0.0,0.0,0.0,0.0,0.0,0.0,0.0,1.162,1.1877,1.2088,1.2358,1.2484,1.2365,1.2673,1.3017,0.0,0.0,0.0,0.0,0.0,0.0,0.0,1.5519,1.5677,1.5909,1.6058,1.6241,1.6483,0.0,1.741,1.754,1.8114,1.8523,1.8778,1.8903,1.9105,1.9313,1.9093,1.8817,1.8502,1.803,1.766,1.7366,0.0,0.0,0.0,1.769,1.8154,1.8618,1.9221,1.9757,2.0324,2.1079,2.1471,2.1778,2.2378,2.2557,2.2623,2.2926,2.286,2.258,2.2189,2.1537,2.0743,1.9788,1.8853,1.7946,1.7105,1.6774,1.6651,1.6783,1.7464,1.8451,1.9738,2.0676,2.1693,2.2999,2.3676,2.4217,2.4665,2.5236,2.5593,2.5593,2.5932,2.6055,2.5762,2.6176,2.5991,2.4909,2.5032,2.5084,2.4966,2.511,2.4978,2.4555,2.4661,2.4577,2.4311,2.4181,2.4133,2.4124,2.3696,2.3351,2.3072,2.2521,2.2074,2.1681,2.1132,2.0872,2.0737,2.0424,2.0294,2.0294,2.0294,2.0294,2.0216,0.0,0.0,0.0,0.0,0.0,0.0,0.0,1.1909,1.2262,1.2542,1.2973,1.3204,1.3028,1.3098,1.3331,0.0,0.0,0.0,0.0,0.0,0.0,0.0,0.0,0.0,1.5127,0.0,0.0,1.5825,1.6506,0.0,0.0,0.0,0.0,0.0,1.8009,1.8218,1.858,1.8634,1.8503,0.0,0.0,1.7646,1.7303,0.0,0.0,0.0,0.0,1.7898,1.8306,1.8769,1.9401,2.0163,2.1102,2.1546,2.1849,2.2463,2.2642,2.269,2.2888,2.2655,2.2293,2.1863,2.1064,2.0125,1.9157,1.8191,1.7284,1.6527,1.6276,1.6236,1.6436,1.7158,1.8222,1.9684,2.0641,2.1742,2.3229,2.3943,2.4504,2.5028,2.5563,2.5927,2.6045,2.6425,2.6628,2.6572,2.6599,2.6256,2.5348,2.5648,2.5748,2.5593,2.5791,2.5647,2.5055,2.5081,2.4895,2.447,2.4186,2.4058,2.4075,2.3805,2.3477,2.3052,2.2877,2.2547,2.2106,2.1466,2.1206,2.1154,2.0529,2.0294,2.0294,2.0294,2.0294,2.0242,0.0,0.0,0.0,0.0,0.0,0.0,0.0,1.2117,1.2552,1.3066,1.3332,1.3691,1.4262,1.4124,1.402,0.0,0.0,0.0,0.0,0.0,0.0,0.0,0.0,0.0,0.0,0.0,0.0,1.5267,1.6017,0.0,0.0,0.0,0.0,0.0,0.0,1.776,1.7813,1.8056,0.0,0.0,0.0,0.0,0.0,0.0,0.0,0.0,0.0,1.7577,1.786,1.8514,1.9025,1.9467,1.9918,2.0743,2.1645,2.2236,2.2416,2.2463,2.2655,2.2567,2.2245,2.1674,2.0733,1.9729,1.8921,1.7766,1.6708,1.6091,1.6038,1.6167,1.6372,1.7225,1.8262,1.9453,2.0379,2.1415,2.2769,2.3796,2.4719,2.5609,2.6361,2.6963,2.747,2.7722,2.7717,2.7407,2.702,2.6542,2.5946,2.5734,2.5613,2.5593,2.5613,2.5714,2.588,2.5371,2.509,2.5027,2.4504,2.4256,2.4283,2.4048,2.3937,2.384,2.3122,2.2781,0.0,2.1613,2.1206,2.1154,2.0529,2.0294,2.0294,2.0294,2.0294,2.0294,0.0,0.0,0.0,0.0,0.0,0.0,1.1762,1.2285,1.2822,1.3318,1.3847,1.4333,1.4815,1.4681,1.4519,1.4353,0.0,0.0,0.0,0.0,0.0,0.0,0.0,0.0,0.0,0.0,1.5017,1.5017,1.5877,0.0,0.0,0.0,0.0,0.0,0.0,1.7378,1.7535,1.7642,0.0,0.0,0.0,0.0,0.0,0.0,0.0,0.0,0.0,0.0,1.7369,1.7643,1.8002,1.8407,1.8864,1.946,2.0207,2.1352,2.1768,2.191,2.2104,2.2,2.1712,2.1064,2.0295,1.941,1.8181,1.7246,1.6468,1.5948,1.578,1.5892,1.6423,1.7067,1.799,1.9377,2.0374,2.1479,2.2981,2.4031,2.4936,2.5759,2.6475,2.7107,2.7648,2.7865,2.7941,2.7824,2.7526,2.7165,2.6792,2.6535,2.6446,2.6608,2.6771,2.6802,2.666,2.658,2.6196,2.5525,2.513,2.4804,2.4474,2.4266,2.4171,2.4162,2.3709,2.352,0.0,2.2185,2.1674,2.1596,2.0659,2.0294,2.0294,2.0294,2.0294,2.0294,0.0,0.0,0.0,0.0,0.0,1.1573,1.1771,1.2304,1.2892,1.3484,1.4056,1.458,1.5005,1.4891,1.4719,1.4519,1.432,0.0,0.0,0.0,0.0,0.0,0.0,0.0,0.0,0.0,1.497,1.511,1.5914,1.6329,0.0,0.0,1.7001,1.7001,0.0,0.0,0.0,0.0,0.0,0.0,0.0,0.0,0.0,0.0,0.0,0.0,0.0,0.0,0.0,0.0,0.0,1.7482,1.7823,1.8287,1.8985,2.0482,2.1059,2.1276,2.156,2.1475,2.114,2.0494,1.9814,1.8976,1.7615,1.6866,1.6349,1.5899,1.5807,1.5991,1.6587,1.7145,1.7959,1.9245,2.0314,2.1493,2.2976,2.3958,2.4831,2.5682,2.6272,2.6875,2.7514,2.7913,2.8091,2.8016,2.7816,2.7568,2.7305,2.7053,2.7032,2.7294,2.7547,2.7599,2.7365,2.7452,2.6999,2.6033,2.5696,2.524,2.4665,2.4483,2.4379,2.437,2.4188,2.4039,0.0,2.2622,2.2055,2.1899,2.0763,2.0294,2.0294,2.0294,2.0294,2.0294,0.0,0.0,0.0,0.0,0.0,0.0,1.1771,1.2145,1.2717,1.3577,1.3879,1.4234,1.4834,1.4662,1.4494,1.4494,1.432,0.0,0.0,0.0,0.0,0.0,0.0,0.0,0.0,0.0,1.5131,1.5591,1.6075,1.6431,1.6699,1.6894,1.7001,1.7001,0.0,0.0,0.0,0.0,0.0,0.0,0.0,0.0,0.0,0.0,0.0,0.0,0.0,0.0,0.0,0.0,0.0,0.0,0.0,1.7369,1.8302,1.9786,2.0361,2.0616,2.1087,2.1017,2.065,2.0059,1.9297,1.8429,1.735,1.6742,1.6287,1.5881,1.6169,1.6567,1.6846,1.7546,1.8308,1.8993,2.0126,2.133,2.2546,2.3355,2.4217,2.5378,2.5733,2.6275,2.7208,2.7967,2.829,2.8027,2.7816,2.7568,2.7305,2.7053,2.7032,2.7294,2.7547,2.7795,2.7978,2.7667,2.7188,2.6576,2.606,2.548,2.49,2.4701,2.4606,2.4597,2.4379,2.4171,0.0,2.2775,2.2187,2.1899,2.0763,2.0294,2.0294,2.0294,2.0294,2.0294,0.0,0.0,0.0,0.0,0.0,0.0,0.0,1.1938,1.2515,1.3382,1.3792,1.4224,1.4823,1.4662,1.4494,1.4494,1.432,0.0,0.0,0.0,0.0,0.0,0.0,0.0,0.0,0.0,1.5131,1.5601,1.6252,1.6683,1.692,1.7157,1.7276,1.7265,1.7077,1.7001,0.0,0.0,0.0,0.0,0.0,0.0,1.6233,0.0,0.0,0.0,0.0,0.0,0.0,0.0,0.0,0.0,0.0,0.0,0.0,1.7851,1.8832,1.9701,1.9855,1.994,1.9807,1.9063,1.8437,1.7815,1.701,1.6494,1.6208,1.6275,1.6399,1.6648,1.7154,1.7559,1.8114,1.895,2.0005,2.1102,2.2256,2.3343,2.4377,2.5375,2.6469,2.7249,2.7536,2.8064,2.829,2.8027,2.7816,2.7568,2.7305,2.7053,2.7032,2.7294,2.737,2.7607,2.8016,2.7894,2.7635,2.7215,2.663,2.606,2.5507,2.5006,2.4815,2.4778,2.4597,2.4389,2.4128,2.3224,2.2501,2.1925,2.1206,2.0659,2.0294,2.0294,2.0294,2.0294,0.0,0.0,0.0,0.0,0.0,0.0,0.0,1.1801,1.2284,1.3002,1.34,1.3837,1.4416,1.4339,1.4271,1.4382,1.4277,0.0,0.0,0.0,0.0,0.0,0.0,0.0,0.0,1.4887,1.5285,1.5856,1.65,1.6931,1.7168,1.74,1.7481,1.7384,1.7233,1.7087,0.0,0.0,0.0,0.0,0.0,0.0,1.6395,0.0,0.0,0.0,0.0,0.0,0.0,0.0,0.0,0.0,0.0,0.0,0.0,0.0,1.7417,1.8324,1.8721,1.8898,1.8855,1.8246,1.7817,1.7366,1.6662,1.639,1.6264,1.6344,1.6465,1.6716,1.7179,1.7507,1.7953,1.8721,1.9822,2.0962,2.204,2.3225,2.4387,2.5518,2.6782,2.7579,2.7692,2.8107,2.829,2.8027,2.7876,2.7665,2.7316,2.7129,2.7086,2.7139,2.7251,2.7445,2.7747,2.7833,2.7728,2.7334,2.6768,2.6252,2.5789,2.5181,2.4909,2.49,2.4701,2.4493,0.0,2.3436,2.2658,2.1951,2.1414,2.0841,2.0294,2.0294,2.0294,2.0294,0.0,0.0,0.0,0.0,0.0,0.0,0.0,1.1724,1.2067,1.252,1.2818,1.3207,1.3719,1.3788,1.3898,1.4148,0.0,0.0,0.0,0.0,0.0,0.0,0.0,0.0,1.4883,1.5099,1.5557,1.6297,1.6797,1.7163,1.7427,1.7636,1.7626,1.7416,1.7405,1.7254,0.0,0.0,0.0,0.0,0.0,0.0,0.0,0.0,0.0,0.0,0.0,0.0,0.0,0.0,0.0,0.0,0.0,0.0,0.0,0.0,0.0,0.0,0.0,1.7889,1.7863,1.7584,1.7375,1.7072,1.6379,1.6345,0.0,1.618,1.6451,1.6764,1.698,1.7405,1.7889,1.8366,1.9671,2.096,2.1878,2.3118,2.4423,2.5758,2.6775,2.747,2.7733,2.8176,2.8333,2.8102,2.8027,2.7811,2.7348,2.7305,2.7187,2.6909,2.7129,2.7284,2.7294,2.7536,2.7498,2.7147,2.6587,2.6162,2.5794,2.5197,2.4889,2.4852,2.4673,2.4465,2.423,2.3479,2.2737,2.2003,2.1466,2.0893,2.0372,2.032,2.0294,2.0294,0.0,0.0,0.0,0.0,0.0,0.0,0.0,0.0,0.0,0.0,1.2738,1.3144,1.353,1.3717,1.3833,0.0,0.0,0.0,0.0,0.0,0.0,0.0,0.0,0.0,1.4883,1.5099,1.5557,1.6297,1.6985,1.7427,1.7647,1.7895,1.7873,1.7609,1.747,1.7254,0.0,0.0,0.0,0.0,0.0,0.0,0.0,0.0,0.0,0.0,1.6153,1.5763,0.0,0.0,0.0,0.0,0.0,0.0,0.0,0.0,1.5637,1.6215,1.6292,0.0,1.7148,1.6771,1.6715,1.6707,0.0,1.6319,1.626,1.6509,1.6625,1.6829,1.7233,1.7696,1.8201,1.8821,1.9997,2.1157,2.2095,2.3892,2.5367,2.6042,2.7178,2.8005,2.8285,2.8545,2.8749,2.8908,2.8353,2.7887,2.7627,2.7417,2.7187,2.6909,2.6952,2.7096,2.7294,2.7348,2.7447,2.7541,2.697,2.6419,2.5938,2.5316,2.4836,2.4436,2.4389,2.4247,2.4058,2.3879,2.3311,2.2547,2.2029,2.1466,2.0919,2.0476,2.0294,2.0294,0.0,0.0,0.0,0.0,0.0,0.0,0.0,0.0,0.0,0.0,0.0,1.3014,1.3297,1.3416,0.0,0.0,0.0,0.0,0.0,0.0,0.0,0.0,0.0,1.442,1.4883,1.5221,1.5748,1.6474,1.7184,1.7658,1.7895,1.8125,1.8039,1.7684,1.7265,1.7012,0.0,0.0,0.0,0.0,1.6414,0.0,0.0,0.0,0.0,0.0,1.5846,1.551,0.0,1.4935,1.4898,1.4889,0.0,0.0,0.0,0.0,1.5261,1.5731,1.5721,1.626,1.6783,1.6616,1.6638,1.6668,1.6614,1.6482,1.6451,1.6667,1.6775,1.6985,1.7443,1.8013,1.8638,1.9359,2.0438,2.1717,2.3117,2.4678,2.5819,2.6161,2.7312,2.8168,2.8302,2.8745,2.9104,2.9239,2.8598,2.8131,2.7906,2.7526,2.7187,2.6909,2.6899,2.6963,2.7118,2.7118,2.7251,2.7514,2.6913,2.6388,2.5989,2.5381,2.4815,2.4285,2.419,2.4086,2.3982,2.3878,2.3401,2.2781,2.247,2.2029,2.1544,2.1206,2.1075,2.1049,0.0,0.0,0.0,0.0,0.0,0.0,0.0,0.0,0.0,0.0,0.0,0.0,0.0,0.0,0.0,0.0,0.0,0.0,0.0,0.0,0.0,0.0,1.4245,1.4449,1.4894,1.5401,1.6004,1.6699,1.7367,1.7835,1.8099,1.8308,1.814,1.7673,1.6996,1.6699,0.0,0.0,0.0,0.0,1.6297,0.0,0.0,0.0,0.0,0.0,0.0,0.0,0.0,1.485,1.4914,1.4866,1.4788,0.0,0.0,0.0,0.0,0.0,1.5571,1.6137,1.6684,1.6786,1.6844,1.6871,1.677,1.6721,1.6699,1.6742,1.691,1.7227,1.776,1.8466,1.9223,1.9979,2.1145,2.2535,2.4272,2.5318,2.6009,2.6296,2.7407,2.8224,2.8335,2.8978,2.9387,2.9422,2.8936,2.8458,2.8124,2.7684,2.7264,2.6909,2.6899,2.6899,2.6899,2.6899,2.7021,2.7215,2.6722,2.627,2.5888,2.5361,2.4798,2.4181,0.0,0.0,2.3925,2.3684,2.3324,2.291,2.2832,2.2521,2.2106,2.2029,2.2003,2.1933,0.0,0.0,0.0,0.0,0.0,0.0,0.0,0.0,0.0,0.0,0.0,0.0,0.0,0.0,0.0,0.0,0.0,0.0,0.0,0.0,0.0,1.4443,1.4454,1.4597,1.4894,1.5577,1.6197,1.6699,1.7367,1.7835,1.8099,1.8308,1.814,1.7673,1.6996,1.6699,1.6678,0.0,0.0,0.0,1.6297,0.0,0.0,0.0,0.0,0.0,0.0,0.0,0.0,1.491,1.4967,1.4897,1.5314,0.0,0.0,0.0,0.0,0.0,1.5753,1.635,1.6923,1.6895,1.7103,1.7253,1.7023,1.6813,1.6753,1.6915,1.7168,1.7599,1.8472,1.9216,2.0022,2.0949,2.2427,2.3711,2.4412,2.5318,2.6157,2.6783,2.7846,2.88,2.9459,2.9594,2.9737,2.997,2.9474,2.8864,2.815,2.8009,2.7652,2.6935,2.6899,2.6899,2.6899,2.6899,2.692,2.6952,2.6875,2.632,2.5397,2.5319,2.4698,2.3703,0.0,2.3656,2.3656,2.3628,2.3557,2.3428,2.2988,2.2755,2.2625,2.2158,2.2003,2.1977,0.0,0.0,0.0,0.0,0.0,0.0,0.0,0.0,0.0,0.0,0.0,0.0,0.0,0.0,0.0,0.0,0.0,0.0,0.0,0.0,1.4299,1.4497,1.4741,1.5002,1.5268,1.5864,1.6457,1.7077,1.7738,1.8129,1.8254,1.8104,1.7846,1.7507,1.6797,1.6414,1.6289,1.6047,0.0,0.0,0.0,0.0,0.0,0.0,0.0,0.0,0.0,0.0,0.0,0.0,1.5153,1.5088,1.5224,0.0,0.0,0.0,0.0,0.0,1.5943,1.6519,1.7087,1.7469,1.7557,1.7572,1.7593,1.7507,1.7513,1.7716,1.8061,1.8541,1.9267,2.0086,2.11,2.2438,2.3517,2.4347,2.4809,2.5817,2.662,2.6954,2.8191,2.9182,2.9554,2.9821,3.0034,3.0127,2.9664,2.9195,2.8823,2.8541,2.8085,2.7411,2.7385,2.7232,2.6899,2.6899,2.6899,2.6899,2.6899,2.6334,2.5295,2.5295,2.4677,2.3609,0.0,2.3609,2.3609,2.3609,2.3609,2.3583,2.3324,2.3221,2.3195,2.2962,2.2677,2.2418,0.0,0.0,0.0,0.0,0.0,0.0,0.0,0.0,0.0,0.0,0.0,0.0,0.0,0.0,0.0,0.0,0.0,0.0,0.0,1.4191,1.432,1.4572,1.4977,1.5335,1.5591,1.6172,1.6775,1.7395,1.8018,1.834,1.8312,1.7899,1.7561,1.7276,1.6603,1.6198,1.5981,1.5713,1.5569,0.0,0.0,0.0,0.0,0.0,0.0,0.0,0.0,0.0,0.0,0.0,0.0,0.0,0.0,0.0,0.0,1.5078,1.5101,1.528,1.6075,1.663,1.7184,1.7923,1.7975,1.7953,1.8254,1.8293,1.8336,1.8609,1.9032,1.9524,2.0043,2.1037,2.2244,2.3635,2.4326,2.4824,2.5287,2.6315,2.7089,2.7338,2.8569,2.9417,2.9473,2.9864,3.0068,3.0033,2.969,2.9424,2.9213,2.8892,2.841,2.782,2.7682,2.7388,2.693,2.6857,2.6845,2.6899,2.6899,2.6334,2.5295,2.5295,2.4677,2.3609,2.3609,2.3609,2.3609,2.3609,2.3609,2.3609,2.3609,2.3609,2.3573,2.3552,2.3275,2.2914,0.0,0.0,0.0,0.0,0.0,0.0,0.0,0.0,0.0,0.0,0.0,0.0,0.0,0.0,0.0,0.0,0.0,0.0,0.0,1.4191,1.4409,1.4851,1.5077,1.5335,1.5591,1.6495,1.7098,1.7395,1.7873,1.8121,1.811,1.7824,1.7458,1.7012,1.6512,1.6198,1.5981,1.5713,1.5458,1.5235,0.0,0.0,0.0,0.0,0.0,0.0,0.0,0.0,0.0,0.0,0.0,0.0,0.0,0.0,1.5092,1.5101,1.5101,1.528,1.6075,1.663,1.7184,1.7923,1.8222,1.8473,1.8917,1.8878,1.8882,1.9327,1.9782,2.0266,2.0748,2.2148,2.3429,2.4,2.4667,2.5298,2.5773,2.65,2.7363,2.8378,2.9022,2.9498,2.9751,2.9802,2.9719,2.9477,2.9658,2.9444,2.8696,2.8858,2.8594,2.7828,2.7319,2.7045,2.6995,2.675,2.6724,2.6899,2.6899,2.6334,2.5295,2.5295,2.4677,2.3609,2.3609,2.3609,2.3609,2.3609,2.3609,2.3609,2.3609,2.3609,2.359,2.3401,2.3309,2.3256,0.0,0.0,0.0,0.0,0.0,0.0,0.0,0.0,0.0,0.0,0.0,0.0,0.0,0.0,0.0,0.0,0.0,0.0,0.0,1.4191,1.442,1.4873,1.5257,1.563,1.6032,1.6829,1.7448,1.7836,1.8003,1.8164,1.8276,1.7587,1.7098,1.6791,1.6317,1.5987,1.5735,1.5634,1.5548,1.5421,1.5267,0.0,0.0,0.0,0.0,0.0,0.0,0.0,0.0,0.0,1.5498,1.5389,1.5295,1.5039,1.4828,1.5041,1.507,1.5216,1.6072,1.6764,1.7427,1.8114,1.8685,1.9201,1.9685,1.9854,2.0046,2.0531,2.0867,2.1298,2.2073,2.3095,2.4,2.4463,2.4904,2.5419,2.6066,2.6819,2.7568,2.8269,2.8957,2.9434,2.9537,2.955,2.9513,2.9417,2.9501,2.9414,2.912,2.9179,2.8968,2.8328,2.7771,2.7338,2.699,2.6565,2.6386,2.6458,2.6759,2.6514,2.5784,2.5784,2.5373,2.4651,2.4306,2.4151,2.4125,2.3738,2.3609,2.3599,2.3467,2.3344,2.3212,2.3137,2.3108,2.3048,0.0,0.0,0.0,0.0,0.0,0.0,0.0,0.0,0.0,0.0,0.0,0.0,0.0,0.0,0.0,0.0,0.0,0.0,1.4062,1.4073,1.4288,1.4751,1.5221,1.5726,1.6286,1.6937,1.7496,1.797,1.8056,1.8099,1.8071,1.7346,1.684,1.657,1.6175,1.5847,1.5601,1.5601,1.5558,1.5458,1.5267,1.5117,0.0,0.0,0.0,0.0,0.0,0.0,0.0,0.0,1.5375,1.5342,1.5079,1.4849,1.4721,1.5006,1.5132,1.5335,1.6194,1.6947,1.768,1.843,1.9233,2.0013,2.063,2.0834,2.1048,2.1513,2.1836,2.2299,2.3095,2.3795,2.4355,2.4743,2.522,2.5779,2.6465,2.7247,2.7884,2.8397,2.9015,2.9369,2.9296,2.9284,2.9248,2.9139,2.9236,2.9248,2.9139,2.9236,2.9002,2.8379,2.7852,2.731,2.6793,2.6326,2.6121,2.6096,2.6505,2.6425,2.6014,2.6061,2.581,2.527,2.4729,2.4496,2.4445,2.3841,2.3571,2.3495,2.3288,2.3118,2.2976,2.2935,2.2916,2.2807,0.0,0.0,0.0,0.0,0.0,0.0,0.0,0.0,0.0,0.0,0.0,0.0,0.0,0.0,0.0,0.0,0.0,0.0,1.3777,1.3801,1.4003,1.4486,1.4956,1.5535,1.6275,1.6764,1.7238,1.7695,1.7959,1.7858,1.7384,1.7109,1.6754,1.6286,1.6084,1.5847,1.5601,1.5601,1.5447,1.5199,1.5203,1.4924,0.0,0.0,0.0,0.0,0.0,0.0,0.0,0.0,1.4894,1.4895,1.4824,1.4796,1.4838,1.5038,1.5308,1.5677,1.6491,1.7201,1.7942,1.8864,1.9865,2.0852,2.1802,2.1793,2.174,2.2224,2.2686,2.3181,2.3711,2.4186,2.4561,2.4775,2.5648,2.6498,2.7043,2.7735,2.8385,2.8933,2.9236,2.9296,2.9006,2.9006,2.8874,2.862,2.8837,2.8874,2.8608,2.8849,2.8619,2.7826,2.7357,2.685,2.6305,2.6024,2.5887,2.5887,2.6085,2.6046,2.5799,2.6014,2.581,2.5295,2.4754,2.4522,2.4471,2.3841,2.3486,2.3278,2.3071,2.3011,2.2983,2.2759,2.2708,2.2581,0.0,0.0,0.0,0.0,0.0,0.0,0.0,0.0,0.0,0.0,0.0,0.0,0.0,0.0,0.0,0.0,0.0,0.0,1.359,1.3715,1.3952,1.4264,1.487,1.5385,1.5806,1.6457,1.7017,1.7502,1.7378,1.719,1.6904,1.6635,1.6426,1.6286,1.6084,1.5959,1.5868,1.5681,1.5544,1.5468,1.5278,1.5034,1.4772,0.0,0.0,0.0,0.0,0.0,0.0,0.0,0.0,0.0,1.4824,1.4796,1.488,1.5266,1.5679,1.6171,1.6969,1.7815,1.8677,1.9464,2.038,2.1285,2.2051,2.2299,2.2546,2.3214,2.358,2.3892,2.4217,2.4693,2.5122,2.552,2.5987,2.6595,2.7477,2.7777,2.8125,2.8644,2.8789,2.8801,2.8729,2.8717,2.8681,2.8608,2.8669,2.8681,2.8596,2.8331,2.8042,2.7815,2.6971,2.6474,2.6305,2.5861,2.5626,2.5626,2.5862,2.6111,2.6356,2.6431,2.6446,2.6386,2.545,2.5064,2.4976,2.3843,2.3193,2.2863,2.2806,2.2708,2.2567,2.251,2.2491,2.2349,0.0,0.0,0.0,0.0,0.0,0.0,0.0,0.0,0.0,0.0,0.0,0.0,0.0,0.0,0.0,0.0,0.0,0.0,0.0,1.3556,1.3793,1.404,1.4841,1.5544,1.6093,1.6422,1.6677,1.6884,1.6887,1.6813,1.6688,1.642,1.6366,1.6457,1.6143,1.5992,1.5981,1.5713,1.5601,1.5591,1.5411,1.5167,1.4883,0.0,0.0,0.0,0.0,0.0,0.0,0.0,0.0,0.0,1.4664,1.4759,1.4932,1.5393,1.5953,1.6599,1.7452,1.8365,1.9302,2.0227,2.108,2.1933,2.2815,2.3149,2.3397,2.397,2.441,2.4756,2.4908,2.5412,2.588,2.6166,2.6584,2.7115,2.7718,2.7889,2.8093,2.8403,2.8427,2.8427,2.8427,2.8536,2.8596,2.8596,2.8596,2.8596,2.8596,2.8079,2.7718,2.7526,2.6729,2.6208,2.599,2.5664,2.5494,2.5494,2.5658,2.5952,2.6329,2.6523,2.6558,2.6391,2.5318,2.4728,2.4427,2.3463,2.291,2.2684,2.2614,2.2501,2.2387,2.2387,2.2387,2.224,0.0,0.0,0.0,0.0,0.0,0.0,0.0,0.0,0.0,0.0,0.0,0.0,0.0,0.0,0.0,0.0,0.0,0.0,0.0,1.3368,1.3618,1.3808,1.4828,1.5833,1.6774,1.6466,1.6216,1.6035,1.6411,1.6591,1.6559,1.6387,1.6431,1.6645,1.6218,1.6024,1.6013,1.5724,1.5601,1.5601,1.558,1.5304,1.4894,1.4873,0.0,0.0,0.0,0.0,0.0,0.0,0.0,0.0,1.44,1.4662,1.4991,1.5483,1.6155,1.6936,1.7912,1.8842,1.9844,2.1059,2.1911,2.2729,2.3905,2.4196,2.4317,2.4567,2.5169,2.5653,2.5722,2.6291,2.6748,2.6796,2.7327,2.7779,2.7828,2.8021,2.8162,2.8162,2.8162,2.8162,2.8162,2.8379,2.8524,2.8524,2.8524,2.85,2.8476,2.7936,2.7456,2.6975,2.6444,2.5924,2.5429,2.5429,2.5429,2.5429,2.5451,2.5593,2.5844,2.6329,2.6227,2.5631,2.4601,2.3813,2.3222,2.2844,2.2699,2.2636,2.2463,2.2387,2.2387,2.2387,2.2387,2.224,0.0,0.0,0.0,0.0,0.0,0.0,0.0,0.0,0.0,0.0,0.0,0.0,0.0,0.0,0.0,0.0,0.0,0.0,0.0,1.3545,1.3835,1.3881,1.4858,1.5585,1.5952,1.5677,1.5526,1.547,1.5717,1.5731,1.554,1.606,1.6329,1.6387,1.628,1.6237,1.6204,1.5785,1.5601,1.558,1.5368,1.5135,1.4873,1.4662,1.4293,0.0,0.0,0.0,0.0,0.0,0.0,0.0,1.4177,1.456,1.5024,1.5707,1.6408,1.7201,1.8343,1.9327,2.0339,2.1544,2.2665,2.367,2.4468,2.499,2.5343,2.5551,2.5734,2.6024,2.6646,2.6917,2.7132,2.7492,2.7519,2.7629,2.8057,2.7994,2.7896,2.7896,2.7896,2.7896,2.7896,2.7956,2.7969,2.7969,2.7969,2.7816,2.744,2.6898,2.6402,2.593,2.5409,2.5077,2.4958,2.4958,2.4958,2.4958,2.5152,2.5305,2.537,2.5833,2.5599,2.4814,2.4171,2.3469,2.2816,2.2746,2.2614,2.2453,2.2406,2.2387,2.2387,2.2387,2.2387,2.224,0.0,0.0,0.0,0.0,0.0,0.0,0.0,0.0,0.0,0.0,0.0,0.0,0.0,0.0,0.0,0.0,0.0,0.0,0.0,0.0,1.4318,1.4839,1.5364,1.5809,1.6175,1.5627,1.5347,1.5347,1.5289,1.5311,1.54,1.5929,1.622,1.6297,1.6209,1.6091,1.5931,1.5576,1.535,1.5246,1.5113,1.492,1.4683,1.4446,1.411,1.379,1.3696,0.0,0.0,0.0,0.0,0.0,0.0,0.0,1.5013,1.5631,1.6371,1.726,1.8472,1.9582,2.0807,2.2573,2.3643,2.4446,2.5181,2.5531,2.586,2.6344,2.663,2.6931,2.7346,2.7541,2.7723,2.7962,2.7771,2.7687,2.797,2.7787,2.7607,2.7607,2.7607,2.7607,2.7607,2.7716,2.7788,2.7788,2.7788,2.7601,2.7122,2.6595,2.609,2.562,2.509,2.4807,2.4807,2.4807,2.4807,2.4807,2.4937,2.509,2.5219,2.5424,2.5185,2.4568,2.3933,2.3286,2.2684,2.2605,2.2491,2.2387,2.2387,2.2387,2.2387,2.2387,2.2387,2.224,0.0,0.0,0.0,0.0,0.0,0.0,0.0,0.0,0.0,0.0,0.0,0.0,0.0,0.0,0.0,0.0,0.0,0.0,0.0,0.0,0.0,1.5791,1.5834,1.6039,1.6475,1.5752,1.5322,1.5254,1.5079,1.5142,1.5498,1.584,1.6084,1.6237,1.603,1.5815,1.558,1.5271,1.506,1.4894,1.4851,1.4708,1.4486,1.4288,1.4027,1.3779,1.3569,1.3506,1.3515,1.3642,0.0,0.0,0.0,0.0,1.4912,1.5382,1.6183,1.7157,1.8423,1.9869,2.1499,2.3619,2.452,2.5058,2.5799,2.6006,2.6237,2.6946,2.7381,2.7686,2.777,2.7973,2.8137,2.8137,2.792,2.7716,2.7716,2.7499,2.733,2.733,2.733,2.733,2.733,2.7523,2.7655,2.7655,2.7586,2.7353,2.6876,2.6328,2.5837,2.5346,2.49,2.4689,2.4689,2.4689,2.4689,2.4689,2.4721,2.4872,2.513,2.5123,2.4898,2.4447,2.3745,2.3157,2.2642,2.2463,2.2387,2.2387,2.2387,2.2387,2.2387,2.2387,2.2387,2.224,0.0,0.0,0.0,0.0,0.0,0.0,0.0,0.0,0.0,0.0,0.0,0.0,0.0,0.0,0.0,0.0,0.0,0.0,1.3859,0.0,0.0,1.5532,1.5544,1.5594,1.5656,1.5318,1.4992,1.4714,1.5066,1.5164,1.5002,1.5689,1.6013,1.6035,1.5767,1.5623,1.5569,1.5128,1.4912,1.4883,1.4651,1.454,1.4486,1.4288,1.4027,1.3779,1.3569,1.3506,1.3474,1.3265,1.3468,0.0,0.0,0.0,1.4648,1.5117,1.5797,1.6731,1.8225,2.0579,2.2883,2.406,2.4752,2.5354,2.6083,2.6431,2.6734,2.7243,2.7226,2.7251,2.7709,2.7837,2.7836,2.7836,2.7619,2.745,2.745,2.7221,2.7064,2.7064,2.7064,2.7064,2.7064,2.7089,2.7113,2.7113,2.6725,2.6303,2.5823,2.5285,2.4791,2.4319,2.4227,2.4181,2.4181,2.4181,2.4181,2.4204,2.4432,2.4658,2.4861,2.5069,2.4795,2.4042,2.3473,2.2949,2.2434,2.2406,2.2387,2.2387,2.2387,2.2387,2.2387,2.2387,2.2387,2.224,0.0,0.0,0.0,0.0,0.0,0.0,0.0,0.0,0.0,0.0,0.0,0.0,0.0,0.0,0.0,1.4292,1.4292,1.4304,1.435,1.4577,1.4863,1.5257,1.5278,1.5282,1.5282,1.5013,1.4787,1.4599,1.4913,1.5028,1.493,1.5642,1.5927,1.5782,1.5645,1.5451,1.5182,1.4991,1.4743,1.4517,1.4497,1.4494,1.4497,1.44,1.4221,1.3984,1.375,0.0,1.3493,1.3489,1.3629,1.386,1.4148,0.0,0.0,0.0,1.6031,1.7059,1.8985,2.0827,2.2588,2.405,2.4902,2.5571,2.63,2.6674,2.6922,2.7127,2.7086,2.7174,2.7717,2.7668,2.7571,2.7571,2.7354,2.7185,2.7185,2.7077,2.6933,2.6789,2.692,2.6944,2.6777,2.6897,2.6891,2.6618,2.6414,2.5947,2.5195,2.4932,2.4578,2.4107,2.4095,2.4095,2.4095,2.4095,2.4095,2.4095,2.4215,2.4387,2.4637,2.4745,2.4433,2.3755,2.3681,2.317,2.2387,2.2387,2.2387,2.2387,2.2387,2.2387,2.2387,2.2387,2.2387,2.224,0.0,0.0,0.0,0.0,0.0,0.0,0.0,0.0,0.0,0.0,0.0,0.0,0.0,0.0,0.0,0.0,1.4292,1.4413,1.469,1.4702,1.4823,1.5101,1.5028,1.4992,1.4992,1.4803,1.4679,1.4638,1.4833,1.4961,1.5015,1.5622,1.5825,1.5703,1.5623,1.5412,1.5067,1.4883,1.4646,1.4388,1.4479,1.4569,1.4677,1.4677,1.4583,1.4414,1.4167,0.0,0.0,0.0,0.0,1.4169,1.4571,1.4842,0.0,0.0,0.0,1.7464,1.9456,2.0814,2.2063,2.3821,2.4817,2.5556,2.6336,2.6715,2.6932,2.6992,2.7004,2.7125,2.7523,2.7426,2.7306,2.7306,2.7137,2.698,2.692,2.6908,2.6811,2.6524,2.6656,2.6727,2.6534,2.6691,2.6641,2.6303,2.6055,2.5603,2.4845,2.4572,2.4277,2.3935,2.3935,2.3935,2.3935,2.3989,2.4021,2.4021,2.4086,2.4204,2.44,2.4464,2.4187,2.3643,2.376,2.328,2.243,2.2309,2.2264,2.2312,2.2312,2.2349,2.2387,2.2387,2.2387,2.2265,0.0,0.0,0.0,0.0,0.0,0.0,0.0,0.0,0.0,0.0,0.0,0.0,1.3508,1.3978,1.4292,1.4292,1.4292,1.4413,1.469,1.4702,1.4823,1.5101,1.4859,0.0,1.4726,1.4714,1.4697,1.4693,1.4905,1.5085,1.5284,1.5503,1.5746,1.5959,1.5713,1.558,1.5515,1.4823,0.0,0.0,1.4608,1.4762,1.5156,1.5156,0.0,0.0,0.0,0.0,0.0,0.0,0.0,0.0,0.0,1.4999,1.5056,0.0,0.0,0.0,1.9069,2.0442,2.1878,2.3435,2.4434,2.5249,2.6051,2.6437,2.668,2.6956,2.7004,2.7016,2.704,2.704,2.7028,2.7028,2.7016,2.692,2.6656,2.662,2.6512,2.6256,2.6232,2.6232,2.622,2.6232,2.6232,2.6222,2.5383,2.4863,2.4796,2.3974,2.3462,2.344,2.344,2.344,2.344,2.3678,2.3808,2.3819,2.4,2.4118,2.414,2.4389,2.4217,2.3689,2.3436,2.3025,2.2464,2.2011,2.1934,2.2128,2.2128,2.2227,2.2387,2.2387,2.2387,2.2314,0.0,0.0,0.0,0.0,0.0,0.0,0.0,0.0,0.0,0.0,0.0,0.0,0.0,1.4087,1.4292,1.4292,1.4147,1.4003,1.3931,1.4087,1.422,1.4328,1.4389,1.4437,1.4437,1.4437,1.4447,1.4435,1.4822,1.5041,1.5121,1.5832,1.6228,1.6317,1.6005,1.5756,1.5569,1.5142,1.4927,0.0,0.0,0.0,1.549,0.0,0.0,0.0,0.0,0.0,0.0,0.0,0.0,0.0,0.0,0.0,1.5151,1.5584,1.6432,1.7461,1.8637,1.9826,2.1069,2.2476,2.3543,2.4439,2.5246,2.5764,2.6172,2.6437,2.6486,2.6486,2.6486,2.6775,2.6933,2.6765,2.6728,2.6654,2.6389,2.6353,2.6244,2.5979,2.61,2.6136,2.5967,2.61,2.6086,2.5767,2.5149,2.4674,2.4374,2.3753,2.3397,2.3397,2.3397,2.3397,2.3397,2.3505,2.3548,2.3548,2.3785,2.3904,2.3927,2.4152,2.4144,2.3937,2.3535,2.3041,2.2449,2.1982,2.183,2.1915,2.2038,2.2132,2.2217,2.234,2.2387,2.2314,0.0,0.0,0.0,0.0,0.0,0.0,0.0,0.0,0.0,0.0,0.0,0.0,0.0,0.0,1.44,1.4304,1.4051,1.3822,1.3653,1.3713,1.3809,1.3906,1.4075,1.4208,1.4304,1.4292,1.434,1.443,1.466,1.4892,1.5147,1.582,1.6208,1.6364,1.6135,1.6023,1.6001,1.5679,0.0,1.559,0.0,0.0,1.6475,0.0,0.0,0.0,0.0,0.0,0.0,0.0,0.0,0.0,0.0,0.0,0.0,1.5797,1.6346,1.7046,1.8025,1.9016,2.0079,2.1426,2.2543,2.3531,2.4403,2.5005,2.5533,2.5979,2.6063,2.6143,2.6382,2.6742,2.6858,2.652,2.6473,2.6377,2.61,2.6063,2.5967,2.5702,2.5834,2.587,2.5668,2.5834,2.5812,2.5485,2.5026,2.4632,2.4325,2.3732,2.3336,2.3182,2.3182,2.3182,2.3182,2.3235,2.3256,2.3267,2.3538,2.3679,2.3656,2.3904,2.3989,2.3977,2.3571,2.3064,2.2494,2.2032,2.1787,2.1731,2.1905,2.2028,2.2113,2.2336,2.2387,2.2338,0.0,0.0,0.0,0.0,0.0,0.0,0.0,0.0,0.0,1.429,0.0,0.0,0.0,0.0,0.0,1.4352,1.4074,1.3917,1.3905,1.3652,1.3616,1.3882,1.3906,1.4026,1.4292,1.4292,1.4425,1.4678,1.4431,1.4669,1.5368,1.5392,1.5658,1.6094,1.6094,1.6408,1.6872,1.6407,1.6472,1.6876,0.0,1.7238,1.8105,0.0,0.0,0.0,1.8543,1.8253,0.0,1.7862,0.0,0.0,0.0,0.0,0.0,0.0,0.0,1.6479,0.0,0.0,0.0,2.0337,2.1462,2.2526,2.3531,2.4214,2.4839,2.5636,2.5805,2.602,2.6747,2.6862,2.6731,2.627,2.6216,2.6122,2.5856,2.5798,2.5702,2.5427,2.5391,2.5379,2.5379,2.5379,2.5379,2.5379,2.4952,2.4695,2.4707,2.387,2.3182,2.2751,2.2708,2.2708,2.2708,2.2901,2.2998,2.2998,2.3256,2.3386,2.3397,2.3679,2.3787,2.3785,2.352,2.312,2.259,2.2106,2.1747,2.1503,2.1731,2.1915,2.2128,2.2312,2.2387,2.2387,0.0,0.0,0.0,0.0,0.0,1.3795,1.4139,1.4186,1.4361,0.0,0.0,0.0,0.0,1.5378,1.5178,1.4904,1.4416,1.403,1.3841,1.362,1.3618,1.389,1.3902,1.4026,1.4292,1.4292,1.4244,1.4123,1.4436,1.4591,1.4614,1.5196,1.5657,1.5951,1.6154,1.6535,1.7007,1.6388,1.6428,1.6937,1.7249,1.7795,0.0,0.0,0.0,0.0,0.0,1.9551,1.932,0.0,1.8719,1.7795,0.0,0.0,0.0,0.0,0.0,0.0,1.7107,0.0,0.0,0.0,0.0,0.0,2.2904,2.3904,2.4791,2.5437,2.5745,2.5929,2.6129,2.6184,2.6218,2.6334,2.6397,2.6321,2.6059,2.5714,2.5475,2.5403,2.5234,2.5114,2.5114,2.4954,2.4897,2.5102,2.4712,2.4561,2.4695,2.387,2.3333,2.3204,2.288,2.2708,2.2708,2.2751,2.2783,2.2783,2.3009,2.3105,2.3116,2.3386,2.3613,2.3797,2.3726,2.349,2.3097,2.2245,2.166,2.1314,2.165,2.183,2.1915,2.2264,2.2387,2.2387,0.0,0.0,0.0,0.0,0.0,1.4734,1.5083,1.5131,1.5296,0.0,0.0,0.0,0.0,0.0,1.5591,1.5286,1.4841,1.4397,1.3991,1.3754,1.3751,1.4004,1.3939,1.4081,1.446,1.4364,1.4171,1.3894,1.4328,1.4449,1.4304,1.4883,1.5318,1.5572,1.585,1.6201,1.6596,1.6417,1.6847,0.0,1.8109,0.0,0.0,1.9981,2.0468,0.0,0.0,0.0,2.0562,2.0562,1.9704,0.0,0.0,0.0,0.0,0.0,0.0,0.0,0.0,0.0,1.8538,1.9368,0.0,0.0,2.2316,2.3178,2.3966,2.4791,2.5083,2.532,2.5744,2.5823,2.5974,2.6496,2.6458,2.6306,2.6142,2.5869,2.5577,2.5267,2.5102,2.4957,2.4836,2.468,2.4656,2.4812,2.4616,2.4457,2.4409,2.3934,2.3468,2.3076,2.28,2.2587,2.2406,2.2482,2.2535,2.2546,2.2761,2.288,2.288,2.3127,2.3332,2.3495,2.3711,2.3578,2.3191,2.2721,2.2116,2.1498,2.1621,2.174,2.183,2.2151,2.2321,2.2387,0.0,0.0,1.4594,1.5146,1.5511,1.5879,1.6325,1.6428,1.6543,0.0,1.6887,1.6813,1.6571,1.6316,1.6061,1.5754,1.5396,1.4961,1.4413,1.4072,1.401,1.4279,1.4101,1.4225,1.4723,1.4484,1.4219,1.3941,1.4147,1.4256,1.4256,1.4497,1.4775,1.5077,1.5342,1.562,1.5935,1.6465,1.7467,1.8726,1.9016,1.9789,0.0,0.0,2.177,2.2066,2.2296,2.2066,2.1631,2.1492,2.0458,0.0,0.0,0.0,0.0,0.0,1.7352,0.0,0.0,0.0,0.0,1.9496,2.011,0.0,2.1793,2.2294,2.2851,2.3927,2.4189,2.4483,2.5414,2.5583,2.5806,2.6507,2.6347,2.6142,2.6146,2.6068,2.5782,2.5107,2.4954,2.4812,2.458,2.4532,2.4511,2.4556,2.4592,2.4439,2.4087,2.4025,2.3601,2.2717,2.2634,2.2404,2.1986,2.218,2.2277,2.2277,2.2503,2.2643,2.2654,2.2847,2.2955,2.303,2.3505,2.3473,2.3107,2.327,2.2777,2.1882,2.1666,2.1655,2.1782,2.2009,2.2208,2.2359,0.0,1.5239,1.5451,1.5967,1.634,1.6663,1.6984,1.721,1.7436,1.7716,1.7983,1.8129,1.8075,1.7596,1.7264,1.7198,1.6246,1.5613,1.5494,1.4821,1.4562,1.4837,1.4654,1.4692,1.5011,1.476,1.448,1.4221,1.4059,1.3978,1.3978,1.4027,1.4316,1.4787,1.5052,1.5451,1.5935,1.6465,1.7467,1.8738,1.9237,2.0192,2.1396,2.1946,2.2441,2.2884,2.2932,2.2751,2.2332,2.1474,2.0543,1.9596,0.0,0.0,0.0,1.7902,0.0,0.0,0.0,0.0,0.0,0.0,0.0,0.0,2.1454,2.2234,2.3007,2.3721,2.4052,2.433,2.4735,2.4802,2.4945,2.5352,2.5548,2.5845,2.6434,2.5894,2.5392,2.526,2.4713,2.433,2.427,2.4077,2.4041,2.4258,2.4483,2.4563,2.448,2.417,2.3734,2.3174,2.2801,2.2404,2.2007,2.204,2.2061,2.2061,2.2104,2.2212,2.2385,2.2407,2.2643,2.3008,2.3105,2.333,2.3617,2.3229,2.2612,2.1905,2.2016,2.1865,2.1598,2.1976,2.2113,2.217,1.588,1.6033,1.6315,1.6857,1.7199,1.749,1.7796,1.7956,1.8103,1.8236,1.8397,1.8504,1.8504,1.8237,1.7929,1.7635,1.706,1.6447,1.5848,1.5423,1.5206,1.5206,1.4962,1.4988,1.5297,1.5047,1.469,1.424,1.4159,1.4031,1.3897,1.3903,1.4195,1.4702,1.498,1.5403,1.5934,1.6624,1.7602,1.8762,1.9426,0.0,2.177,2.2441,2.2937,2.3261,2.3393,2.3208,2.2763,2.1813,2.1063,0.0,0.0,1.9382,1.9181,0.0,1.9319,1.9548,0.0,0.0,0.0,2.0109,0.0,0.0,0.0,2.1573,2.197,2.2572,2.2813,2.2983,2.3243,2.3416,2.3603,2.3946,2.4374,2.4829,2.533,2.5449,2.5304,2.4723,2.4326,2.3971,2.3679,2.3526,2.3522,2.3655,2.3788,2.39,2.3993,2.3803,2.3559,2.326,2.2842,2.2391,2.1939,2.1842,2.1793,2.1793,2.1932,2.2115,2.2288,2.2288,2.2503,2.2858,2.2955,2.3137,2.3396,2.3397,2.3023,2.2416,2.2162,2.182,2.1513,2.1731,2.1849,2.1971,1.6441,1.6688,1.7054,1.7582,1.7916,1.8209,1.8531,1.8638,1.8678,1.8678,1.8718,1.8758,1.8758,0.0,0.0,1.7996,1.7729,1.7194,1.622,1.5981,1.5793,1.5578,1.5289,1.5274,1.5545,1.5309,1.4948,1.4452,1.4338,1.4235,1.4123,1.4004,1.4278,1.4862,1.5129,1.5553,1.6111,1.6904,1.7844,1.8846,1.9704,2.0792,2.1994,2.278,2.3212,2.3431,2.3704,2.3519,2.3046,2.2308,2.1758,2.127,2.0738,2.0464,0.0,0.0,0.0,0.0,0.0,0.0,0.0,0.0,0.0,2.0426,0.0,0.0,0.0,2.1301,2.1438,2.1502,2.178,2.2004,2.2245,2.2502,2.3014,2.3438,2.3679,2.448,2.4772,2.3971,2.3828,2.3535,2.3007,2.2956,2.2956,2.2956,2.2993,2.3087,2.3265,2.3306,2.3265,2.3128,2.274,2.2321,2.1902,2.1663,2.1535,2.1535,2.177,2.1965,2.2181,2.2224,2.2374,2.2632,2.2847,2.2965,2.303,2.3484,2.3396,2.2948,2.2303,2.1844,2.1578,2.1522,2.1608,2.1763,1.7088,1.7128,1.7315,1.7849,1.8223,1.8544,1.881,1.9119,1.9294,1.9294,1.9507,1.9653,0.0,0.0,0.0,0.0,0.0,0.0,1.7408,0.0,1.623,1.6203,1.5876,1.5732,1.5772,1.5571,1.5412,1.5347,1.459,1.4465,1.4957,1.4429,1.4621,1.5417,1.5693,1.6109,1.665,1.7462,1.8294,1.9152,2.0192,2.1135,0.0,2.278,2.3212,2.3431,2.3704,2.3619,2.3282,0.0,2.249,2.2193,0.0,2.1378,2.164,2.1427,0.0,0.0,0.0,0.0,0.0,0.0,2.1074,0.0,0.0,0.0,2.0359,2.0724,0.0,2.0884,2.1149,0.0,0.0,2.1309,2.1606,2.1866,2.189,2.2398,2.2955,2.3401,2.3161,2.2792,2.243,2.2381,2.2381,2.2381,2.2598,2.2763,2.278,2.2997,2.3037,2.2858,2.2454,2.212,2.1891,2.152,2.1339,2.1339,2.1361,2.148,2.1686,2.1933,2.2159,2.2363,2.2622,2.2848,2.3008,2.3062,2.3053,2.2971,2.2637,2.2241,2.1828,2.1592,2.1503,2.156,1.727,1.7327,1.7555,1.7929,1.8276,1.8584,1.8864,1.9172,1.9455,1.9614,1.972,1.9867,0.0,0.0,0.0,0.0,0.0,1.8505,0.0,0.0,1.6979,1.6831,1.65,1.6247,1.6086,1.6013,1.5781,1.5438,1.4956,1.4831,1.504,1.4822,1.5172,1.5986,1.623,1.6855,1.7722,1.8344,1.9052,1.9902,2.0949,2.1692,2.2199,2.2859,2.3329,2.3655,2.3764,2.3631,2.3374,0.0,2.2996,0.0,0.0,0.0,0.0,2.2568,0.0,0.0,0.0,0.0,0.0,0.0,0.0,0.0,2.0439,0.0,1.9774,0.0,0.0,0.0,0.0,0.0,0.0,0.0,2.0227,2.0565,2.0565,2.1058,2.1671,2.2392,2.2494,2.2294,2.1723,2.149,2.1438,2.1583,2.1704,2.1988,2.2441,2.2562,2.274,2.2967,2.2549,2.2245,2.2091,2.1632,2.1388,2.1296,2.1296,2.1414,2.161,2.1889,2.2105,2.2299,2.2579,2.274,2.2826,2.2944,2.3006,2.2987,2.2747,2.2346,2.1849,2.1472,2.1338,2.1352,1.7501,0.0,1.79,1.8198,1.8455,1.8726,1.909,1.9512,1.9823,0.0,0.0,0.0,2.0439,2.0532,0.0,0.0,1.9881,1.94,0.0,0.0,1.7715,1.7434,1.7047,0.0,0.0,1.6458,1.6151,1.5643,1.5411,1.5306,1.5362,1.5316,1.5788,1.6665,1.701,1.7749,1.876,1.9413,2.0029,2.0724,2.1728,2.2425,2.292,2.3121,2.3442,2.38,2.38,2.3759,2.3724,2.3724,2.3616,0.0,2.3647,0.0,2.3477,0.0,0.0,0.0,2.2913,0.0,0.0,0.0,0.0,0.0,0.0,0.0,0.0,0.0,0.0,0.0,0.0,0.0,1.9159,1.8837,0.0,1.9439,1.9439,1.988,2.0489,2.1247,2.1538,2.1454,2.0913,2.0632,2.0561,2.0773,2.0922,2.1268,2.1933,2.2115,2.2429,2.298,2.2549,2.2307,2.2369,2.1794,2.1479,2.1458,2.1357,2.1382,2.1534,2.1856,2.2072,2.2234,2.2557,2.2708,2.2719,2.2858,2.2944,2.2975,2.2704,2.2413,2.2076,2.1653,2.1536,2.1604,1.7987,1.8186,0.0,1.8802,1.8885,1.9095,1.9682,2.0326,0.0,0.0,0.0,0.0,0.0,0.0,0.0,0.0,0.0,2.0065,1.9773,0.0,1.8316,0.0,0.0,1.7179,0.0,0.0,1.6552,1.627,1.594,1.5941,1.6245,1.5941,1.6409,1.7582,1.8103,1.8799,1.9625,2.0688,2.1265,2.1528,2.2345,2.3375,2.4358,0.0,2.3551,2.38,2.38,0.0,0.0,2.4165,2.4423,0.0,0.0,0.0,0.0,0.0,0.0,0.0,0.0,0.0,0.0,2.2472,0.0,0.0,0.0,0.0,1.9401,0.0,0.0,0.0,0.0,0.0,0.0,0.0,1.8531,0.0,0.0,1.877,1.9252,2.0063,2.0106,2.0049,2.0033,1.9962,1.9928,1.994,2.0413,2.0833,2.1111,2.1631,2.2163,2.2702,2.2257,2.2256,2.2784,2.1933,2.1618,2.1882,2.1498,2.1296,2.1328,2.1802,2.1997,2.2029,2.2503,2.2708,2.2708,2.2719,2.2815,2.2943,2.2492,2.2462,2.2647,2.2368,2.2376,2.2544,0.0,0.0,0.0,1.8615,1.8758,1.9178,0.0,2.051,0.0,0.0,0.0,0.0,0.0,2.1897,2.194,0.0,0.0,2.0991,2.0681,2.0012,0.0,0.0,0.0,1.8878,0.0,0.0,1.786,1.7163,1.6827,1.662,1.6567,1.686,1.7422,1.8237,1.8943,1.9946,2.117,2.1839,2.2618,2.3493,2.4302,2.4863,2.5196,0.0,2.4899,2.4961,2.4734,2.4751,0.0,2.4884,2.5011,2.5152,2.5027,2.5012,2.5031,2.4957,2.493,0.0,0.0,0.0,2.3821,2.2957,0.0,0.0,0.0,0.0,0.0,0.0,0.0,0.0,0.0,0.0,1.8477,1.7983,1.7755,1.7568,0.0,1.7582,1.7942,1.839,1.8902,1.921,1.921,1.9196,1.9234,1.9359,1.9862,2.0366,2.0797,2.1335,2.1813,2.2163,2.2183,2.2219,2.2275,2.1887,2.1691,2.1618,2.1402,2.1296,2.1317,2.1781,2.1996,2.2029,2.2503,2.2708,2.2708,2.2708,2.2729,2.2783,2.2631,2.2693,2.286,2.2454,2.2343,2.2411,1.9301,0.0,0.0,0.0,0.0,0.0,0.0,0.0,0.0,0.0,2.2309,0.0,2.2896,0.0,2.2716,0.0,2.2398,2.193,2.1574,2.1029,0.0,2.0796,2.0525,0.0,0.0,1.971,1.9081,1.8242,1.7808,1.7503,1.7349,1.7621,1.813,1.8865,1.9696,2.0802,2.2085,2.28,2.3721,2.4776,2.5741,2.6064,2.5974,0.0,2.5878,2.5384,0.0,2.5209,2.535,2.5446,2.5498,2.5569,2.5654,2.5598,2.5499,2.5499,2.5499,2.5424,2.5031,2.4759,0.0,2.3572,2.2756,0.0,2.1419,0.0,0.0,0.0,0.0,0.0,0.0,0.0,1.8304,1.7689,1.738,1.7086,0.0,1.6886,1.7086,1.7261,1.7926,1.8405,1.8523,1.8513,1.8648,1.8965,1.9383,1.9891,2.0527,2.1079,2.1516,2.1897,2.2163,2.2267,2.2246,2.1989,2.1828,2.1746,2.1503,2.1362,2.1307,2.1695,2.191,2.2007,2.2406,2.2611,2.2708,2.2708,2.2708,2.2708,2.2708,2.2783,2.2889,2.2736,2.2804,2.2959,0.0,0.0,0.0,0.0,1.9887,0.0,0.0,0.0,2.2762,0.0,2.3605,2.3924,2.3941,2.3859,2.3817,2.383,2.3281,0.0,2.2468,2.2,0.0,0.0,2.153,2.1397,2.1442,2.0837,0.0,0.0,0.0,1.8549,1.8509,1.8185,1.8543,1.9455,2.0338,2.1332,2.2419,2.3549,2.4519,2.5386,2.6609,2.691,2.6656,2.7119,2.641,2.515,2.515,2.5435,2.5832,2.5832,2.5905,2.6011,2.6011,2.5804,2.5539,2.5539,2.5539,2.5539,2.5545,2.5112,2.4604,2.4302,0.0,0.0,0.0,0.0,2.0715,0.0,0.0,0.0,0.0,0.0,0.0,1.7729,1.7353,1.7019,1.67,1.666,1.666,1.666,1.7154,1.7622,1.7916,1.7962,1.8201,1.8729,1.8968,1.9433,2.0216,2.0783,2.1317,2.1849,2.2139,2.2405,2.269,2.2227,2.2063,2.2199,2.1735,2.145,2.1347,2.1513,2.1749,2.2007,2.2202,2.2449,2.2708,2.2708,2.2708,2.2708,2.2708,2.2719,2.2794,2.3235,2.3698,2.4095,2.0295,2.04,2.0765,0.0,2.1174,2.1233,0.0,0.0,0.0,0.0,2.4268,2.4401,2.4553,2.432,2.4138,2.4111,2.3772,0.0,0.0,0.0,0.0,2.3404,2.3555,2.3571,2.3396,2.2728,0.0,2.0816,0.0,1.9237,1.8796,1.8709,1.9037,1.9748,2.0601,2.1752,2.3099,2.404,2.5209,2.6446,2.7018,2.7059,2.6752,0.0,2.6567,2.607,2.607,2.6129,2.6248,2.6248,2.6274,2.6299,2.6299,2.6246,2.6159,2.6159,2.6159,2.6139,2.5944,2.5751,2.5457,2.4684,2.411,2.3598,0.0,0.0,0.0,0.0,0.0,0.0,0.0,0.0,0.0,1.8127,1.6945,1.6127,1.6048,1.6035,1.6035,1.6035,1.618,1.6474,1.6981,1.7449,1.7833,1.8175,1.8801,1.9321,1.9689,2.0401,2.0954,2.1293,2.1764,2.2127,2.2393,2.2132,2.2124,2.2334,2.1764,2.159,2.1741,2.1635,2.176,2.1997,2.2213,2.2449,2.2708,2.2708,2.2708,2.2708,2.2708,2.2902,2.3225,2.3354,2.3698,2.4095,2.1599,0.0,0.0,2.2873,0.0,0.0,2.3179,2.3545,0.0,2.5024,2.5126,0.0,2.5678,2.539,2.5166,2.5121,2.4861,0.0,2.4229,0.0,0.0,2.4649,2.4839,2.4869,2.473,2.4086,0.0,2.2307,0.0,2.0328,1.9721,1.9435,1.9542,2.0012,2.0759,2.1921,2.3385,2.4791,2.5926,2.6834,2.7168,2.7115,0.0,2.6807,2.662,2.6406,2.6406,2.6406,2.6373,2.6259,2.6219,2.6192,2.6052,2.6012,2.6012,2.6012,2.6012,2.5972,2.5831,2.5703,2.547,2.4957,2.4631,2.4318,2.3741,2.3532,2.3234,0.0,0.0,0.0,0.0,0.0,0.0,1.8095,1.6932,1.6152,0.0,1.5888,1.5808,1.5808,1.5808,1.5941,1.6262,1.6753,1.725,1.7793,1.8219,1.8721,1.934,1.9997,2.0591,2.1075,2.1619,2.203,2.2296,2.2197,2.2153,2.2221,2.1991,2.1939,2.2007,2.1829,2.1931,2.2269,2.2189,2.2374,2.2708,2.2708,2.2708,2.2708,2.2708,2.2999,2.3397,2.3397,2.3698,2.4095,0.0,0.0,0.0,0.0,0.0,0.0,0.0,2.4644,0.0,2.6058,0.0,2.6325,2.6909,2.6649,2.6411,2.6355,0.0,2.5832,2.5602,2.5357,2.5377,2.5734,2.5758,2.573,2.569,2.5052,0.0,0.0,0.0,2.1427,2.0791,2.0119,1.9946,2.0224,2.0826,2.1961,2.355,2.5424,2.6413,2.6714,2.7048,2.7021,2.674,2.674,2.6613,2.6406,2.6406,2.6406,2.6366,2.6091,2.5998,2.5944,2.5611,2.5499,2.5499,2.5499,2.5499,2.5518,2.5556,2.5407,2.5225,2.5241,2.5101,2.4832,2.4221,2.4153,2.393,2.3034,2.2645,2.2236,0.0,0.0,0.0,1.8007,1.723,0.0,0.0,0.0,1.5889,1.5861,1.5861,0.0,1.5796,1.6099,1.6645,1.7475,1.752,1.7978,1.9092,1.9588,2.0197,2.0966,2.1547,2.1982,2.2248,2.2284,2.2241,2.2093,2.2294,2.2369,2.2261,2.2072,2.2187,2.2548,2.2226,2.2297,2.2643,2.2697,2.2708,2.2708,2.2718,2.2988,2.3365,2.3418,2.3709,2.4075,0.0,0.0,0.0,0.0,0.0,2.5839,2.6416,2.6076,2.612,2.7104,2.7239,2.7248,2.731,2.724,2.707,2.6734,2.6654,0.0,0.0,0.0,0.0,2.7052,2.7123,2.7016,2.6749,2.581,2.492,0.0,0.0,2.167,2.0791,2.0119,1.9946,2.0224,2.0826,2.2205,2.4102,2.4957,2.5644,2.6152,2.6446,2.6507,2.6466,2.6466,2.6426,2.6406,2.6406,2.6406,2.6366,2.6091,2.5998,2.5944,2.5611,2.5499,2.5499,2.5499,2.5499,2.5575,2.59,2.5954,2.5935,2.5981,2.5992,2.5801,2.5254,2.5154,2.4976,2.4366,2.3998,2.356,2.289,0.0,0.0,0.0,0.0,0.0,0.0,0.0,1.646,1.6231,1.6205,1.6099,1.5821,1.6099,1.6565,1.722,1.7409,1.7898,1.8817,1.9324,1.9838,2.0422,2.1184,2.1698,2.197,2.2187,2.2392,2.2581,2.2468,2.2506,2.2697,2.2533,2.2423,2.2355,2.2441,2.2453,2.2385,2.26,2.2708,2.2729,2.288,2.2998,2.3116,2.357,2.3787,2.3884,0.0,0.0,0.0,0.0,0.0,0.0,0.0,2.7847,2.7759,2.7711,2.7696,2.7771,2.7902,2.7912,2.7836,2.7645,2.7626,2.7554,2.7382,2.7552,2.7593,2.7472,2.748,0.0,2.7016,2.6175,2.5388,2.4617,0.0,0.0,2.1254,2.0582,2.0431,2.0766,2.2045,2.3294,2.4503,2.5296,2.5768,2.6024,2.6299,2.6406,2.6406,2.6406,2.6406,2.6406,2.6406,2.6406,2.6366,2.6091,2.5871,2.5697,2.5384,2.5165,2.5082,2.5289,2.5345,2.5439,2.5837,2.593,2.5945,2.5978,2.6026,2.5927,2.5495,2.5434,2.5293,2.4713,2.447,2.4044,2.3031,2.17,0.0,0.0,0.0,0.0,0.0,0.0,1.6913,1.6778,1.6484,1.6244,1.6084,1.6046,1.6231,1.6698,1.695,1.7387,1.8092,1.8748,1.9385,2.0071,2.0864,2.1498,2.1909,0.0,2.2357,2.249,2.2678,2.2844,2.2948,2.2923,2.2916,2.2965,2.271,2.262,2.2671,2.2697,2.2708,2.2719,2.2815,2.2912,2.303,2.3278,2.3461,2.3645,0.0,2.8576,0.0,0.0,2.8886,2.9106,2.9246,2.9464,2.9306,2.8442,2.834,2.8394,2.8603,2.8618,2.8588,2.8496,2.8515,2.8379,2.8131,2.8116,2.8018,2.7807,2.7675,2.7452,2.7203,2.6409,2.5696,0.0,0.0,0.0,0.0,2.116,2.1154,2.1671,2.3285,2.4355,2.4998,0.0,2.6181,2.6283,2.6541,2.6663,2.6663,2.6663,2.6663,2.6663,2.6663,2.6663,2.6622,2.6412,2.6024,2.5579,2.5302,2.5063,2.4931,2.5226,2.5318,2.541,2.5818,2.5928,2.5946,2.6038,2.6047,2.5948,2.56,2.5511,2.5342,2.4822,2.4646,2.4205,2.2944,2.2096,0.0,0.0,0.0,0.0,0.0,0.0,1.7354,1.7287,1.6818,1.6431,1.631,1.6059,1.6019,1.6284,1.6553,1.6977,1.7579,1.83,1.9077,1.986,2.0638,2.1268,2.1825,0.0,2.2248,2.2308,2.2847,2.3101,2.3114,2.3262,2.3397,2.3496,2.3024,2.289,2.2989,2.2783,2.2708,2.2708,2.2708,2.2805,2.2933,2.2987,2.3127,2.3386,0.0,0.0,0.0,0.0,0.0,3.0521,3.0543,3.0455,3.0235,2.9771,2.971,2.9608,2.9344,2.93,2.9183,2.8871,2.8842,2.8842,2.8798,2.8798,2.8803,2.8773,2.8193,2.7853,2.7824,2.6611,2.5696,0.0,0.0,2.292,0.0,2.1633,2.2081,2.2951,2.368,0.0,0.0,2.6112,2.6583,2.7117,2.7371,2.7496,2.7496,2.7496,2.7496,2.7496,2.7496,2.7496,2.7476,2.7468,2.6826,2.5998,2.5717,2.5658,2.5708,2.5726,2.5745,2.5836,2.6221,2.633,2.6436,2.6801,2.6644,2.6359,2.602,2.5717,2.5415,2.5115,2.4807,2.4278,2.3236,2.2973,2.2622,0.0,0.0,0.0,0.0,0.0,1.7836,1.7582,1.73,1.6898,1.6351,1.627,1.627,1.6297,1.6542,1.7067,1.79,1.8419,1.9074,1.9875,2.0444,2.0985,2.1528,2.1794,2.2066,2.2308,2.2847,2.3101,2.3114,2.3539,2.3564,2.3258,2.3435,2.3303,2.2989,2.2783,2.2708,2.2708,2.2708,2.2719,2.274,2.2922,2.3019,2.3073,0.0,0.0,0.0,0.0,0.0,0.0,0.0,3.204,3.2066,3.1899,3.0717,2.9848,2.971,2.9716,2.9584,2.9227,2.9198,2.9125,2.89,2.8905,2.8812,2.8603,2.8145,2.7824,2.7652,2.6778,2.5971,0.0,0.0,0.0,0.0,0.0,0.0,0.0,0.0,2.5873,2.6478,2.6989,2.721,2.7219,2.7488,2.7594,2.7594,2.7594,2.7594,2.7594,2.7594,2.7594,2.7594,2.7594,2.7092,2.643,2.6338,2.6075,2.5855,2.6093,2.6166,2.6239,2.6655,2.6765,2.6801,2.6947,2.6749,2.6413,2.6073,2.5751,2.5415,2.5159,2.4836,2.4485,2.4073,2.3501,2.2988,0.0,0.0,0.0,0.0,0.0,0.0,1.8224,1.7729,1.7274,1.6872,1.6658,1.6539,1.6539,1.6647,1.7013,1.772,0.0,1.8829,1.9623,2.0182,2.0792,2.1492,2.1776,2.2042,2.2308,2.2847,2.3101,2.3126,2.3579,2.3675,2.3446,2.354,2.3529,2.3402,2.3333,2.3221,2.3117,2.3117,2.2945,2.2719,2.2794,2.2826,2.2848,3.337,0.0,3.3695,0.0,3.3542,3.3573,3.3284,3.3316,3.3422,3.3422,3.1932,3.0753,3.0403,3.0279,3.0027,2.9584,2.9447,2.93,2.9066,2.8944,2.8798,2.8559,2.8233,0.0,2.7759,2.713,2.6471,2.5778,2.5271,0.0,0.0,0.0,0.0,0.0,2.65,2.7129,2.7524,2.8038,2.8113,2.7855,2.8063,2.8072,2.7986,2.7986,2.7986,2.7986,2.7986,2.7986,2.7972,2.7868,2.7485,2.7027,2.6913,2.6532,2.6202,2.6491,2.6582,2.6637,2.691,2.7002,2.7002,2.7002,2.6749,2.6442,2.619,2.581,2.5415,2.5159,2.491,2.4719,2.4617,2.3941,2.3369,2.3267,0.0,0.0,0.0,2.0463,0.0,1.8724,1.8171,1.7727,1.734,1.71,1.7007,1.7075,1.7168,1.741,1.7831,0.0,0.0,0.0,0.0,0.0,2.1636,2.1813,2.2042,2.2308,2.2756,2.3029,2.3126,2.3579,2.3748,2.3664,2.3612,2.3668,2.3773,2.3727,2.358,2.3397,2.3397,2.3117,2.2708,2.2708,2.2708,2.2708,3.4414,3.4493,3.4493,3.4472,3.4472,3.4472,3.4472,3.4149,3.3874,3.3874,3.347,3.2728,3.1604,3.1203,3.0691,2.9961,2.9579,2.9403,2.9388,2.9081,2.8905,0.0,0.0,2.8394,2.8394,2.7788,2.7163,2.6486,0.0,0.0,2.4602,0.0,2.5839,2.653,2.7458,2.8247,2.89,2.9242,2.9388,2.9369,2.9369,2.9178,2.8866,2.8866,2.8866,2.8866,2.8866,2.8866,2.8822,2.8511,2.817,2.7817,2.7425,2.7142,2.6983,2.6983,2.6983,2.6983,2.7002,2.7002,2.7002,2.7002,2.6749,2.65,2.65,2.5985,2.5415,2.5159,2.5102,2.4983,2.4661,2.4307,2.3985,2.3663,0.0,0.0,0.0,2.0882,0.0,1.9015,1.8646,1.8251,1.7648,1.7582,1.7702,1.7969,1.829,1.8491,0.0,0.0,0.0,2.0945,2.1124,0.0,2.1984,2.194,2.2042,2.2296,2.2593,2.2847,2.3126,2.3579,2.3812,2.3784,2.3664,2.3748,2.3977,2.3773,2.358,2.3397,2.3397,2.3117,2.2708,2.2708,2.2708,2.2708,3.5573,3.5589,3.5526,3.5293,3.5261,3.5261,3.5261,3.5132,3.5067,3.5067,3.4674,3.4182,3.3553,3.239,3.1395,0.0,3.0303,2.998,0.0,2.9418,2.9242,2.9242,2.8705,2.8394,2.8394,2.7984,2.7579,2.7192,0.0,0.0,0.0,2.6679,2.7203,2.7828,2.834,2.8944,2.9599,2.9701,2.9613,2.9403,2.9403,2.9198,2.8905,2.8905,2.8905,2.8905,2.8905,2.8905,2.8842,2.8496,2.8189,2.7849,2.7532,2.7242,2.7002,2.7002,2.7002,2.7002,2.7002,2.7002,2.7002,2.7002,2.691,2.6778,2.6559,2.5985,2.5415,2.5159,2.5102,2.5073,2.4954,2.4485,2.4073,2.3956,2.3305,0.0,2.1807,0.0,2.0826,1.9654,1.9278,1.8947,1.8537,1.8319,1.833,1.8596,1.8918,1.9106,0.0,0.0,0.0,0.0,2.1497,0.0,2.2341,2.2318,2.2319,2.2296,2.2562,2.2906,2.3314,2.3643,2.38,2.3792,2.3756,2.3895,2.4158,2.4255,2.4223,2.4111,2.423,2.3827,2.3182,2.3182,2.2967,2.2708,3.613,3.6114,3.6002,3.5659,3.5595,3.5595,3.5595,3.5595,3.5595,3.5595,3.5383,3.5084,3.4662,3.3588,0.0,3.1463,3.0912,3.0465,3.0097,2.9754,2.9599,2.9599,2.9178,2.8954,2.8954,2.8749,0.0,2.8217,2.7949,2.7671,2.7364,2.7686,2.8033,2.8423,2.9003,2.9505,2.9906,3.0038,2.9892,2.9584,2.9447,2.9198,2.8905,2.8905,2.8905,2.8905,2.8905,2.8905,2.8847,2.8541,2.83,2.8068,2.7811,2.7583,2.7365,2.7074,2.7002,2.7002,2.7002,2.7002,2.7002,2.7002,2.7002,2.6866,2.6427,2.5985,2.5576,2.5188,2.5102,2.5102,2.5102,2.4558,2.4102,2.4102,2.353,2.2824,2.2001,0.0,2.1563,0.0,0.0,0.0,0.0,1.9156,1.9105,1.937,1.9786,2.0042,0.0,0.0,2.1098,2.1934,2.2199,2.252,2.2904,2.2742,2.2621,2.2532,2.2747,2.299,2.3289,2.3631,2.38,2.38,2.38,2.3957,2.421,2.4366,2.4439,2.4406,2.455,2.4219,2.3655,2.3655,2.3483,2.3204,3.6209,3.6123,3.6018,3.5659,3.5595,3.5595,3.5595,3.5627,3.5627,3.5611,3.5627,3.5478,3.5091,3.4684,3.3839,3.23,0.0,0.0,3.0545,3.0167,2.9956,2.9936,2.9941,2.9947,2.9947,2.9967,2.982,2.9472,2.8817,2.8344,2.8014,2.8291,2.8437,2.8511,2.9447,2.9877,2.9921,3.0229,3.017,2.9848,2.954,2.9198,2.8905,2.8925,2.8925,2.8944,2.8964,2.8983,2.8934,2.8662,2.8585,2.8522,2.8243,2.8139,2.8012,2.7271,2.7038,2.7038,2.7016,2.7002,2.7002,2.7002,2.7002,2.6822,2.6175,2.6015,2.5824,2.5247,2.51,2.5086,2.5056,2.4543,2.4088,2.4073,2.3515,2.2901,2.2316,2.2432,2.2181,2.1061,0.0,0.0,2.0445,2.0102,1.9998,0.0,2.0813,0.0,0.0,0.0,2.2064,2.2907,2.3139,2.3384,2.3622,2.3195,2.2949,2.2905,2.3038,2.3101,2.3126,2.3579,2.38,2.38,2.38,2.3945,2.4174,2.4186,2.4272,2.4413,2.4425,2.4314,2.4128,2.4128,2.4128,2.4042,0.0,0.0,3.6288,3.5707,3.5595,3.5595,3.5595,3.5834,3.5891,3.5627,3.5812,3.5844,3.5516,3.51,3.4584,3.3892,3.2884,3.2106,3.1646,3.1074,3.0599,3.0293,3.0321,3.0364,3.0364,3.0726,3.0681,3.0245,2.9883,2.9468,2.9032,2.8856,2.8915,2.9164,2.9418,2.9652,2.9906,2.998,2.9833,2.9505,2.9432,2.9198,2.8925,2.9232,2.9348,2.9407,2.9703,2.9819,2.9778,2.9503,2.9424,2.9317,2.874,2.856,2.8407,2.7676,2.7459,2.7402,2.7074,2.7002,2.7002,2.7002,2.7002,2.6881,2.6486,2.6175,2.5883,2.5488,2.5244,2.5012,2.4763,2.4382,2.4014,2.3765,2.3369,2.2958,2.2564,2.2564,2.2489,0.0,2.171,2.1484,2.166,2.1144,2.0922,0.0,0.0,2.177,2.2452,2.2546,2.2769,2.3189,2.3705,2.3945,2.3903,2.3802,2.347,2.2905,2.3038,2.3101,2.3126,2.3579,2.38,2.38,2.38,2.3836,2.3909,2.4113,2.435,2.4558,2.4774,2.4738,2.4557,2.4557,2.4364,2.4085,3.7617,3.7504,3.7342,3.683,3.6733,3.6733,3.6733,3.6911,3.6938,3.6766,3.6545,3.6349,3.6178,3.5624,3.5201,3.4963,3.3913,3.3061,3.2595,3.2055,3.1664,3.1472,3.1343,3.1279,3.1279,3.1523,3.1447,3.1053,3.074,3.03,2.972,2.934,2.9164,2.9183,2.933,2.9491,2.9667,2.9667,2.9584,2.9388,2.9227,2.9164,2.9212,2.9407,2.9601,2.9795,3.0013,3.009,3.0083,2.9957,2.9926,2.9871,2.9533,2.9417,2.9281,2.8557,2.7979,2.7514,2.7111,2.7002,2.7002,2.7002,2.7002,2.691,2.6574,2.6234,2.5912,2.5559,2.5288,2.5,2.4661,2.4338,2.4,2.3647,2.3325,2.2973,2.2651,2.2856,2.3002,2.2841,2.248,2.231,2.2494,2.2019,2.1777,2.1954,2.2221,0.0,2.3063,2.3344,2.3554,2.371,2.4035,2.4214,2.4285,2.41,2.3775,2.3361,2.3348,2.3414,2.3568,2.3738,2.38,2.38,2.38,2.38,2.3812,2.3957,2.4246,2.4595,2.4752,2.4906,2.5028,2.5028,2.4878,2.4664,3.8669,3.8586,3.8487,3.8163,3.8097,3.8097,3.8097,3.8146,3.8163,3.8113,3.7511,3.705,3.7001,3.6303,3.5848,3.5784,3.4817,3.3991,3.3413,3.307,3.2834,3.271,3.2507,3.2339,3.2278,3.236,3.2191,3.1793,3.1455,3.0919,3.017,2.9766,2.9407,2.9095,2.9316,2.9429,2.9409,2.935,2.9344,2.9374,2.9174,2.9286,2.9579,2.9715,2.9957,3.0222,3.0264,3.0303,3.0296,3.0363,3.0365,3.0378,3.039,3.0394,3.0222,2.9422,2.8563,2.7734,2.7235,2.7038,2.7002,2.7002,2.7002,2.6943,2.6647,2.6281,2.5927,2.5617,2.5332,2.5,2.4661,2.4338,2.4,2.3647,2.3325,2.3017,2.2783,0.0,2.3545,2.3413,2.3235,2.3177,2.3277,2.2875,2.2602,2.2602,2.3082,2.3389,2.3425,2.391,2.4222,2.4262,2.4262,2.4364,2.4599,2.4211,2.4002,2.3984,2.3793,2.3837,2.409,2.3978,2.386,2.38,2.38,2.38,2.38,2.38,2.4089,2.4544,2.4544,2.4836,2.5282,2.5318,2.5331,2.53,3.8669,3.8586,3.8487,3.8163,3.8097,3.8097,3.8097,3.8344,3.8405,3.8146,3.8244,3.8194,3.7936,3.7371,3.692,3.6635,3.6083,3.5322,3.4271,3.3913,3.3418,3.2726,3.2973,3.3006,3.2711,3.3102,3.295,3.2203,3.1882,3.1302,3.0515,3.018,2.9974,2.9897,2.9622,2.9481,2.9462,2.913,2.9139,2.9428,2.9774,2.9917,3.0001,3.0748,3.0876,3.074,3.1087,3.1202,3.1206,3.1216,3.1204,3.1175,3.0886,3.0813,3.0592,2.9518,2.9083,2.8752,2.777,2.7256,2.7002,2.7002,2.7002,2.7002,2.6925,2.6439,2.5985,2.5927,2.5479,2.5,2.4661,2.4338,2.4,2.3647,2.3325,2.3179,2.3413,0.0,2.3897,2.469,2.4177,2.3974,2.4557,2.3985,2.3585,2.3585,2.3665,2.3826,2.4048,2.4155,2.4297,2.4519,2.4532,2.4559,2.4599,2.4211,2.4151,2.4418,2.4265,2.4166,2.411,2.4296,2.4192,2.38,2.38,2.38,2.38,2.38,2.3981,2.4258,2.4258,2.4439,2.474,2.4981,2.5065,2.508,3.9711,3.9677,3.9627,3.9475,3.9441,3.9441,3.9441,3.9576,3.9627,3.9458,3.916,3.8919,3.8769,3.8145,3.7482,3.6864,3.659,3.6073,3.5107,3.4701,3.4254,3.3682,3.3657,3.351,3.3184,3.339,3.3236,3.2669,3.2307,3.1723,3.0967,3.0627,3.0338,3.009,2.9912,2.9815,2.983,2.9874,2.9961,3.013,3.0524,3.0784,3.0987,3.1221,3.134,3.1377,3.1401,3.1395,3.1395,3.1395,3.1395,3.1363,3.1223,3.116,3.0995,3.006,2.9221,2.8492,2.7994,2.7728,2.7601,2.7601,2.7601,2.7547,2.7365,2.6941,2.6488,2.6082,2.5637,2.5171,2.469,2.4468,2.4249,2.3927,2.3751,0.0,2.3853,2.4175,2.4587,2.5042,2.4896,2.4794,2.4883,2.4549,2.4246,2.4026,2.4155,2.4271,2.4417,2.4417,2.4466,2.4599,2.4599,2.4599,2.4599,2.4414,2.4565,2.5052,2.475,2.4623,2.4642,2.4529,2.4252,2.38,2.38,2.38,2.38,2.38,2.3957,2.4198,2.4198,2.4354,2.4595,2.4728,2.4776,2.48,4.0606,4.0606,4.0606,4.0606,4.0606,4.0606,4.0606,4.0606,4.0606,4.0606,4.0011,3.9593,3.9593,3.8937,3.8185,3.7347,3.7034,3.6591,3.5801,3.5363,3.498,3.4615,3.4218,3.3842,3.3513,3.3513,3.3338,3.2992,3.2606,3.2079,3.1418,3.1089,3.0759,3.0415,3.0299,3.031,3.0383,3.062,3.0794,3.0947,3.1307,3.1635,3.1889,3.1664,3.1708,3.1852,3.1522,3.1395,3.1395,3.1395,3.1395,3.1395,3.1395,3.1395,3.1268,3.0632,2.9508,2.8436,2.8178,2.8093,2.8093,2.8093,2.8093,2.8021,2.7768,2.7404,2.6929,2.6373,2.5906,2.5444,2.4908,2.4763,2.4617,2.4263,0.0,2.4234,2.4307,2.4836,2.5261,2.5408,2.5513,2.5523,2.538,2.5151,2.4888,2.456,2.4646,2.4679,2.4599,2.4599,2.4599,2.4599,2.4599,2.4599,2.4599,2.4599,2.4893,2.5499,2.5179,2.5127,2.5249,2.4831,2.4392,2.3972,2.3852,2.38,2.38,2.38,2.3921,2.4101,2.4101,2.4222,2.4435,2.4475,2.452,2.452,4.0606,4.0606,4.0606,4.0606,4.0606,4.0606,4.0606,4.0606,4.0606,4.0606,4.0544,4.0487,4.0487,4.0056,3.948,3.8718,3.7786,3.6976,3.6275,3.5819,3.5367,3.4996,3.4345,3.3842,3.3513,3.3513,3.3338,3.2992,3.2606,3.2197,3.1845,3.1515,3.1337,3.1299,3.0913,3.093,3.1191,3.0864,3.1054,3.1655,3.2056,3.2253,3.2267,3.2288,3.215,3.1852,3.1522,3.1395,3.1395,3.1395,3.1395,3.1395,3.1395,3.1395,3.1335,3.0953,3.0293,2.9438,2.8384,2.8093,2.8093,2.8093,2.8093,2.8093,2.8057,2.7565,2.7078,2.7027,2.6458,2.5854,2.5503,2.523,2.4954,2.4617,0.0,0.0,2.4983,2.5286,2.5693,2.6325,2.6088,2.6095,2.67,2.6061,2.5609,2.5595,2.5267,2.493,2.4613,2.4599,2.4599,2.4599,2.4599,2.4599,2.4599,2.4599,2.4893,2.5499,2.548,2.5573,2.5733,2.5269,2.4831,2.4412,2.3992,2.38,2.38,2.38,2.3812,2.3836,2.3836,2.3848,2.3897,2.4138,2.4222,2.4258,4.0606,4.0606,4.0606,4.0606,4.0606,4.0606,4.0606,4.0606,4.0606,4.0606,4.0606,4.0606,4.0606,4.0425,3.9994,3.9177,3.8569,3.7777,3.6691,3.6246,3.5622,3.4731,3.4234,3.3842,3.3513,3.3513,3.3338,3.2992,3.2849,3.2571,3.2201,3.1872,3.1713,3.1693,3.1538,3.1558,3.1681,3.2003,3.2272,3.2539,3.2885,3.3041,3.3014,3.2848,3.2523,3.2173,3.182,3.157,3.1395,3.1395,3.1395,3.1395,3.1395,3.1395,3.1335,3.1004,3.0505,3.0018,2.9579,2.9161,2.8848,2.8848,2.8848,2.8779,2.8527,2.8275,2.7906,2.7244,2.6896,2.6491,2.5921,2.5725,2.5608,2.5491,0.0,2.5505,2.5637,2.5912,2.6205,2.6471,2.6725,2.689,2.6899,2.6814,2.6467,2.5752,2.557,2.5223,2.4631,2.4599,2.4599,2.4599,2.4599,2.4599,2.4599,2.4599,2.4893,2.5499,2.5499,2.5599,2.5792,2.5614,2.517,2.4492,2.4312,2.4072,2.38,2.38,2.38,2.38,2.38,2.38,2.3812,2.3909,2.3957,2.3969,4.0606,4.0606,4.0606,4.0606,4.0606,4.0606,4.0606,4.0606,4.0606,4.0606,4.0606,4.0606,4.0606,4.0606,4.0316,3.9582,3.9177,3.8469,3.7304,3.6638,3.5752,3.4562,3.4287,3.3953,3.3513,3.3513,3.3385,3.3167,3.3056,3.2865,3.2571,3.2217,3.2058,3.2058,3.2058,3.2142,3.2269,3.2801,3.3056,3.3183,3.3401,3.3513,3.3465,3.3135,3.2829,3.2539,3.217,3.1856,3.1554,3.1554,3.149,3.1395,3.1395,3.1395,3.1335,3.1004,3.0699,3.0458,3.0328,2.9963,2.96,2.9488,2.9457,2.9353,2.899,2.8797,2.8485,2.7753,2.7421,2.7081,2.6452,2.6234,2.6117,2.6015,2.6088,2.6146,2.6146,2.6457,2.6661,2.6661,2.7163,2.7417,2.7239,2.7396,2.7169,2.6298,2.597,2.5468,2.4644,2.4599,2.4599,2.4599,2.4693,2.4764,2.4764,2.4764,2.5005,2.5499,2.5611,2.5769,2.599,2.5852,2.5475,2.4911,2.4751,2.4432,2.4032,2.4032,2.392,2.38,2.38,2.38,2.38,2.38,2.38,2.38,4.0606,4.0606,4.0606,4.0606,4.0606,4.0606,4.0606,4.0606,4.0606,4.0606,4.0606,4.0606,4.0606,4.0606,4.0446,4.0047,3.9587,3.8981,3.8258,3.7025,3.5768,3.4562,3.4509,3.4191,3.3529,3.3513,3.3513,3.3513,3.3167,3.2992,3.2992,3.2587,3.2392,3.2392,3.2392,3.2638,3.2992,3.3012,3.3199,3.3513,3.3513,3.3513,3.3465,3.3135,3.3012,3.2945,3.2539,3.2185,3.19,3.19,3.1681,3.1395,3.1395,3.1395,3.1335,3.1004,3.0908,3.0829,3.0426,3.0312,3.0232,2.9899,2.9804,2.9708,2.9377,2.8977,2.8691,2.8691,2.813,2.75,2.717,2.6786,2.6398,2.6076,2.6296,2.65,2.65,2.6793,2.7002,2.7002,2.7294,2.7598,2.7863,2.7841,2.7707,2.743,2.6586,2.5661,2.4658,2.4599,2.4599,2.4613,2.493,2.5096,2.5096,2.5096,2.5243,2.5499,2.5831,2.6145,2.6386,2.599,2.5792,2.5772,2.5309,2.4871,2.4492,2.4492,2.4232,2.38,2.38,2.38,2.38,2.38,2.38,2.38,4.0652,4.0606,4.0606,4.0606,4.0606,4.0606,4.0606,4.0606,4.0606,4.0606,4.0606,4.0606,4.0606,4.0606,4.0555,4.0429,4.0015,3.9332,3.828,3.7539,3.6752,3.5882,3.4975,3.4302,3.3858,3.3619,3.3513,3.3513,3.3401,3.3354,3.3338,3.2988,3.2813,3.2813,3.2813,3.3038,3.3452,3.3673,3.4014,3.4396,3.4396,3.4213,3.3911,3.3814,3.3459,3.2976,3.2845,3.2591,3.2201,3.1979,3.1836,3.1713,3.1474,3.1395,3.1382,3.1287,3.1255,3.1223,3.1093,3.1061,3.0918,3.0296,2.9978,2.9754,2.9677,2.9382,2.903,2.8761,2.8511,2.8261,2.7881,2.7524,2.7227,2.7137,2.6977,2.6852,2.6852,2.6943,2.7002,2.7002,2.7462,2.7809,2.7892,2.8298,2.8313,2.7726,2.6507,2.5776,2.5666,2.5214,2.5037,2.5232,2.5344,2.5384,2.5384,2.5384,2.5531,2.5844,2.5957,2.6145,2.6406,2.6287,2.607,2.5792,2.5653,2.5189,2.4492,2.4492,2.4232,2.38,2.38,2.38,2.38,2.38,2.38,2.38,4.0969,4.0878,4.081,4.0629,4.0606,4.0606,4.0606,4.0606,4.0606,4.0606,4.0606,4.0606,4.0606,4.0606,4.0606,4.0606,4.0219,3.9691,3.8966,3.8206,3.7593,3.7122,3.5926,3.4957,3.4287,3.3897,3.3619,3.3513,3.3513,3.3513,3.3497,3.329,3.3199,3.3199,3.3361,3.3564,3.3823,3.4197,3.4539,3.4804,3.4804,3.4621,3.4376,3.4376,3.3981,3.3443,3.3443,3.3097,3.2622,3.2396,3.2142,3.1836,3.1506,3.1395,3.1395,3.1395,3.1395,3.1395,3.1395,3.1395,3.1284,3.0855,3.0359,2.9963,2.9835,2.9534,2.9244,2.8995,2.8815,2.8635,2.8382,2.8039,2.7804,2.7804,2.7492,2.7238,2.7238,2.7093,2.7002,2.7002,2.7517,2.7892,2.7892,2.852,2.8579,2.785,2.6913,2.6377,2.6381,2.5989,2.5767,2.5734,2.5874,2.5865,2.5711,2.5798,2.5892,2.5998,2.6118,2.6246,2.6406,2.6406,2.6268,2.605,2.605,2.5534,2.4731,2.4731,2.4372,2.38,2.38,2.38,2.38,2.38,2.38,2.38,4.1461,4.1371,4.1235,4.0788,4.072,4.072,4.072,4.072,4.072,4.072,4.072,4.072,4.072,4.072,4.072,4.072,4.0388,4.0159,4.008,3.9032,3.8384,3.8273,3.7165,3.6027,3.4901,3.437,3.3925,3.3538,3.3615,3.3595,3.3538,3.3599,3.3636,3.362,3.4009,3.4192,3.4254,3.4661,3.4885,3.4905,3.4905,3.4885,3.4844,3.4844,3.4559,3.4172,3.4172,3.3738,3.3161,3.3129,3.2662,3.2001,3.1702,3.1593,3.1558,3.152,3.1469,3.1453,3.1414,3.1395,3.1379,3.1347,3.0823,3.0217,2.9915,2.955,2.9298,2.9298,2.9013,2.8745,2.8745,2.8449,2.8193,2.8193,2.7952,2.7734,2.7701,2.7355,2.71,2.7082,2.7569,2.7907,2.7936,2.8515,2.8613,2.7951,2.7616,2.7288,2.6941,2.6875,2.6646,2.6268,2.6542,2.6505,2.6096,2.6331,2.6312,2.6038,2.6286,2.6406,2.6406,2.6406,2.6406,2.6406,2.6406,2.5924,2.509,2.509,2.4592,2.38,2.38,2.38,2.38,2.38,2.38,2.3812,4.1939,4.1849,4.1827,4.1714,4.1692,4.1692,4.1692,4.1692,4.1692,4.1692,4.1692,4.1692,4.1692,4.1692,4.1692,4.1692,4.1621,4.1271,4.0594,4.0309,3.9743,3.8787,3.8143,3.7313,3.6213,3.5419,3.4657,3.3968,3.4335,3.4335,3.3988,3.4356,3.4519,3.4519,3.46,3.4824,3.5129,3.523,3.5474,3.5834,3.5834,3.5595,3.5271,3.5271,3.5007,3.4641,3.4641,3.4551,3.4355,3.4117,3.3703,3.329,3.3208,3.3031,3.276,3.243,3.2123,3.1801,3.1491,3.1395,3.1351,3.1064,3.0648,3.028,3.0217,2.9743,2.9298,2.9298,2.9244,2.9172,2.9172,2.9052,2.8966,2.8966,2.8888,2.8758,2.8499,2.8119,2.7828,2.7792,2.785,2.7995,2.8277,2.8666,2.8817,2.8681,2.8081,2.7798,2.7963,2.7426,2.72,2.734,2.7371,2.7197,2.6798,2.6833,2.6675,2.6312,2.6379,2.6406,2.6406,2.6406,2.6406,2.6406,2.6406,2.5924,2.509,2.509,2.4592,2.38,2.38,2.38,2.38,2.38,2.38,2.386,4.2766,4.2492,4.2299,4.2052,4.2007,4.2007,4.2007,4.2007,4.2007,4.2007,4.2007,4.2007,4.2007,4.2007,4.2007,4.2007,4.2007,4.1806,4.1348,4.1172,4.0604,3.9569,3.91,3.8335,3.7207,3.6529,3.5621,3.4437,3.4682,3.4661,3.4437,3.4682,3.4804,3.4804,3.5007,3.519,3.5413,3.5635,3.5895,3.6097,3.6097,3.5956,3.5716,3.5716,3.5453,3.5088,3.5088,3.4966,3.4754,3.4411,3.4166,3.3948,3.3766,3.3469,3.3166,3.2952,3.2478,3.1955,3.1744,3.1549,3.1319,3.0988,3.0603,3.0264,3.0105,2.9679,2.9298,2.9298,2.9298,2.9298,2.9298,2.9402,2.9477,2.9477,2.9498,2.9446,2.9257,2.8877,2.8617,2.8565,2.8506,2.8472,2.8622,2.8798,2.8905,2.8905,2.8545,2.8414,2.8573,2.8234,2.8006,2.7981,2.7961,2.7628,2.7012,2.7012,2.6815,2.6406,2.6406,2.6406,2.6406,2.6406,2.6406,2.6406,2.6406,2.5924,2.509,2.509,2.4592,2.38,2.38,2.38,2.38,2.38,2.38,2.386,4.3606,4.3248,4.286,4.2362,4.2254,4.2254,4.2254,4.2254,4.2254,4.2254,4.2254,4.2254,4.2254,4.2254,4.2254,4.2254,4.2254,4.2209,4.2142,4.1884,4.1311,4.046,3.9944,3.917,3.8047,3.7564,3.6543,3.5005,3.502,3.4966,3.4905,3.4987,3.5007,3.5027,3.5372,3.5514,3.5555,3.5935,3.6097,3.6097,3.6097,3.6097,3.6097,3.6097,3.5858,3.5514,3.5514,3.5311,3.4994,3.4698,3.4619,3.4549,3.4216,3.3814,3.3498,3.3404,3.2835,3.2203,3.2127,3.1859,3.151,3.1102,3.0697,3.0309,2.9883,2.9534,2.9298,2.9298,2.9298,2.9298,2.9298,2.9613,2.9899,2.9899,2.9991,3.0056,2.9993,2.9641,2.9382,2.9363,2.9196,2.907,2.9007,2.8925,2.8905,2.8905,2.8905,2.8905,2.8905,2.8905,2.8744,2.8412,2.8392,2.7981,2.711,2.7097,2.686,2.6406,2.6406,2.6406,2.6406,2.6406,2.6406,2.6406,2.6406,2.5924,2.509,2.509,2.4592,2.38,2.38,2.38,2.38,2.38,2.38,2.3848,4.4092,4.3941,4.3794,4.3376,4.3303,4.3303,4.3303,4.3303,4.3303,4.3303,4.3303,4.3303,4.3303,4.3303,4.3303,4.3303,4.3303,4.3124,4.2725,4.2649,4.225,4.1351,4.0544,3.9744,3.8955,3.8132,3.7104,3.5842,3.5906,3.5716,3.5332,3.5716,3.5935,3.5935,3.5996,3.6016,3.6016,3.6077,3.6097,3.6097,3.6097,3.6097,3.6097,3.6097,3.6057,3.6016,3.6016,3.5976,3.5918,3.5867,3.585,3.585,3.5782,3.5325,3.4684,3.4256,3.3616,3.2949,3.2607,3.249,3.2258,3.1577,3.1162,3.0695,2.9975,2.9534,2.9298,2.9298,2.9298,2.9298,2.9298,2.9804,3.0232,3.0232,3.0769,3.1083,3.0801,3.0395,3.013,3.0073,2.9697,2.942,2.9426,2.9115,2.8905,2.8905,2.8905,2.8905,2.8905,2.8905,2.8866,2.8808,2.8808,2.8398,2.7535,2.7516,2.7136,2.6406,2.6406,2.6406,2.6406,2.6406,2.6406,2.6406,2.6406,2.5924,2.509,2.509,2.4592,2.38,2.38,2.38,2.38,2.38,2.38,2.3848,4.5214,4.4974,4.4696,4.4289,4.3991,4.3756,4.3518,4.3499,4.3499,4.3499,4.3499,4.3499,4.3499,4.3499,4.3499,4.3499,4.3499,4.341,4.3191,4.3191,4.2808,4.1945,4.1528,4.0714,3.9421,3.8827,3.7917,3.6664,3.6474,3.6184,3.5797,3.6016,3.6097,3.6097,3.6097,3.6097,3.6097,3.6097,3.6097,3.6097,3.6097,3.6097,3.6097,3.6097,3.6097,3.6097,3.6097,3.6097,3.6097,3.6097,3.6097,3.6097,3.6097,3.572,3.5184,3.482,3.4147,3.3446,3.3054,3.2759,3.2467,3.1952,3.1717,3.1344,3.037,3.0022,2.9807,2.9365,2.9298,2.9298,2.9298,2.9854,3.0296,3.0296,3.0918,3.1351,3.1192,3.1023,3.0813,3.0579,3.0357,3.0043,2.9543,2.9348,2.9154,2.8925,2.8905,2.8905,2.8905,2.8905,2.8905,2.8905,2.8905,2.8476,2.7614,2.7594,2.7201,2.6406,2.6406,2.6406,2.6406,2.6406,2.6406,2.6406,2.6406,2.5924,2.509,2.509,2.4592,2.38,2.38,2.38,2.3824,2.3969,2.4017,2.4041]}]]